[[{"header":{"parameterUnit":"m.s-1","parameterCategory":1,"la1":30.6,"la2":28.766,"lo1":-90.7593,"lo2":-88.6598,"dy":0.0162,"dx":0.0183,"nx":116,"ny":114,"refTime":"2024-03-22T00:00:00:Z","depth":0,"parameterNumber":2,"parameterNumberName":"U-component_of_WINDS"},"data":[0.0,0.0,0.0,0.0,0.0,0.0,0.0,0.0,0.0,0.0,0.0,0.0,0.0,0.0,0.0,0.0,0.0,0.0,0.0,0.0,0.0,0.0,0.0,0.0,0.0,0.0,0.0,0.0,0.0,0.0,0.0,0.0,0.0,0.0,0.0,0.0,0.0,0.0,0.0,0.0,0.0,0.0,0.0,0.0,0.0,0.0,0.0,0.0,0.0,0.0,0.0,0.0,0.0,0.0,0.0,0.0,0.0,0.0,0.0,0.0,0.0,0.0,0.0,0.0,0.0,0.0,0.0,0.0,0.0,0.0,0.0,0.0,0.0,0.0,0.0,0.0,0.0,0.0,0.0,0.0,0.0,0.0,0.0,0.0,0.0,0.0,0.0,0.0,0.0,0.0,0.0,0.0,0.0,0.0,0.0,0.0,0.0,0.0,0.0,0.0,0.0,0.0,0.0,0.0,0.0,0.0,0.0,0.0,0.0,0.0,0.0,0.0,0.0,0.0,0.0,0.0,0.0,0.0,0.0,0.0,0.0,0.0,0.0,0.0,0.0,0.0,0.0,0.0,0.0,0.0,0.0,0.0,0.0,0.0,0.0,0.0,0.0,0.0,0.0,0.0,0.0,0.0,0.0,0.0,0.0,0.0,0.0,0.0,0.0,0.0,0.0,0.0,0.0,0.0,0.0,0.0,0.0,0.0,0.0,0.0,0.0,0.0,0.0,0.0,0.0,0.0,0.0,0.0,0.0,0.0,0.0,0.0,0.0,0.0,0.0,0.0,0.0,0.0,0.0,0.0,0.0,0.0,0.0,0.0,0.0,0.0,0.0,0.0,0.0,0.0,0.0,0.0,0.0,0.0,0.0,0.0,0.0,0.0,0.0,0.0,0.0,0.0,0.0,0.0,0.0,0.0,0.0,0.0,0.0,0.0,0.0,0.0,0.0,0.0,0.0,0.0,0.0,0.0,0.0,0.0,0.0,0.0,0.0,0.0,0.0,0.0,0.0,0.0,0.0,0.0,0.0,0.0,0.0,0.0,0.0,0.0,0.0,0.0,0.0,0.0,0.0,0.0,0.0,0.0,0.0,0.0,0.0,0.0,0.0,0.0,0.0,0.0,0.0,0.0,0.0,0.0,0.0,0.0,0.0,0.0,0.0,0.0,0.0,0.0,0.0,0.0,0.0,0.0,0.0,0.0,0.0,0.0,0.0,0.0,0.0,0.0,0.0,0.0,0.0,0.0,0.0,0.0,0.0,0.0,0.0,0.0,0.0,0.0,0.0,0.0,0.0,0.0,0.0,0.0,0.0,0.0,0.0,0.0,0.0,0.0,0.0,0.0,0.0,0.0,0.0,0.0,0.0,0.0,0.0,0.0,0.0,0.0,0.0,0.0,0.0,0.0,0.0,0.0,0.0,0.0,0.0,0.0,0.0,0.0,0.0,0.0,0.0,0.0,0.0,0.0,0.0,0.0,0.0,0.0,0.0,0.0,0.0,0.0,0.0,0.0,0.0,0.0,0.0,0.0,0.0,0.0,0.0,0.0,0.0,0.0,0.0,0.0,0.0,0.0,0.0,0.0,0.0,0.0,0.0,0.0,0.0,0.0,0.0,0.0,0.0,0.0,0.0,0.0,0.0,0.0,0.0,0.0,0.0,0.0,0.0,0.0,0.0,0.0,0.0,0.0,0.0,0.0,0.0,0.0,0.0,0.0,0.0,0.0,0.0,0.0,0.0,0.0,0.0,0.0,0.0,0.0,0.0,0.0,0.0,0.0,0.0,0.0,0.0,0.0,0.0,0.0,0.0,0.0,0.0,0.0,0.0,0.0,0.0,0.0,0.0,0.0,0.0,0.0,0.0,0.0,0.0,0.0,0.0,0.0,0.0,0.0,0.0,0.0,0.0,0.0,0.0,0.0,0.0,0.0,0.0,0.0,0.0,0.0,0.0,0.0,0.0,0.0,0.0,0.0,0.0,0.0,0.0,0.0,0.0,0.0,0.0,0.0,0.0,0.0,0.0,0.0,0.0,0.0,0.0,0.0,0.0,0.0,0.0,0.0,0.0,0.0,0.0,0.0,0.0,0.0,0.0,0.0,0.0,0.0,0.0,0.0,0.0,0.0,0.0,0.0,0.0,0.0,0.0,0.0,0.0,0.0,0.0,0.0,0.0,0.0,0.0,0.0,0.0,0.0,0.0,0.0,0.0,0.0,0.0,0.0,0.0,0.0,0.0,0.0,0.0,0.0,0.0,0.0,0.0,0.0,0.0,0.0,0.0,0.0,0.0,0.0,0.0,0.0,0.0,0.0,0.0,0.0,0.0,0.0,0.0,0.0,0.0,0.0,0.0,0.0,0.0,0.0,0.0,0.0,0.0,0.0,0.0,0.0,0.0,0.0,0.0,0.0,0.0,0.0,0.0,0.0,0.0,0.0,0.0,0.0,0.0,0.0,0.0,0.0,0.0,0.0,0.0,0.0,0.0,0.0,0.0,0.0,0.0,0.0,0.0,0.0,0.0,0.0,0.0,0.0,0.0,0.0,0.0,0.0,0.0,0.0,0.0,0.0,0.0,0.0,0.0,0.0,0.0,0.0,0.0,0.0,0.0,0.0,0.0,0.0,0.0,0.0,0.0,0.0,0.0,0.0,0.0,0.0,0.0,0.0,0.0,0.0,0.0,0.0,0.0,0.0,0.0,0.0,0.0,0.0,0.0,0.0,0.0,0.0,0.0,0.0,0.0,0.0,0.0,0.0,0.0,0.0,0.0,0.0,0.0,0.0,0.0,0.0,0.0,0.0,0.0,0.0,0.0,0.0,0.0,0.0,0.0,0.0,0.0,0.0,0.0,0.0,0.0,0.0,0.0,0.0,0.0,0.0,0.0,0.0,0.0,0.0,0.0,0.0,0.0,0.0,0.0,0.0,0.0,0.0,0.0,0.0,0.0,0.0,0.0,0.0,0.0,0.0,0.0,0.0,0.0,0.0,0.0,0.0,0.0,0.0,0.0,0.0,0.0,0.0,0.0,0.0,0.0,0.0,0.0,0.0,0.0,0.0,0.0,0.0,0.0,0.0,0.0,0.0,0.0,0.0,0.0,0.0,0.0,0.0,0.0,0.0,0.0,0.0,0.0,0.0,0.0,0.0,0.0,0.0,0.0,0.0,0.0,0.0,0.0,0.0,0.0,0.0,0.0,0.0,0.0,0.0,0.0,0.0,0.0,0.0,0.0,0.0,0.0,0.0,0.0,0.0,0.0,0.0,0.0,0.0,0.0,0.0,0.0,0.0,0.0,0.0,0.0,0.0,0.0,0.0,0.0,0.0,0.0,0.0,0.0,0.0,0.0,0.0,0.0,0.0,0.0,0.0,0.0,0.0,0.0,0.0,0.0,0.0,0.0,0.0,0.0,0.0,0.0,0.0,0.0,0.0,0.0,0.0,0.0,0.0,0.0,0.0,0.0,0.0,0.0,0.0,0.0,0.0,0.0,0.0,0.0,0.0,0.0,0.0,0.0,0.0,0.0,0.0,0.0,0.0,0.0,0.0,0.0,0.0,0.0,0.0,0.0,0.0,0.0,0.0,0.0,0.0,0.0,0.0,0.0,0.0,0.0,0.0,0.0,0.0,0.0,0.0,0.0,0.0,0.0,0.0,0.0,0.0,0.0,0.0,0.0,0.0,0.0,0.0,0.0,0.0,0.0,0.0,0.0,0.0,0.0,0.0,0.0,0.0,0.0,0.0,0.0,0.0,0.0,0.0,0.0,0.0,0.0,0.0,0.0,0.0,0.0,0.0,0.0,0.0,0.0,0.0,0.0,0.0,0.0,0.0,0.0,0.0,0.0,0.0,0.0,0.0,0.0,0.0,0.0,0.0,0.0,0.0,0.0,0.0,0.0,0.0,0.0,0.0,0.0,0.0,0.0,0.0,0.0,0.0,0.0,0.0,0.0,0.0,0.0,0.0,0.0,0.0,0.0,0.0,0.0,0.0,0.0,0.0,0.0,0.0,0.0,0.0,0.0,0.0,0.0,0.0,0.0,0.0,0.0,0.0,0.0,0.0,0.0,0.0,0.0,0.0,0.0,0.0,0.0,0.0,0.0,0.0,0.0,0.0,0.0,0.0,0.0,0.0,0.0,0.0,0.0,0.0,0.0,0.0,0.0,0.0,0.0,0.0,0.0,0.0,0.0,0.0,0.0,0.0,0.0,0.0,0.0,0.0,0.0,0.0,0.0,0.0,0.0,0.0,0.0,0.0,0.0,0.0,0.0,0.0,0.0,0.0,0.0,0.0,0.0,0.0,0.0,0.0,0.0,0.0,0.0,0.0,0.0,0.0,0.0,0.0,0.0,0.0,0.0,0.0,0.0,0.0,0.0,0.0,0.0,0.0,0.0,0.0,0.0,0.0,0.0,0.0,0.0,0.0,0.0,0.0,0.0,0.0,0.0,0.0,0.0,0.0,0.0,0.0,0.0,0.0,0.0,0.0,0.0,0.0,0.0,0.0,0.0,0.0,0.0,0.0,0.0,0.0,0.0,0.0,0.0,0.0,0.0,0.0,0.0,0.0,0.0,0.0,0.0,0.0,0.0,0.0,0.0,0.0,0.0,0.0,0.0,0.0,0.0,0.0,0.0,0.0,0.0,0.0,0.0,0.0,0.0,0.0,0.0,0.0,0.0,0.0,0.0,0.0,0.0,0.0,0.0,0.0,0.0,0.0,0.0,0.0,0.0,0.0,0.0,0.0,0.0,0.0,0.0,0.0,0.0,0.0,0.0,0.0,0.0,0.0,0.0,0.0,0.0,0.0,0.0,0.0,0.0,0.0,0.0,0.0,0.0,0.0,0.0,0.0,0.0,0.0,0.0,0.0,0.0,0.0,0.0,0.0,0.0,0.0,0.0,0.0,0.0,0.0,0.0,0.0,0.0,0.0,0.0,0.0,0.0,0.0,0.0,0.0,0.0,0.0,0.0,0.0,0.0,0.0,0.0,0.0,0.0,0.0,0.0,0.0,0.0,0.0,0.0,0.0,0.0,0.0,0.0,0.0,0.0,0.0,0.0,0.0,0.0,0.0,0.0,0.0,0.0,0.0,0.0,0.0,0.0,0.0,0.0,0.0,0.0,0.0,0.0,0.0,0.0,0.0,0.0,0.0,0.0,0.0,0.0,0.0,0.0,0.0,0.0,0.0,0.0,0.0,0.0,0.0,0.0,0.0,0.0,0.0,0.0,0.0,0.0,0.0,0.0,0.0,0.0,0.0,0.0,0.0,0.0,0.0,0.0,0.0,0.0,0.0,0.0,0.0,0.0,0.0,0.0,0.0,0.0,0.0,0.0,0.0,0.0,0.0,0.0,0.0,0.0,0.0,0.0,0.0,0.0,0.0,0.0,0.0,0.0,0.0,0.0,0.0,0.0,0.0,0.0,0.0,0.0,0.0,0.0,0.0,0.0,0.0,0.0,0.0,0.0,0.0,0.0,0.0,0.0,0.0,0.0,0.0,0.0,0.0,0.0,0.0,0.0,0.0,0.0,0.0,0.0,0.0,0.0,0.0,0.0,0.0,0.0,0.0,0.0,0.0,0.0,0.0,0.0,0.0,0.0,0.0,0.0,0.0,0.0,0.0,0.0,0.0,0.0,0.0,0.0,0.0,0.0,0.0,0.0,0.0,0.0,0.0,0.0,0.0,0.0,0.0,0.0,0.0,0.0,0.0,0.0,0.0,0.0,0.0,0.0,0.0,0.0,0.0,0.0,0.0,0.0,0.0,0.0,0.0,0.0,0.0,0.0,0.0,0.0,0.0,0.0,0.0,0.0,0.0,0.0,0.0,0.0,0.0,0.0,0.0,0.0,0.0,0.0,0.0,0.0,0.0,0.0,0.0,0.0,0.0,0.0,0.0,0.0,0.0,0.0,0.0,0.0,0.0,0.0,0.0,0.0,0.0,0.0,0.0,0.0,0.0,0.0,0.0,0.0,0.0,0.0,0.0,0.0,0.0,0.0,0.0,0.0,0.0,0.0,0.0,0.0,0.0,0.0,0.0,0.0,0.0,0.0,0.0,0.0,0.0,0.0,0.0,0.0,0.0,0.0,0.0,0.0,0.0,0.0,0.0,0.0,0.0,0.0,0.0,1.6006,1.5268,0.0,0.0,0.0,0.0,0.0,0.0,0.0,0.0,0.0,0.0,0.0,0.0,0.0,0.0,0.0,0.0,0.0,0.0,0.0,0.0,0.0,0.0,0.0,3.7707,3.8508,3.8508,3.9739,4.0539,4.0539,4.0539,4.047,4.0401,4.0331,4.0261,4.0152,3.991,3.9768,3.9696,3.9625,3.9481,3.9409,3.9192,3.8766,3.815,0.0,0.0,0.0,0.0,0.0,0.0,0.0,0.0,0.0,0.0,0.0,0.0,0.0,0.0,0.0,0.0,0.0,0.0,0.0,0.0,0.0,0.0,0.0,0.0,0.0,0.0,0.0,0.0,0.0,0.0,0.0,0.0,0.0,0.0,0.0,0.0,0.0,0.0,0.0,0.0,0.0,0.0,0.0,0.0,0.0,0.0,0.0,0.0,0.0,0.0,0.0,0.0,0.0,0.0,0.0,0.0,0.0,0.0,0.0,0.0,0.0,0.0,0.0,0.0,0.0,0.0,0.0,0.0,0.0,0.0,1.4295,1.3733,0.0,0.0,0.0,0.0,0.0,0.0,0.0,0.0,0.0,0.0,0.0,0.0,0.0,0.0,0.0,0.0,0.0,0.0,0.0,0.0,0.0,3.6507,3.6507,3.7707,3.8508,3.8508,3.9739,4.0539,4.0539,4.0539,4.0539,4.0539,4.0401,4.0331,4.0331,4.0152,3.998,3.9839,3.9768,3.9625,3.9409,3.9265,3.9017,3.887,3.8575,0.0,0.0,0.0,0.0,0.0,0.0,0.0,0.0,0.0,0.0,0.0,0.0,0.0,0.0,0.0,0.0,0.0,0.0,0.0,0.0,0.0,0.0,0.0,0.0,0.0,0.0,0.0,0.0,0.0,0.0,0.0,0.0,0.0,0.0,0.0,0.0,0.0,0.0,0.0,0.0,0.0,0.0,0.0,0.0,0.0,0.0,0.0,0.0,0.0,0.0,0.0,0.0,0.0,0.0,0.0,0.0,0.0,0.0,0.0,0.0,0.0,0.0,0.0,1.8094,1.7016,1.5924,1.4818,1.3537,1.2165,1.2401,1.2027,1.106,0.9787,0.0,0.0,0.0,0.0,0.0,0.0,0.0,0.0,0.0,0.0,0.0,0.0,0.0,0.0,0.0,0.0,0.0,0.0,0.0,3.6507,3.6507,3.7707,3.8508,3.8508,3.9739,4.0539,4.0539,4.0539,4.0539,4.0539,4.047,4.047,4.047,4.0331,4.0261,4.0191,3.991,3.9625,3.9409,3.9337,3.9265,3.9017,3.8649,3.8323,3.8086,0.0,0.0,0.0,0.0,0.0,0.0,0.0,0.0,0.0,0.0,0.0,0.0,0.0,0.0,0.0,0.0,0.0,0.0,0.0,0.0,0.0,0.0,0.0,0.0,0.0,0.0,0.0,0.0,0.0,0.0,0.0,0.0,0.0,0.0,0.0,0.0,0.0,0.0,0.0,0.0,0.0,3.0781,3.0876,0.0,0.0,0.0,0.0,0.0,0.0,0.0,0.0,0.0,0.0,0.0,0.0,0.0,2.104,2.063,1.959,1.8519,1.7432,1.635,1.5255,1.4164,1.3054,1.1812,1.0711,0.9823,0.0,0.9157,0.8383,0.0,0.0,0.0,0.0,0.0,0.0,0.0,0.0,0.0,0.0,0.0,0.0,0.0,0.0,0.0,0.0,0.0,0.0,0.0,0.0,0.0,3.7923,3.8662,3.9031,3.9955,4.0539,4.0539,4.0539,4.0539,4.0539,4.0539,4.0539,4.0539,4.047,4.0585,4.0842,4.0849,4.0812,4.0664,4.0591,4.0442,4.0218,4.0068,3.9354,3.8352,3.8005,0.0,0.0,0.0,0.0,0.0,0.0,0.0,0.0,0.0,0.0,0.0,0.0,0.0,0.0,0.0,0.0,0.0,0.0,0.0,0.0,0.0,0.0,0.0,0.0,0.0,0.0,0.0,0.0,0.0,0.0,0.0,0.0,0.0,0.0,0.0,0.0,0.0,0.0,0.0,3.105,3.103,3.0466,3.0057,2.9511,0.0,0.0,0.0,0.0,0.0,0.0,0.0,0.0,0.0,2.2337,2.0835,1.9746,1.9187,1.8375,1.7272,1.5886,1.5041,1.3924,1.2522,1.1314,1.0162,0.9041,0.785,0.7199,0.7215,0.6753,0.5984,0.5089,0.0,0.0,0.0,0.0,0.1017,0.0126,0.0,0.0,0.0,0.0,0.0,0.0,0.0,0.0,0.0,0.0,0.0,0.0,3.743,3.8108,3.8785,3.9462,4.0139,4.0539,4.0539,4.0539,4.0539,4.0539,4.0693,4.0786,4.0786,4.097,4.1238,4.1545,4.1711,4.173,4.1656,4.1535,4.1308,4.1156,4.1109,4.0317,3.9028,3.8725,3.8409,3.8112,0.0,0.0,0.0,0.0,0.0,0.0,0.0,0.0,0.0,0.0,0.0,0.0,0.0,0.0,0.0,0.0,0.0,0.0,0.0,0.0,0.0,0.0,0.0,0.0,0.0,0.0,0.0,0.0,0.0,0.0,0.0,0.0,0.0,0.0,0.0,0.0,0.0,3.1324,3.0982,3.0047,2.9744,2.9357,0.0,0.0,0.0,0.0,0.0,0.0,2.3763,2.2796,2.1976,2.1418,2.0005,1.8877,1.8018,1.7166,1.6025,1.4601,1.373,1.2554,1.1076,0.9821,0.8622,0.7455,0.6386,0.5648,0.4926,0.5134,0.4762,0.3865,0.3195,0.1844,0.013,-0.0648,-0.0906,-0.1159,0.0,0.0,0.0,0.0,0.0,0.0,0.0,0.0,0.0,0.0,0.0,3.6753,3.743,3.8108,3.8785,3.9462,4.0139,4.0539,4.0539,4.0539,4.0539,4.0539,4.1186,4.1555,4.1555,4.2171,4.2437,4.2218,4.2058,4.191,4.1656,4.1535,4.1384,4.1384,4.1186,4.082,4.0403,4.0373,3.979,3.8822,3.8589,0.0,0.0,0.0,0.0,0.0,0.0,0.0,0.0,0.0,0.0,0.0,0.0,0.0,0.0,0.0,0.0,0.0,0.0,0.0,0.0,0.0,0.0,0.0,0.0,0.0,0.0,0.0,0.0,0.0,0.0,0.0,0.0,0.0,0.0,0.0,0.0,0.0,0.0,2.9832,2.9743,0.0,0.0,0.0,0.0,2.6099,2.5242,2.4396,2.3248,2.2405,2.1545,2.0249,1.909,1.7925,1.6745,1.6012,1.4834,1.3208,1.2466,1.1205,0.9612,0.8725,0.7499,0.5967,0.6108,0.4766,0.2569,0.3944,0.3334,0.1509,0.1372,0.0405,-0.079,-0.2503,-0.3134,-0.3355,0.0,0.0,0.0,0.0,0.0,0.0,0.0,0.0,3.4968,3.6322,3.6507,3.6907,3.8015,3.8385,3.8939,4.0078,4.0385,4.0539,4.0539,4.0539,4.0724,4.1186,4.1463,4.1801,4.2232,4.2879,4.3217,4.3144,4.3349,4.3335,4.3182,4.2952,4.2797,4.2641,4.2563,4.2327,4.2031,4.0969,4.0188,3.9613,3.9485,3.9183,0.0,0.0,0.0,0.0,0.0,0.0,0.0,0.0,0.0,0.0,0.0,0.0,0.0,0.0,0.0,0.0,0.0,0.0,0.0,0.0,0.0,0.0,0.0,0.0,0.0,0.0,0.0,0.0,0.0,0.0,0.0,0.0,0.0,0.0,0.0,0.0,0.0,2.983,2.9647,0.0,2.818,2.72,2.6143,2.5299,2.4296,2.3158,2.2013,2.1006,2.0005,1.9133,1.7663,1.6489,1.5615,1.4572,1.3386,1.2054,1.1002,0.9777,0.8402,0.7057,0.6145,0.5528,0.3999,0.2648,0.1464,0.0867,0.0284,-0.0,-0.0417,-0.1514,-0.2707,-0.3251,-0.3624,-0.3708,0.0,0.0,0.0,0.0,0.0,0.0,0.0,3.4482,3.5214,3.6353,3.6507,3.6999,3.8354,3.8508,3.9062,4.0416,4.0539,4.0539,4.0539,4.0755,4.1093,4.1586,4.2017,4.2571,4.3248,4.3679,4.3925,4.3925,4.4205,4.422,4.3988,4.3754,4.3596,4.3329,4.3329,4.317,4.2921,4.1774,4.1037,4.0517,4.0278,4.0003,3.9693,0.0,0.0,0.0,0.0,0.0,0.0,0.0,0.0,0.0,0.0,0.0,0.0,0.0,0.0,0.0,0.0,0.0,0.0,0.0,0.0,0.0,0.0,0.0,0.0,0.0,0.0,0.0,0.0,0.0,0.0,0.0,0.0,0.0,0.0,3.1543,3.0839,2.9901,2.944,2.8809,2.7834,2.6691,2.5627,2.4754,2.3681,2.2422,2.1408,2.0229,1.9192,1.8299,1.674,1.5509,1.4611,1.3401,1.2052,1.0696,0.9623,0.8393,0.7001,0.5939,0.5016,0.4238,0.2402,0.1047,-0.0,-0.1475,-0.2178,-0.2142,-0.2547,-0.3217,-0.4011,-0.4149,-0.425,-0.4462,0.0,0.0,0.0,0.0,0.0,0.0,3.3879,3.485,3.5737,3.6415,3.6507,3.703,3.8354,3.8539,3.9062,4.0416,4.0539,4.0539,4.0539,4.1186,4.1617,4.1648,4.291,4.3925,4.4572,4.4572,4.4572,4.4572,4.445,4.425,4.4018,4.3892,4.3657,4.3389,4.3389,4.323,4.304,4.304,4.2444,4.1456,4.1024,4.0435,3.9859,0.0,0.0,0.0,0.0,0.0,0.0,0.0,0.0,0.0,0.0,0.0,0.0,0.0,0.0,0.0,0.0,0.0,0.0,0.0,0.0,0.0,0.0,0.0,0.0,0.0,0.0,0.0,0.0,0.0,0.0,0.0,0.0,0.0,3.2544,3.1684,3.0718,2.9917,2.9126,2.8224,2.7072,2.6213,2.5534,2.4663,2.3417,2.22,2.1437,2.021,1.8967,1.7738,1.6309,1.4984,1.3737,1.2508,1.0958,0.9402,0.8462,0.7166,0.5553,0.5556,0.4142,0.1668,0.1212,-0.0152,-0.1968,-0.2841,-0.3867,-0.4744,-0.4624,-0.454,-0.4625,-0.4908,-0.5282,-0.5485,0.0,0.0,0.0,0.0,0.0,0.0,3.3879,3.4729,3.5585,3.6384,3.6907,3.7554,3.8415,3.8939,3.9585,4.0447,4.0539,4.0539,4.0539,4.1186,4.2017,4.3002,4.3833,4.4387,4.4572,4.4572,4.4572,4.4572,4.5064,4.5156,4.4952,4.5202,4.5284,4.5041,4.4847,4.4766,4.4684,4.4519,4.3968,4.3183,4.2304,4.1767,4.143,0.0,0.0,0.0,0.0,0.0,0.0,0.0,0.0,0.0,0.0,0.0,0.0,0.0,0.0,0.0,0.0,0.0,0.0,0.0,0.0,0.0,0.0,0.0,0.0,0.0,0.0,0.0,0.0,0.0,0.0,0.0,3.4381,3.3709,3.2744,3.1826,3.084,2.9609,2.9297,2.865,2.7335,2.6574,2.5553,2.434,2.3194,2.1997,2.0769,1.9522,1.826,1.6993,1.5374,1.3929,1.2655,1.1294,0.9992,0.8572,0.7397,0.642,0.578,0.4534,0.3122,0.1399,-0.0308,-0.1688,-0.3069,-0.3937,-0.4646,-0.4747,-0.467,-0.4889,-0.5399,-0.554,-0.574,-0.5899,0.0,0.0,0.0,0.0,0.0,0.0,3.3909,3.4912,3.583,3.6445,3.7092,3.7769,3.8446,3.9123,3.9801,4.0478,4.0539,4.0662,4.097,4.1894,4.2879,4.3956,4.4356,4.4572,4.4572,4.4849,4.5003,4.5003,4.568,4.594,4.5703,4.5859,4.591,4.5664,4.5387,4.5304,4.5304,4.5138,4.4846,4.4377,4.3744,4.2972,4.2117,4.1575,4.1348,4.1261,4.0354,4.0043,4.0015,3.9515,0.0,0.0,0.0,0.0,0.0,0.0,0.0,0.0,0.0,0.0,0.0,0.0,0.0,0.0,0.0,0.0,0.0,0.0,0.0,0.0,0.0,0.0,0.0,0.0,3.4929,3.427,3.3221,3.2314,3.1192,2.9916,2.9242,2.855,2.7507,2.6309,2.5185,2.3957,2.2817,2.148,2.0232,1.8798,1.7527,1.641,1.4578,1.3102,1.1974,1.0467,0.8997,0.7553,0.6677,0.5691,0.4744,0.3306,0.1728,0.0314,-0.1559,-0.2954,-0.4037,-0.4601,-0.5164,-0.5572,0.0,0.0,0.0,0.0,-0.6786,-0.6831,0.0,0.0,0.0,0.0,0.0,0.0,3.4091,3.5278,3.6289,3.6476,3.7153,3.7831,3.8446,3.9185,3.9862,4.0478,4.0539,4.0878,4.1648,4.2879,4.3864,4.4541,4.4572,4.4603,4.4695,4.528,4.5618,4.5711,4.6388,4.6616,4.6487,4.6336,4.6122,4.5958,4.568,4.5514,4.5514,4.5514,4.54,4.5173,4.509,4.4098,4.2597,4.2291,4.2208,4.2121,4.1261,4.0949,4.0781,4.0043,0.0,0.0,0.0,0.0,0.0,0.0,0.0,0.0,0.0,0.0,0.0,0.0,0.0,0.0,0.0,0.0,0.0,0.0,0.0,0.0,0.0,0.0,0.0,0.0,3.5375,3.4714,3.3979,3.2946,3.1811,3.0438,2.9282,2.8129,2.7236,2.5891,2.4521,2.3593,2.2245,2.0942,1.9674,1.8059,0.0,0.0,0.0,1.2346,1.138,0.9754,0.7969,0.635,0.6117,0.496,0.3035,0.174,0.0315,-0.1256,-0.2828,-0.4084,-0.5016,-0.5117,-0.5861,-0.6915,-0.6742,-0.6774,-0.7127,-0.7759,-0.8002,-0.7979,0.0,0.0,0.0,0.0,0.0,0.0,3.4698,3.552,3.6163,3.6414,3.7554,3.8354,3.8508,3.9585,4.0385,4.0509,4.0539,4.1063,4.2325,4.3125,4.3864,4.4541,4.4572,4.4818,4.5372,4.5526,4.5865,4.6419,4.7065,4.7404,4.7353,4.7742,4.7737,4.757,4.7232,4.7091,4.692,4.692,4.6621,4.6028,4.5858,4.5043,4.3884,4.3357,4.2986,4.2731,4.2121,4.1807,4.1807,4.1385,4.1245,4.1245,4.1024,4.0857,0.0,0.0,0.0,0.0,0.0,0.0,0.0,0.0,0.0,0.0,0.0,0.0,0.0,0.0,0.0,0.0,0.0,0.0,0.0,3.6837,3.5937,3.5266,3.4825,3.3705,3.2322,3.0547,2.9486,2.833,2.6793,2.5909,2.4952,2.3365,2.2293,2.1039,1.942,1.81,1.6467,1.4998,1.3157,1.1488,0.9828,0.8756,0.7245,0.5604,0.5378,0.0,0.1278,0.0638,-0.0951,-0.2987,-0.4243,-0.4868,-0.5019,-0.6105,-0.6995,-0.7684,-0.7493,-0.7654,-0.786,-0.7986,-0.8064,-0.7993,0.0,0.0,0.0,0.0,0.0,0.0,3.488,3.5548,3.61,3.6414,3.7677,3.8508,3.8508,3.9708,4.0539,4.0539,4.1155,4.1863,4.2571,4.3525,4.4233,4.4572,4.4572,4.488,4.5588,4.5926,4.6419,4.7096,4.7773,4.8112,4.8112,4.8201,4.8218,4.7964,4.7709,4.7452,4.7309,4.7309,4.713,4.68,4.6715,4.6248,4.5489,4.4461,4.391,4.3568,4.2956,4.264,4.2498,4.2096,4.1897,4.1897,4.1619,4.1596,4.1654,0.0,0.0,0.0,0.0,0.0,0.0,0.0,0.0,0.0,0.0,0.0,0.0,0.0,0.0,3.9522,3.9184,0.0,3.781,3.7455,3.6836,3.6067,3.5121,3.4179,3.2776,3.0766,2.9671,2.8342,2.6942,2.5806,2.4467,2.3027,2.19,2.0444,1.8664,1.7337,1.6024,1.4383,1.2733,1.1065,0.9392,0.8011,0.6666,0.5338,0.4784,0.3097,0.0322,-0.1122,-0.2542,-0.3772,-0.4711,-0.5179,-0.5802,-0.706,-0.7942,-0.8607,-0.8502,-0.8513,-0.8513,-0.8604,-0.8693,-0.8642,0.0,0.0,0.0,0.0,0.0,0.0,3.5063,3.5672,3.6163,3.6414,3.7677,3.8508,3.8508,3.9708,4.0539,4.0539,4.1801,4.2602,4.2674,4.3908,4.4648,4.4723,4.4648,4.5018,4.585,4.6326,4.7004,4.7804,4.8358,4.8604,4.8604,4.8438,4.8218,4.8049,4.7794,4.7538,4.7396,4.7309,4.7309,4.7309,4.7309,4.7193,4.6812,4.5687,4.4958,4.4496,4.3851,4.3449,4.3193,4.2615,4.2469,4.2469,4.2244,4.2337,4.251,4.2336,4.2442,0.0,0.0,0.0,0.0,0.0,0.0,0.0,0.0,4.1796,4.1793,4.1426,4.0858,4.035,4.0278,3.9519,3.8708,3.8158,3.7602,3.6777,3.5412,3.4416,3.3196,3.1229,2.9743,2.8532,2.7168,2.5577,2.4134,2.2682,2.1383,1.9742,1.8065,1.6575,1.5239,1.3721,1.2063,1.0398,0.9063,0.7387,0.6053,0.5216,0.4001,0.2311,-0.0,-0.2582,-0.3986,-0.4254,-0.5027,-0.5805,-0.6744,-0.7842,-0.8731,-0.9259,-0.9239,-0.9257,-0.9065,-0.9238,-0.9323,-0.9302,0.0,0.0,0.0,0.0,0.0,0.0,0.0,0.0,3.6289,3.6476,3.7677,3.8508,3.8508,3.9708,4.0539,4.0539,4.1801,4.2674,4.2819,4.413,4.498,4.5129,4.4949,4.5463,4.6764,4.6621,4.7219,4.8512,4.8573,4.8604,4.8604,4.8604,4.8469,4.8301,4.8049,4.7794,4.7538,4.7396,4.7309,4.7309,4.7309,4.7309,4.7193,4.7043,4.6367,4.5314,4.4496,4.4206,4.4091,4.3891,4.3776,4.3776,4.3776,4.3632,4.3401,4.3226,4.3019,4.2923,4.3245,4.3798,4.4056,4.3355,4.3365,4.3542,0.0,4.2983,4.27,4.2305,4.2041,4.1683,4.1091,4.041,3.9698,3.947,3.828,3.7036,3.6239,3.497,3.3667,3.1916,3.0227,2.879,2.7459,2.6018,2.454,2.271,2.1379,1.9796,1.7785,1.6092,1.4187,1.2407,1.0904,0.9402,0.7562,0.6724,0.5717,0.4546,0.2352,0.0835,-0.0,-0.2448,-0.3709,-0.4459,-0.5991,-0.7217,-0.8002,-0.8466,-0.8929,-0.9371,-0.9577,-0.9607,-0.9633,-0.9514,-0.9394,-0.9302,0.0,0.0,0.0,0.0,0.0,0.0,0.0,0.0,3.6289,3.6476,3.7677,3.8508,3.8508,3.9708,4.0539,4.0539,4.1873,4.2819,4.2891,4.4309,4.5129,4.5204,4.5129,4.5677,4.6857,4.6841,4.733,4.8604,4.8604,4.8604,4.8604,4.8604,4.8521,4.8301,4.8218,4.7964,4.7624,4.7538,4.7396,4.7309,4.7309,4.7309,4.7309,4.7309,4.7043,4.6456,4.5602,4.5108,0.0,4.4354,4.4065,4.3979,4.3979,4.4037,4.415,4.3884,4.3873,4.4054,4.4331,4.4733,4.4908,4.4284,4.4211,4.4281,4.4011,4.3815,4.3576,4.3423,4.2732,4.2186,4.1949,4.1176,4.0371,3.9935,3.8843,3.7709,3.6644,3.5181,3.3903,3.2602,3.0891,2.9263,2.7431,2.5779,2.4128,2.2299,2.096,1.9409,1.7475,1.5845,1.4084,1.2353,1.0602,0.8896,0.7056,0.6053,0.5216,0.421,0.1682,-0.0502,-0.2315,-0.3433,-0.4507,-0.5528,-0.6758,-0.7686,-0.8627,-0.8934,-0.9402,-0.9703,-0.981,-0.9829,-0.9655,-0.953,-0.941,-0.9302,0.0,0.0,0.0,0.0,0.0,0.0,0.0,0.0,0.0,0.0,3.7677,3.8662,3.9031,3.9955,4.0608,4.0608,4.2085,4.2931,4.3003,4.4455,4.5309,4.5352,4.5278,4.5828,4.7045,4.6998,4.749,4.8718,4.8635,4.8604,4.8604,4.8604,4.8521,4.8355,4.8301,4.8133,4.7794,4.7624,4.7538,4.7396,4.7309,4.7309,4.7309,4.7309,4.7309,4.7249,4.6483,4.5959,4.5551,4.4996,4.4676,4.4501,4.4501,4.4733,4.4931,4.4633,4.4818,4.51,4.5176,4.5496,4.5641,4.5212,4.5169,4.513,4.4879,4.4755,4.4583,4.4347,4.3647,4.3004,4.286,4.2104,4.1229,4.0423,3.947,3.8259,3.7052,3.5616,3.4256,3.3034,3.139,2.9721,2.7687,2.5841,2.4174,2.2338,2.0807,1.9089,1.7153,1.5617,1.3816,1.192,1.0116,0.839,0.6553,0.5717,0.4712,0.3197,0.1009,-0.134,-0.3989,-0.4422,-0.5297,-0.6431,-0.7213,-0.8154,-0.8778,-0.9246,-0.9708,-1.0019,-1.0019,-0.9878,-0.9661,-0.9568,-0.9438,-0.9302,0.0,0.0,0.0,0.0,0.0,0.0,0.0,0.0,0.0,0.0,3.7677,3.9,4.0324,4.0646,4.0783,4.0783,4.2194,4.3185,4.3396,4.4714,4.5604,4.575,4.5573,4.6159,4.7401,4.7123,4.7601,4.8996,4.8718,4.8604,4.8604,4.8604,4.8604,4.8604,4.8385,4.8301,4.8218,4.7794,4.7624,4.7538,4.7396,4.7309,4.7309,4.7309,4.7309,4.7309,4.6989,4.6726,4.655,4.6255,4.5987,4.5837,4.5837,4.5837,4.5776,4.5566,4.5567,4.5723,4.579,4.6106,4.6275,4.6072,4.6218,4.6352,4.5972,4.5856,4.5658,4.5116,4.4742,4.4371,4.3825,4.3018,4.1999,4.1063,3.9931,3.8586,3.7089,3.6093,3.4844,3.3097,3.1601,3.0136,2.8278,2.6406,2.4702,2.2837,2.0925,1.9095,1.7009,1.4944,1.3081,1.108,0.945,0.7893,0.6053,0.572,0.387,0.1009,0.0336,-0.1346,-0.3698,-0.509,-0.5934,-0.6431,-0.7686,-0.8471,-0.8778,-0.9246,-0.9708,-1.0019,-1.0019,-0.9878,-0.9671,-0.9666,-0.9508,-0.9302,0.0,0.0,0.0,0.0,0.0,0.0,0.0,0.0,0.0,0.0,0.0,0.0,0.0,0.0,0.0,0.0,4.2403,4.3325,4.3396,4.4858,4.575,4.5823,4.575,4.6307,4.7478,4.7387,4.7839,4.8996,4.8914,4.88,4.8604,4.8604,4.8604,4.8604,4.8521,4.8438,4.8301,4.8133,4.788,4.7624,4.7538,4.7396,4.7309,4.7309,4.7309,4.7309,0.0,4.7019,4.6756,4.658,4.6314,4.6046,4.5956,4.6156,4.65,4.6534,4.6728,4.6882,4.6841,4.6846,4.7094,4.7405,4.6946,4.6591,4.7001,4.6679,4.6146,4.6063,4.55,4.4768,4.4308,4.3241,4.202,4.1084,3.9951,3.8701,3.7307,3.6113,3.4945,3.3417,3.1737,2.9983,2.7786,2.6261,2.4726,2.2848,2.0935,1.8994,1.7197,1.5009,1.3133,1.1202,0.9319,0.7391,0.5714,0.4878,0.3029,0.0336,-0.185,-0.334,-0.4274,-0.5706,-0.6418,-0.6744,-0.7998,-0.8622,-0.8778,-0.9558,-0.9864,-1.0019,-1.0019,-0.9878,-0.9671,-0.9671,-0.9514,-0.9302,0.0,0.0,0.0,0.0,0.0,0.0,0.0,0.0,0.0,0.0,0.0,0.0,0.0,0.0,0.0,0.0,0.0,4.3466,4.3535,4.4962,4.5823,4.5823,4.5823,4.6381,4.7586,4.754,4.8044,4.921,4.9078,4.8914,4.8718,4.8635,4.8604,4.8604,4.8604,4.8521,4.8355,4.8301,4.8133,4.7794,4.7624,4.7538,4.7396,4.7309,4.7309,0.0,4.7309,4.7222,4.7019,4.6668,4.6579,4.6486,4.6305,4.665,4.7195,4.7329,4.7527,4.7758,4.7841,4.7829,4.7861,4.8365,4.7947,4.7534,4.7834,4.7351,4.6857,4.6806,4.6039,4.5158,4.4561,4.3509,4.2214,4.1105,4.0091,3.8932,3.7509,3.6307,3.5147,3.3756,3.1798,2.9802,2.7604,2.5921,2.4212,2.233,2.0414,1.8497,1.6753,1.452,1.2638,1.0746,0.8662,0.6888,0.5211,0.4374,0.2188,-0.1514,-0.3352,-0.4473,-0.4712,-0.5988,-0.6553,-0.6904,-0.831,-0.8778,-0.8934,-0.9713,-1.0019,-1.0019,-1.0019,-0.9878,-0.9671,-0.9671,-0.9366,-0.9013,0.0,0.0,0.0,0.0,0.0,0.0,0.0,0.0,0.0,0.0,0.0,0.0,0.0,0.0,0.0,0.0,0.0,0.0,4.3674,4.497,4.576,4.5823,4.5823,4.6455,4.7877,4.7617,4.82,4.9613,4.9241,4.8996,4.8996,4.8718,4.8604,4.8604,4.8604,4.8604,4.8604,4.8385,4.8301,4.8301,4.7794,4.7624,4.7538,4.7396,4.7309,4.7309,4.7309,4.7339,4.7252,4.6815,4.6902,4.7186,4.7003,4.7346,4.7862,4.7989,4.7995,4.8182,4.8798,4.8854,4.8708,4.9107,4.9146,4.8919,4.8359,4.7985,4.7622,4.7176,4.6434,4.5538,4.4631,4.3755,4.2678,4.1147,4.0332,3.9259,3.7564,3.6676,3.5399,3.3772,3.1452,2.9453,2.7604,2.5239,2.3181,2.1445,1.9535,1.7613,1.5866,1.3654,1.1779,0.9884,0.7815,0.605,0.471,0.404,0.1178,-0.404,-0.3995,-0.4441,-0.5199,-0.6101,-0.6662,-0.706,-0.831,-0.8778,-0.8934,-0.9713,-1.0019,-1.0019,-1.0019,-0.9878,-0.9671,-0.9671,-0.9218,-0.8729,0.0,0.0,0.0,0.0,0.0,0.0,0.0,0.0,0.0,0.0,0.0,0.0,0.0,0.0,0.0,0.0,0.0,0.0,4.3674,4.4527,4.5254,4.5792,4.5823,4.6455,4.7877,4.7801,4.8387,4.9613,4.9372,4.9128,4.8996,4.8718,4.8604,4.8604,4.8604,4.8604,4.8604,4.8521,4.8469,4.8301,4.8218,4.788,4.7624,4.7538,4.7482,4.7309,4.7309,4.7608,4.8027,4.7644,4.7759,4.8009,4.8195,4.8362,4.8528,4.8873,4.9094,4.9323,4.9331,4.9238,4.9348,4.9716,4.9447,4.9027,4.8893,4.83,4.7751,4.7654,4.6704,4.5657,4.5226,4.4001,4.2678,4.1147,4.0332,3.9259,3.7564,3.6676,3.5399,3.3772,3.1452,2.9286,2.7096,2.4885,2.2665,2.0414,1.9195,1.7613,1.5866,1.3654,1.1779,0.9884,0.7815,0.6218,0.5216,0.2355,-0.0673,-0.404,-0.3995,-0.4441,-0.5686,-0.6101,-0.6821,-0.7369,-0.831,-0.8778,-0.8934,-0.9713,-1.0019,-1.0019,-1.0019,-0.9878,-0.9671,-0.9366,-0.9065,-0.8584,0.0,0.0,0.0,0.0,0.0,0.0,0.0,0.0,0.0,0.0,0.0,0.0,0.0,0.0,0.0,0.0,0.0,0.0,0.0,4.4338,4.5033,4.5792,4.5823,4.6329,4.7403,4.7719,4.8338,4.93,4.9376,4.9372,4.9159,4.8883,4.8718,4.8604,4.8604,4.8604,4.8604,4.8604,4.8521,0.0,0.0,4.8133,4.788,4.7794,4.7624,4.7512,4.7782,4.8415,4.9134,4.8864,4.8735,4.8682,4.9135,4.9243,4.9165,4.9635,4.9868,5.0068,5.02,5.0283,5.0281,5.0353,5.0188,4.9715,4.9274,4.8732,4.8205,4.8128,4.7227,4.6227,4.5727,4.4366,4.2818,4.1147,4.0332,3.9259,3.7564,3.6676,3.5399,3.3772,3.1286,2.9118,2.6927,2.4543,2.2147,2.0066,1.8672,1.7096,1.5161,1.3127,1.109,0.9194,0.7134,0.5208,0.3027,0.1009,-0.1346,-0.4208,-0.3974,-0.4744,-0.6169,-0.6228,-0.6788,-0.7525,-0.8466,-0.8778,-0.8934,-0.9713,-1.0019,-1.0019,-1.0019,-0.9719,-0.9366,-0.921,-0.877,-0.8145,0.0,0.0,0.0,0.0,0.0,0.0,0.0,0.0,0.0,0.0,0.0,0.0,0.0,0.0,0.0,0.0,0.0,0.0,0.0,0.0,4.5009,4.576,4.5823,4.6108,4.6803,4.753,4.8225,4.8889,4.9347,4.9533,4.9372,4.9078,4.8914,4.8635,4.8604,4.8604,4.8604,4.8604,4.8604,4.8604,4.8355,4.8301,4.8301,0.0,4.794,4.7865,4.8618,4.9434,5.0179,5.0084,4.971,4.9421,4.9911,4.999,4.9814,5.0254,5.0414,5.0529,5.1213,5.1371,5.1355,5.0989,5.0906,5.0572,4.9469,4.9086,4.8953,4.8549,4.7855,4.7003,4.6201,4.4778,4.3097,4.1289,4.0332,3.9259,3.7564,3.6676,3.5399,3.3772,3.112,2.8783,2.6927,2.4384,2.1984,2.0066,1.8156,1.6225,1.4462,1.2265,1.0214,0.8117,0.6108,0.353,-0.0,-0.0168,-0.1681,-0.4535,-0.411,-0.4875,-0.6479,-0.6339,-0.6744,-0.7525,-0.831,-0.8778,-0.8934,-0.9553,-0.9864,-0.9864,-0.9848,-0.955,-0.9055,-0.889,-0.8312,-0.7421,0.0,0.0,0.0,0.0,0.0,0.0,0.0,0.0,0.0,0.0,3.9845,4.0324,0.0,0.0,0.0,0.0,0.0,0.0,0.0,0.0,0.0,4.5977,4.604,4.6253,4.6771,4.753,4.8225,4.8889,4.9347,4.9582,4.9533,4.9159,4.8996,4.8914,4.8718,4.8604,4.8604,4.8604,4.8604,4.8604,4.8521,4.8438,4.8301,4.8301,4.8468,0.0,4.9913,5.0215,5.0331,5.0777,5.0768,5.0484,5.025,5.0086,5.0106,5.0481,5.0832,5.1104,5.1537,5.179,5.1892,5.1458,5.1155,5.0683,4.967,4.9435,4.9165,4.8549,4.7956,4.7345,4.6445,4.4892,4.3236,4.1551,4.0459,3.9259,3.7564,3.6676,3.5399,3.3772,3.112,2.8783,2.6927,2.4384,2.1984,2.0066,1.8156,1.6225,1.4462,1.2265,0.9626,0.6087,0.4888,0.2861,-0.0,-0.1514,-0.3015,-0.4482,-0.4095,-0.4854,-0.6404,-0.6315,-0.6744,-0.7525,-0.7998,-0.8471,-0.8778,-0.9246,-0.9553,-0.9547,-0.9449,-0.9025,-0.86,-0.8067,-0.7521,-0.699,0.0,0.0,0.0,0.0,0.0,0.0,0.0,3.786,3.843,3.9959,4.0091,4.0574,4.1949,4.2109,4.2109,0.0,0.0,0.0,0.0,0.0,0.0,4.6159,4.6184,4.6199,4.6412,4.7415,4.8067,4.8383,0.0,4.9661,4.9613,4.9372,4.9241,4.8996,4.8914,4.8718,4.8604,4.8604,4.8604,4.8604,4.8604,4.8521,4.8499,4.8867,4.9549,0.0,5.0637,5.094,5.118,5.1389,5.1293,5.1105,5.0632,5.0485,5.0701,5.1274,5.1614,5.2046,5.2368,5.2452,5.2329,5.1706,5.1238,5.0683,5.001,4.9667,4.9456,4.9064,4.836,4.7629,4.6846,4.5324,4.3653,4.1693,4.0585,3.9391,3.7564,3.6676,3.5399,3.3772,3.112,2.8783,2.6927,2.4384,2.1984,2.0066,1.8156,1.6225,1.4462,1.1389,0.8411,0.5549,0.4542,0.2692,-0.0,-0.185,-0.3179,-0.4138,-0.3927,-0.4849,-0.6383,-0.6309,-0.6744,-0.7525,-0.7998,-0.8315,-0.8471,-0.8934,-0.909,-0.908,-0.8967,-0.8555,-0.815,-0.7603,-0.7068,-0.6555,0.0,0.0,0.0,0.0,0.0,0.0,0.0,3.7976,3.8547,4.0172,4.0333,4.082,4.2077,4.2238,4.2238,0.0,0.0,0.0,0.0,0.0,0.0,0.0,0.0,0.0,4.6152,0.0,0.0,4.7953,4.911,0.0,0.0,0.0,0.0,0.0,4.9078,4.8883,4.8718,4.8718,4.8635,0.0,0.0,4.8604,4.8696,0.0,0.0,0.0,0.0,5.1637,5.2002,5.1787,5.1695,5.1602,5.1105,5.1076,5.1267,5.1912,5.2355,5.2717,5.304,5.3001,5.268,5.2004,5.1458,5.0906,5.0235,4.9898,4.9693,4.943,4.8886,4.8041,4.7245,4.5866,4.409,4.1975,4.0878,3.9674,3.7699,3.6676,3.5399,3.3772,3.112,2.8783,2.6927,2.4384,2.1984,2.0066,1.7763,1.563,1.3663,1.0294,0.7369,0.5382,0.4542,0.2692,-0.0,-0.185,-0.3176,-0.3958,-0.3921,-0.4841,-0.636,-0.6302,-0.6744,-0.7525,-0.7842,-0.8159,-0.8159,-0.8466,-0.8622,-0.8613,-0.8482,-0.808,-0.7548,-0.7137,-0.6612,-0.5977,0.0,0.0,0.0,0.0,0.0,0.0,0.0,3.8351,3.8836,4.0318,4.0513,4.097,4.2393,4.2555,4.2555,0.0,0.0,0.0,0.0,0.0,0.0,0.0,0.0,0.0,0.0,0.0,0.0,4.8072,4.8681,0.0,0.0,0.0,0.0,0.0,0.0,4.9128,4.8996,4.8996,0.0,0.0,0.0,0.0,0.0,0.0,0.0,0.0,0.0,5.2094,5.2002,5.2002,5.2002,5.188,5.1602,5.1678,5.1757,5.224,5.2687,5.3026,5.3355,5.3319,5.2894,5.2329,5.1896,5.1458,5.0683,5.0357,5.0137,4.9551,4.8985,4.8401,4.7665,4.6001,4.4228,4.2678,4.115,3.9674,3.8024,3.6851,3.5399,3.3772,3.112,2.8783,2.6927,2.4384,2.1984,2.0066,1.6412,1.3493,1.1646,0.9459,0.7315,0.5379,0.4542,0.2692,-0.0,-0.185,-0.3163,-0.3911,-0.3907,-0.4821,-0.6285,-0.6278,-0.6744,-0.7525,-0.7525,-0.7842,-0.8159,-0.8315,-0.8315,-0.8297,-0.8103,-0.7565,-0.6785,-0.6628,-0.5981,-0.525,0.0,0.0,0.0,0.0,0.0,0.0,3.852,3.86,3.9177,4.0613,4.0808,4.1363,4.2766,4.2929,4.2805,4.2618,0.0,0.0,0.0,0.0,0.0,0.0,0.0,0.0,0.0,0.0,4.7521,4.8072,4.8771,0.0,0.0,0.0,0.0,0.0,0.0,4.9372,4.921,4.921,0.0,0.0,0.0,0.0,0.0,0.0,0.0,0.0,0.0,0.0,5.2427,5.2246,5.2155,5.2155,5.188,5.2148,5.2527,5.2605,5.3124,5.3803,5.3756,5.35,5.3213,5.268,5.2113,5.1568,5.0906,5.0313,4.9827,4.9714,4.8855,4.8029,4.7617,4.6136,4.4503,4.2818,4.1524,3.9978,3.8139,3.6795,3.5468,3.3756,3.112,2.8783,2.6927,2.4384,2.1465,1.8506,1.5624,1.321,1.1262,0.927,0.7307,0.5379,0.4542,0.2692,-0.0,-0.1672,-0.3142,-0.3905,-0.3876,-0.4626,-0.6275,-0.6275,-0.6744,-0.7525,-0.7525,-0.7681,-0.7842,-0.7842,-0.7652,-0.7281,-0.7157,-0.6773,-0.6269,-0.5869,-0.5392,-0.481,0.0,0.0,0.0,0.0,0.0,3.8655,3.8655,3.8766,3.9345,4.0787,4.0983,4.154,4.2949,4.3113,4.299,4.2743,4.2743,0.0,0.0,0.0,0.0,0.0,0.0,0.0,0.0,0.0,4.7517,4.8297,4.8732,4.9279,0.0,0.0,4.9852,4.9693,0.0,0.0,0.0,0.0,0.0,0.0,0.0,0.0,0.0,0.0,0.0,0.0,0.0,0.0,0.0,0.0,0.0,5.2487,5.2155,5.2519,5.3125,5.2995,5.3585,5.4272,5.4171,5.3919,5.35,5.3107,5.2465,5.1896,5.1348,5.046,4.9852,4.9785,4.8917,4.8084,4.7613,4.6445,4.4914,4.3097,4.1809,4.0224,3.8406,3.6809,3.5299,3.3724,3.1286,2.895,2.6927,2.3858,2.0598,1.7288,1.5053,1.3152,1.1262,0.9242,0.7282,0.5379,0.4542,0.2692,-0.0,-0.1665,-0.2964,-0.3905,-0.3858,-0.4604,-0.6118,-0.6275,-0.6744,-0.7369,-0.7525,-0.7525,-0.7525,-0.7369,-0.7162,-0.6773,-0.6535,-0.6155,-0.5635,-0.5125,-0.481,-0.4228,0.0,0.0,0.0,0.0,0.0,0.0,3.8788,3.8788,3.9345,4.0787,4.0983,4.154,4.2949,4.3113,4.3113,4.3113,4.3113,0.0,0.0,0.0,0.0,0.0,0.0,0.0,0.0,0.0,4.7291,4.8707,4.8297,4.8879,5.0246,5.001,4.9931,4.9931,0.0,0.0,0.0,0.0,0.0,0.0,0.0,0.0,5.1412,0.0,0.0,0.0,0.0,0.0,0.0,0.0,0.0,0.0,0.0,5.2795,5.3312,5.3507,5.3849,5.4212,5.4696,5.4363,5.3815,5.35,5.3107,5.2573,5.1896,5.1128,5.0399,4.9961,4.9333,4.8556,4.777,4.6741,4.546,4.393,4.2094,4.0372,3.869,3.7102,3.5299,3.3724,3.1452,2.9286,2.6927,2.2643,1.9204,1.7288,1.5053,1.3152,1.1262,0.9173,0.7223,0.5379,0.4542,0.2692,-0.0,-0.1665,-0.2964,-0.3905,-0.3858,-0.4447,-0.5651,-0.6118,-0.6587,-0.6904,-0.7369,-0.7525,-0.7525,-0.706,-0.6855,-0.6769,-0.6236,-0.5559,-0.4747,-0.4687,-0.4228,-0.35,0.0,0.0,0.0,0.0,0.0,0.0,0.0,3.9468,4.0238,4.1139,4.17,4.236,4.3317,4.3416,4.3416,4.3416,4.3235,0.0,0.0,0.0,0.0,0.0,0.0,0.0,0.0,4.6892,4.7432,4.8707,4.8561,4.9149,5.0512,5.0246,5.0168,5.0168,5.001,4.9852,0.0,0.0,0.0,0.0,0.0,5.1057,5.1696,0.0,0.0,0.0,0.0,0.0,0.0,0.0,0.0,0.0,0.0,0.0,0.0,5.3561,5.4001,5.454,5.4899,5.4773,5.4363,5.3605,5.3395,5.2972,5.2004,5.1238,5.0624,5.005,4.9333,4.8556,4.7898,4.6849,4.5731,4.393,4.2386,4.0738,3.9125,3.7176,3.5467,3.4018,3.0274,2.6927,2.4714,2.1618,1.9141,1.7107,1.4987,1.3114,1.1141,0.9137,0.7223,0.5379,0.4542,0.2692,-0.0,-0.1652,-0.3103,-0.3903,-0.3827,-0.4412,-0.5651,-0.5808,-0.6118,-0.6431,-0.6587,-0.6744,-0.674,-0.6534,-0.6155,-0.5929,-0.5406,-0.4895,-0.425,-0.3942,-0.3646,-0.3209,0.0,0.0,0.0,0.0,0.0,0.0,0.0,3.9939,4.0724,4.151,4.2242,4.2974,4.3739,4.3805,4.3747,4.3687,4.374,0.0,0.0,0.0,0.0,0.0,0.0,0.0,4.7167,4.7098,4.7572,4.878,4.8707,4.9373,5.0743,5.0512,5.0434,5.0434,5.0246,5.0089,0.0,0.0,0.0,0.0,5.0974,5.1556,5.1894,0.0,0.0,0.0,0.0,0.0,0.0,0.0,0.0,0.0,0.0,0.0,0.0,0.0,5.4051,5.4334,5.4879,5.4999,5.4803,5.4156,5.3739,5.329,5.2437,5.1677,5.0878,5.0128,4.9534,4.8876,4.8006,4.7123,4.6001,4.4206,4.2538,4.0802,3.9174,3.7264,3.5172,3.3186,2.9272,2.5908,2.3858,2.1445,1.9113,1.7025,1.4958,1.3094,1.1086,0.9118,0.7223,0.5379,0.4542,0.2687,-0.0,-0.1806,-0.3085,-0.3878,-0.3805,-0.4395,-0.5492,-0.5651,-0.5808,-0.6118,-0.6275,-0.6275,0.0,-0.6042,-0.5663,-0.5292,-0.4777,-0.4128,-0.3644,-0.3354,-0.3063,-0.2771,0.0,0.0,0.0,0.0,0.0,0.0,0.0,4.0188,4.1009,4.182,4.259,4.3327,4.403,4.4097,4.4039,4.3956,0.0,0.0,0.0,0.0,0.0,0.0,0.0,0.0,4.7235,4.73,4.7846,4.903,4.8917,4.9512,5.0896,5.0743,5.0589,5.0589,5.0589,5.0512,5.0356,5.0089,4.9931,5.0058,5.1385,5.1954,0.0,0.0,0.0,0.0,0.0,0.0,0.0,0.0,0.0,0.0,0.0,0.0,0.0,0.0,0.0,0.0,0.0,5.4879,5.5119,5.4875,5.4156,5.35,5.3184,5.2221,0.0,5.0235,4.9914,4.9533,4.8207,4.7402,4.6382,4.4595,4.2656,4.0843,3.8806,3.6983,3.4559,3.1241,2.8446,2.6078,2.4201,2.1435,1.9095,1.7,1.4936,1.3075,1.1069,0.9114,0.7223,0.5379,0.4539,0.2676,-0.0,-0.1801,-0.2912,-0.3835,-0.379,-0.4238,-0.5022,-0.5492,-0.5651,-0.5651,-0.6118,-0.6115,-0.6105,-0.5723,-0.5196,-0.4834,-0.4325,-0.3682,-0.2917,-0.3063,-0.2625,-0.2187,0.0,0.0,0.0,0.0,0.0,0.0,0.0,0.0,0.0,0.0,4.3026,4.3896,4.4097,4.4097,4.4097,0.0,0.0,0.0,0.0,0.0,0.0,0.0,0.0,0.0,4.7571,4.7961,4.8544,4.9245,4.9726,5.0399,5.1124,5.0896,5.082,5.082,5.0666,5.0589,5.0512,5.0434,5.0434,5.0498,5.1359,5.2029,0.0,0.0,0.0,0.0,5.4645,5.4645,0.0,0.0,0.0,0.0,0.0,0.0,0.0,0.0,5.4033,5.4231,5.4022,0.0,5.475,5.5059,5.4641,5.3993,0.0,5.2652,5.1787,5.0906,5.0613,5.0112,4.8528,4.7893,4.7051,4.5051,4.3097,4.1272,3.9711,3.6605,3.3597,3.1105,2.8446,2.6078,2.4201,2.1292,1.8894,1.6812,1.4939,1.2927,1.0948,0.9077,0.7223,0.5379,0.4505,0.2654,-0.0,-0.1636,-0.2751,-0.3356,-0.3632,-0.4081,-0.4554,-0.5022,-0.5179,-0.5179,-0.5335,-0.515,-0.4794,-0.4736,-0.4379,-0.3878,-0.3533,-0.3216,-0.3063,-0.2627,-0.1606,-0.0583,0.0,0.0,0.0,0.0,0.0,0.0,0.0,0.0,0.0,0.0,0.0,0.0,0.0,0.0,0.0,0.0,0.0,0.0,0.0,0.0,0.0,0.0,0.0,4.777,4.7704,4.8362,4.8879,4.9458,5.0066,5.0709,5.135,5.1124,5.1048,5.1048,5.082,5.0743,5.0743,5.0666,5.0589,5.0653,5.1357,0.0,0.0,0.0,0.0,0.0,5.4813,5.4813,0.0,5.4813,5.4697,5.4613,0.0,0.0,0.0,0.0,5.404,5.4121,5.4075,5.4512,5.5068,5.4939,5.4839,5.4539,5.3815,5.2972,5.2113,5.1128,5.0628,5.0036,4.8697,4.8078,4.7029,4.5278,4.3353,4.1048,3.831,3.5556,3.3018,3.1091,2.8446,2.6029,2.404,2.1361,1.8785,1.6631,1.4843,1.2881,1.0742,0.9063,0.7223,0.5379,0.4493,0.2806,0.0492,-0.1462,-0.2568,-0.2854,-0.3308,-0.3768,-0.4397,-0.4552,-0.4709,-0.4709,-0.468,-0.4497,-0.4004,-0.3933,-0.3739,-0.3415,-0.3225,-0.2771,-0.2188,-0.146,-0.073,0.0146,0.0,0.0,0.0,0.0,0.0,0.0,0.0,0.0,0.0,0.0,0.0,0.0,0.0,0.0,0.0,0.0,0.0,0.0,0.0,0.0,0.0,0.0,4.8066,4.7935,4.777,4.8595,4.9217,4.967,5.0308,5.0953,5.1573,5.135,5.1275,5.1275,5.1048,5.0972,5.0896,5.0743,5.0666,5.0698,5.1307,0.0,0.0,0.0,0.0,0.0,0.0,0.0,0.0,5.4896,5.4896,5.4813,5.4813,0.0,0.0,0.0,0.0,0.0,5.4272,5.4913,5.5374,5.4916,5.4909,5.4857,5.42,5.3366,5.2408,5.121,5.0558,4.9876,4.9013,4.7956,4.6824,4.5615,4.3353,4.037,3.6696,3.4535,3.2778,3.1002,2.8379,2.593,2.3856,2.1238,1.8676,1.6492,1.4601,1.2856,1.0742,0.9063,0.7216,0.5363,0.4482,0.3119,0.1136,-0.1125,-0.2385,-0.2514,-0.2983,-0.3454,-0.4241,-0.4231,-0.4229,-0.4227,-0.4328,-0.3993,-0.3674,-0.36,-0.3417,-0.2961,-0.2783,-0.1896,-0.0876,-0.0146,0.0292,0.0581,0.0,0.0,0.0,0.0,0.0,0.0,0.0,0.0,0.0,0.0,0.0,0.0,0.0,0.0,0.0,0.0,0.0,0.0,0.0,0.0,0.0,4.842,4.8227,4.8098,4.7935,4.9258,4.9951,4.9842,5.1191,5.1842,5.1794,5.1721,5.1647,5.1424,5.1275,5.1199,5.1199,5.1124,5.1124,5.1124,5.1221,0.0,0.0,0.0,0.0,0.0,0.0,0.0,0.0,5.5328,5.5196,5.5031,5.5031,0.0,0.0,0.0,0.0,0.0,5.4229,5.4511,5.5031,5.5438,5.494,5.4361,5.4522,5.3919,5.3078,5.1896,5.1376,5.0721,4.9404,4.8585,4.7475,4.6043,4.2516,3.9275,3.6957,3.4831,3.2841,3.1166,2.8234,2.5719,2.3833,2.095,1.8375,1.6475,1.4492,1.258,1.0737,0.9063,0.719,0.5303,0.4427,0.3082,0.1283,-0.064,-0.1749,-0.2514,-0.2983,-0.3139,-0.3295,-0.3729,-0.3865,-0.3863,-0.3816,-0.3623,-0.3289,-0.3276,-0.2956,-0.2342,-0.1022,-0.0292,-0.0146,0.073,0.1449,0.2003,0.0,0.0,0.0,0.0,0.0,0.0,0.0,0.0,0.0,0.0,0.0,0.0,0.0,0.0,0.0,0.0,0.0,0.0,0.0,0.0,4.8832,4.8707,4.858,4.8356,4.8098,4.9559,5.0255,5.005,5.1465,5.2013,5.1941,5.1868,5.1794,5.1647,5.1573,5.154,5.154,5.154,5.154,5.154,0.0,0.0,0.0,0.0,0.0,0.0,0.0,0.0,0.0,0.0,5.5685,5.5442,5.5442,0.0,0.0,0.0,0.0,0.0,5.4327,5.4324,5.4568,5.5034,5.5097,5.4933,5.5029,5.4436,5.3576,5.2408,5.1654,5.0803,4.9955,4.8829,4.7238,4.4755,4.1693,3.8983,3.7015,3.4624,3.2537,3.0821,2.7921,2.5397,2.343,2.0734,1.8256,1.6328,1.4419,1.2554,1.0737,0.9063,0.7187,0.5289,0.4415,0.3074,0.128,-0.0477,-0.1738,-0.2514,-0.2671,-0.2817,-0.311,-0.3247,-0.3381,-0.3511,-0.3466,-0.3138,-0.2675,-0.2361,-0.1761,-0.1022,-0.0292,0.0438,0.1312,0.1882,0.2281,0.2518,0.0,0.0,0.0,0.0,0.0,0.0,0.0,0.0,0.0,0.0,0.0,0.0,0.0,0.0,0.0,0.0,0.0,0.0,0.0,4.8173,4.8956,4.8832,4.8832,4.8707,4.8292,4.9559,5.0259,5.0255,5.1409,5.1993,5.2191,5.1941,5.1868,5.1868,5.1868,5.1794,5.1794,5.1794,5.1794,5.1794,0.0,0.0,0.0,0.0,0.0,0.0,0.0,0.0,0.0,0.0,0.0,0.0,0.0,0.0,0.0,5.5278,5.5113,5.4864,5.4665,5.4327,5.4261,5.4725,5.516,5.5398,5.5189,5.4726,5.4097,5.2837,5.1759,5.0929,5.0498,4.8953,4.6698,4.3774,4.1389,3.9215,3.7185,3.4877,3.2576,3.0809,2.7932,2.525,2.3248,2.056,1.8165,1.6205,1.4375,1.2554,1.0737,0.904,0.7157,0.5434,0.4399,0.3061,0.1274,-0.0158,-0.1571,-0.2514,-0.2507,-0.2648,-0.2932,-0.2915,-0.3045,-0.3014,-0.2828,-0.2368,-0.1775,-0.1172,-0.0438,0.0292,0.0438,0.1311,0.2465,0.2852,0.2938,0.2886,0.0,0.0,0.0,0.0,0.0,0.0,0.0,0.0,0.0,0.0,0.0,0.0,0.0,0.0,0.0,0.0,0.0,0.0,0.0,4.8173,4.9018,4.9018,4.9018,4.8798,4.8483,4.9254,4.9892,5.0426,5.1156,5.1818,5.2373,5.2158,5.2119,5.2086,5.1868,5.1794,5.1794,5.1794,5.1794,5.1794,5.1794,0.0,0.0,0.0,0.0,0.0,0.0,0.0,0.0,0.0,0.0,0.0,0.0,0.0,5.6006,5.5766,5.5604,5.5328,5.5113,5.4749,5.4486,5.4956,5.4878,5.4788,5.4855,5.48,5.4304,5.2837,5.1839,5.1126,5.088,4.8939,4.6665,4.4436,4.2214,3.9962,3.7696,3.5477,3.3254,3.0947,2.8255,2.5686,2.3237,2.0742,1.8328,1.6188,1.4375,1.2554,1.0737,0.8976,0.7237,0.5372,0.4186,0.2865,0.1258,0.0314,-0.0942,-0.2514,-0.2485,-0.2472,-0.2467,-0.241,-0.2383,-0.238,-0.1616,-0.0877,-0.0146,-0.0146,0.0438,0.1168,0.1896,0.2461,0.2856,0.3199,0.3302,0.3291,0.0,0.0,0.0,0.0,0.0,0.0,0.0,0.0,0.0,0.0,0.0,4.4995,4.4995,0.0,0.0,0.0,0.0,0.0,0.0,4.8293,4.9046,4.8984,4.9018,4.8923,4.8798,4.9413,5.0022,5.056,5.1625,5.2287,5.2516,5.2373,5.2302,5.2302,5.223,5.2158,5.2158,5.2158,5.2158,5.2158,5.2158,5.2158,0.0,0.0,0.0,0.0,0.0,0.0,0.0,0.0,5.4919,5.527,5.5534,5.5804,5.6086,5.6006,5.5846,5.5604,5.536,5.5113,5.4813,5.4645,5.5128,5.5501,5.5466,5.5364,5.4947,5.389,5.2701,5.1433,5.0115,4.8507,4.687,4.5142,4.2635,4.0085,3.8059,3.5546,3.3076,3.0593,2.8089,2.5723,2.3316,2.08,1.8482,1.6525,1.4541,1.2516,1.0793,0.8935,0.7207,0.5629,0.4163,0.3021,0.2043,0.1256,0.0156,-0.0932,-0.1546,-0.1683,-0.1809,-0.1791,-0.148,-0.0882,-0.0585,-0.0,0.073,0.1314,0.1752,0.2478,0.2891,0.2986,0.3203,0.3448,0.3552,0.3659,0.0,0.0,0.0,0.0,0.0,0.0,0.0,0.0,0.0,0.0,0.0,0.0,0.0,4.5103,0.0,0.0,0.0,0.0,4.7043,4.8473,4.9229,4.9046,4.9046,4.9046,4.9018,4.9367,4.9981,5.0793,5.2063,5.2694,5.2694,5.2587,5.2587,5.2587,5.2587,5.2587,5.2587,5.2587,5.2587,5.2587,5.2587,5.2587,0.0,0.0,0.0,0.0,0.0,0.0,0.0,0.0,5.4419,5.4764,5.5226,5.5644,5.5949,5.6179,5.6086,5.5927,5.5653,5.5442,5.5113,5.4832,5.5271,5.5821,5.5721,5.57,5.5451,5.4509,5.3058,5.1543,4.9782,4.8484,4.7209,4.5526,4.3032,4.0657,3.835,3.5867,3.3331,3.0716,2.8232,2.5872,2.3656,2.1233,1.8808,1.6854,1.4825,1.2611,1.0721,0.9015,0.7459,0.5909,0.4614,0.3482,0.2514,0.1878,0.1397,0.0767,-0.0153,-0.0453,-0.0149,-0.0444,-0.0147,0.0438,0.0584,0.1168,0.1898,0.2335,0.2766,0.3184,0.3414,0.3492,0.3433,0.3827,0.3934,0.4037,0.0,0.0,0.0,0.0,0.0,0.0,0.0,0.0,4.5423,4.5423,4.5423,0.0,0.0,0.0,0.0,0.0,4.6418,0.0,4.7216,4.8651,4.9411,4.9229,4.9229,4.9107,4.8984,4.9018,4.9666,5.0991,5.2268,5.2903,5.2903,5.2903,5.2903,5.2903,5.2903,5.2903,5.2903,5.2903,5.2903,5.2903,5.2903,5.2903,5.2903,0.0,0.0,0.0,0.0,0.0,0.0,0.0,5.3545,5.3665,5.5123,5.562,5.5676,5.6249,5.6369,5.6402,5.6165,5.5733,5.5409,5.5409,5.5293,5.5216,5.5732,5.581,5.559,5.4509,5.2944,5.1359,4.9928,4.9059,4.7838,4.5727,4.3747,4.163,3.8932,3.646,3.4087,3.1638,2.9153,2.6648,2.3976,2.1889,1.946,1.6854,1.5046,1.2996,1.0716,0.9201,0.7497,0.5903,0.5209,0.4238,0.2514,0.2484,0.2454,0.2423,0.1644,0.1636,0.2232,0.1615,0.1168,0.1314,0.2043,0.2627,0.3063,0.3063,0.3184,0.3422,0.3748,0.3847,0.3839,0.4195,0.4308,0.4308,0.0,0.0,0.0,0.0,0.0,0.0,0.0,0.0,4.5423,4.5423,4.5423,0.0,0.0,0.0,0.0,0.0,0.0,0.0,4.742,4.8826,4.959,4.9411,4.9411,4.929,4.9168,4.9554,5.0236,5.1153,5.2438,5.311,5.311,5.2972,5.2903,5.2903,5.2903,5.2903,5.2903,5.2903,5.2903,5.2903,5.2903,5.2903,5.2903,0.0,0.0,0.0,0.0,0.0,0.0,0.0,0.0,0.0,5.4328,5.5088,5.5804,5.6037,5.6239,5.6402,5.6323,5.6006,5.5604,5.5409,5.5628,5.5911,5.5967,5.5845,5.5341,5.395,5.2972,5.1928,5.0697,4.9456,4.8224,4.6931,4.4573,4.2095,3.9654,3.7326,3.4672,3.1638,2.9634,2.7435,2.4614,2.2372,2.0038,1.7629,1.5464,1.3394,1.1267,0.9596,0.826,0.7095,0.5658,0.4688,0.4183,0.3552,0.3206,0.299,0.283,0.2664,0.2349,0.2048,0.2189,0.248,0.2771,0.3063,0.3352,0.3612,0.3831,0.4026,0.4409,0.4504,0.4462,0.458,0.444,0.4308,0.0,0.0,0.0,0.0,0.0,0.0,4.5423,4.5423,4.5423,4.5423,4.5423,4.5423,0.0,0.0,0.0,4.5423,4.6562,4.7334,4.7589,4.8667,4.9399,4.959,4.959,4.9471,4.935,4.9977,5.0663,5.141,5.2335,5.3045,5.3348,5.3212,5.3144,5.3144,5.3144,5.3144,5.3144,5.3144,5.3144,5.3144,5.3144,5.3144,5.3144,0.0,0.0,0.0,0.0,0.0,0.0,0.0,0.0,0.0,5.3941,5.4573,5.5229,5.5829,5.607,5.6272,5.6536,5.629,5.6006,5.5766,5.5766,5.5898,5.6024,5.5876,5.5432,5.4083,5.3095,5.2268,5.108,4.9828,4.8661,4.7278,4.514,4.2914,4.0371,3.8059,3.5551,3.2707,3.0562,2.8232,2.5568,2.3241,2.0879,1.8343,1.6267,1.4176,1.2095,1.0459,0.8992,0.7838,0.6555,0.5742,0.5086,0.4428,0.3922,0.3567,0.3549,0.3235,0.2773,0.2773,0.2919,0.3209,0.3482,0.376,0.39,0.4398,0.46,0.4803,0.5049,0.5011,0.4977,0.4839,0.4708,0.444,0.0,0.0,4.5632,4.5632,0.0,4.5423,4.5423,4.5423,4.5423,4.5423,4.5423,4.5423,0.0,0.0,0.0,4.5423,4.6148,4.6906,4.7665,4.8424,4.9091,4.9674,4.9708,4.9649,4.953,5.0154,5.0905,5.1725,5.2123,5.2706,5.3518,5.3518,5.3518,5.3518,5.3518,5.3518,5.3518,5.3518,5.3518,5.3518,5.3518,5.3518,5.3518,5.3518,0.0,0.0,0.0,0.0,0.0,0.0,0.0,0.0,5.3707,5.3975,5.4276,5.5615,5.597,5.6054,5.672,5.6647,5.6402,5.6165,5.5799,5.5532,5.5841,5.5873,5.5629,5.4582,5.3442,5.2254,5.1058,5.0206,4.9071,4.7078,4.5582,4.3818,4.1368,3.8932,3.6608,3.4238,3.1759,2.9279,2.6792,2.4327,2.1795,1.9244,1.7141,1.5063,1.2848,1.1479,1.0008,0.8288,0.774,0.6922,0.5682,0.5259,0.4749,0.43,0.3811,0.3646,0.3646,0.3646,0.3644,0.3637,0.431,0.4567,0.469,0.5273,0.5491,0.5478,0.5406,0.5379,0.5379,0.4977,0.4839,0.4705,0.0,0.0,4.5787,4.5787,0.0,0.0,4.5581,4.5476,4.5423,4.5423,4.5423,4.5423,4.5423,4.5423,0.0,4.5423,4.6148,4.6906,4.7665,4.8424,4.9126,4.9884,4.9767,4.9708,4.9649,4.9701,5.0393,5.1725,5.2221,5.2938,5.3651,5.3551,5.3518,5.3518,5.3518,5.3518,5.3518,5.3518,5.3518,5.3518,5.3518,5.3518,5.3518,5.3518,5.3518,0.0,0.0,0.0,0.0,0.0,0.0,0.0,5.3551,5.3921,5.4287,5.4623,5.5386,5.6178,5.6121,5.6402,5.6603,5.6402,5.6351,5.6228,5.6352,5.6367,5.5958,5.4899,5.3831,5.2873,5.1737,5.0354,4.9239,4.8283,4.6287,4.4233,4.243,3.9941,3.7326,3.4971,3.2291,2.9702,2.7242,2.4817,2.24,1.9719,1.7912,1.5932,1.3627,1.236,1.0904,0.9418,0.8779,0.7781,0.6735,0.64,0.5907,0.5411,0.5399,0.5244,0.5244,0.4371,0.4204,0.4737,0.5292,0.5366,0.5263,0.5509,0.5594,0.5803,0.5785,0.5778,0.5778,0.5379,0.5111,0.4705,0.0,0.0,0.0,0.0,0.0,0.0,0.0,0.0,4.5476,4.5423,4.5423,4.5423,4.5423,4.5423,0.0,0.0,4.5803,4.6527,4.7631,4.8079,4.8803,4.9942,4.9918,4.986,4.986,4.9801,5.0463,5.1974,5.2198,5.2823,5.3849,5.3817,5.3751,5.3751,5.3751,5.3751,5.3751,5.3618,5.3618,5.3618,5.3518,5.3551,5.3618,5.3618,5.3685,5.3751,5.3751,0.0,0.0,0.0,0.0,0.0,0.0,0.0,5.399,5.4361,5.4861,5.5386,5.6017,5.6263,5.6326,5.6381,5.6449,5.6505,5.6614,5.6694,5.6529,5.5668,5.4582,5.3424,5.2152,5.0862,4.964,4.84,4.6567,4.4751,4.2856,4.0417,3.8034,3.5723,3.3197,3.0702,2.8291,2.5742,2.3376,2.0944,1.8999,1.6897,1.496,1.3501,1.2046,1.075,0.958,0.8716,0.8012,0.7374,0.6885,0.6696,0.6406,0.6406,0.6551,0.5389,0.5063,0.5428,0.5675,0.5876,0.5762,0.5862,0.6092,0.6183,0.6183,0.6183,0.6183,0.5781,0.5403,0.5027,0.0,0.0,0.0,0.0,0.0,0.0,0.0,0.0,0.0,4.5476,4.5423,4.5423,4.5423,4.5423,4.5423,0.0,0.0,0.0,4.7631,4.7976,4.8665,4.9942,5.0011,5.0011,5.0011,5.0011,5.0666,5.2046,5.2027,5.2695,5.3939,5.4011,5.398,5.398,5.398,5.398,5.398,5.3849,5.3783,5.3717,5.3618,5.3685,5.3783,5.3783,5.3849,5.398,5.398,5.398,5.398,5.3783,0.0,0.0,0.0,0.0,5.3686,5.4296,5.4396,5.4662,5.5938,5.6218,5.6179,5.6393,5.6432,5.651,5.6681,5.6893,5.6958,5.6392,5.533,5.4068,5.2594,5.16,5.0255,4.8454,4.6911,4.5205,4.319,4.1072,3.8763,3.6662,3.4181,3.1822,2.9595,2.6929,2.4507,2.2397,2.0233,1.8148,1.6447,1.4773,1.3159,1.1894,1.0625,0.9623,0.916,0.8338,0.7856,0.7856,0.7425,0.7425,0.7711,0.668,0.6199,0.6114,0.6314,0.6229,0.6145,0.6484,0.6589,0.6455,0.6455,0.6464,0.6476,0.5934,0.5719,0.5512,0.0,0.0,0.0,0.0,0.0,0.0,0.0,0.0,0.0,0.0,4.5476,4.5423,4.5423,4.5423,4.5423,4.5423,4.5423,4.6079,4.7631,0.0,0.0,5.0011,5.0011,5.0011,5.0011,5.0011,5.0424,5.1252,5.1847,5.2605,5.3501,5.3836,5.398,5.398,5.398,5.398,5.398,5.398,5.398,5.398,5.3915,5.3915,5.398,5.398,5.398,5.398,5.398,5.398,5.398,5.398,5.398,0.0,0.0,0.0,5.3949,5.3819,5.4228,5.4873,5.5404,5.6185,5.6778,5.6647,5.6389,5.6253,5.6478,5.6595,5.6505,5.6435,5.5786,5.4786,5.3232,5.2004,5.0791,4.9467,4.7542,4.589,4.4583,4.2015,3.9729,3.8227,3.5067,3.2429,3.0841,2.7906,2.5387,2.3315,2.1349,1.9285,1.7152,1.5763,1.4404,1.2927,1.1997,1.104,1.0342,0.9457,0.8868,0.8584,0.815,0.8005,0.8,0.7768,0.7672,0.7566,0.7465,0.7229,0.687,0.6857,0.6719,0.6455,0.6455,0.65,0.6433,0.5751,0.5526,0.5454,0.0,0.0,0.0,0.0,0.0,0.0,0.0,0.0,0.0,0.0,0.0,4.5476,4.5423,4.5423,4.5423,4.5423,4.5423,4.6079,4.7631,4.9148,5.0011,5.0011,5.0011,5.0011,5.0011,5.0011,5.0355,5.1114,5.1839,5.2632,5.3425,5.4023,5.4239,5.4239,5.4239,5.4239,5.4239,5.4175,5.411,5.411,5.4045,5.4045,5.411,5.411,5.4175,5.4239,5.4239,5.4239,5.4239,5.4175,5.411,5.411,5.4045,0.0,0.0,0.0,5.4022,5.4364,5.5168,5.6063,5.6713,5.6811,5.668,5.6488,5.6678,5.6485,5.6399,5.6798,5.634,5.5364,5.4009,5.2701,5.1376,4.9939,4.8106,4.6384,4.4924,4.2503,4.0428,3.8958,3.6034,3.3581,3.2014,2.917,2.6634,2.4877,2.2522,2.0329,1.8587,1.6878,1.55,1.4318,1.3054,1.2107,1.1462,1.0593,1.0023,0.9735,0.9302,0.9157,0.9152,0.8687,0.8298,0.7826,0.7722,0.7481,0.7254,0.7121,0.6853,0.6723,0.6644,0.6553,0.6594,0.6091,0.5744,0.5527,0.0,0.0,0.0,0.0,0.0,0.0,0.0,0.0,0.0,0.0,0.0,4.5632,4.5476,0.0,0.0,0.0,4.5596,4.6355,4.7907,4.9252,5.0011,5.0011,5.0011,5.0011,5.0011,5.0011,5.0287,5.0838,5.177,5.2528,5.3115,5.408,5.4494,5.4494,5.4494,5.4494,5.4494,5.4367,5.4303,5.4239,5.4175,5.4175,5.4303,5.4303,5.4367,5.4494,5.4494,5.4494,5.4494,5.4303,5.4303,5.4239,5.4175,5.411,0.0,0.0,0.0,5.4228,5.5274,5.6044,5.6606,5.6972,5.6911,5.669,5.6613,5.6431,5.6263,5.6652,5.6401,5.5869,5.466,5.3431,5.2056,5.0517,4.8789,4.7036,4.5379,4.313,4.1226,3.967,3.6998,3.4827,3.3309,3.0501,2.8053,2.6373,2.3838,2.1618,2.0027,1.8094,1.6596,1.5687,1.4104,1.3182,1.261,1.1599,1.1031,1.0599,1.0311,1.0023,1.0017,0.9372,0.8858,0.8283,0.7976,0.7863,0.766,0.7282,0.7157,0.7031,0.6723,0.6639,0.6664,0.617,0.582,0.56,0.0,0.0,0.0,0.0,0.0,0.0,0.0,0.0,0.0,0.0,0.0,4.5736,4.5632,4.5581,4.5528,4.5423,4.6113,4.7182,4.8665,4.9528,5.0011,5.0011,5.0011,0.0,5.0011,5.0011,5.0011,5.008,5.1528,5.2252,5.2321,5.3804,5.4494,5.4494,5.4494,5.4494,5.4494,5.4494,5.4494,5.4494,5.4494,5.4494,5.4494,5.4494,5.4494,5.4494,5.4494,5.4494,5.4494,5.4494,5.4494,5.4494,5.4494,5.4431,5.4431,0.0,0.0,0.0,5.5791,5.6258,5.6606,5.7197,5.6987,5.6636,5.6198,5.6352,5.626,5.5611,5.5983,5.6092,5.5074,5.4036,5.2886,5.1512,4.9702,4.7977,4.6345,4.4374,4.25,4.0862,3.8465,3.6344,3.4846,3.2053,2.9518,2.7641,2.5324,2.3196,2.1088,1.948,1.8091,1.6613,1.5461,1.4608,1.3753,1.2316,1.1312,1.1031,1.0599,1.0455,1.0449,0.9888,0.9688,0.953,0.8883,0.8328,0.8066,0.7762,0.7397,0.7137,0.6823,0.677,0.6839,0.599,0.5754,0.5677,0.0,0.0,0.0,0.0,0.0,0.0,0.0,0.0,0.0,0.0,0.0,0.0,0.0,4.5736,4.5684,4.5528,4.665,4.7824,4.8938,4.9734,5.0149,5.0263,5.0263,5.0263,5.0263,5.0263,5.0263,5.0263,5.1789,5.2518,5.2552,5.4079,5.4807,5.4807,5.4557,5.4494,5.4494,5.4494,5.4494,5.4494,5.4494,5.4592,5.4717,5.4717,5.478,5.4807,5.4807,5.4807,5.4807,5.4807,5.4745,5.4717,5.4717,5.4592,5.4431,5.4239,5.4282,5.4527,5.5077,5.5653,5.6292,5.6713,5.6955,5.6987,5.6603,5.625,5.5977,5.5846,5.5669,5.5462,5.507,5.447,5.3547,5.2056,5.074,4.916,4.7442,4.5597,4.3879,4.1888,3.9801,3.7688,3.6093,3.323,3.0801,2.9147,2.6623,2.4344,2.2587,2.0859,1.9469,1.8142,1.6866,1.5461,1.3904,1.3039,1.2466,1.218,1.1462,1.1175,1.1168,1.0463,0.9983,0.9688,0.9325,0.8955,0.8549,0.8311,0.7912,0.7511,0.7196,0.711,0.686,0.6055,0.5801,0.568,0.0,4.6824,4.6731,4.659,0.0,4.635,4.6253,4.6239,4.6189,4.609,0.0,0.0,0.0,0.0,4.6012,4.6378,4.7573,4.8592,4.9465,5.0042,5.0285,5.0397,5.0397,5.0397,5.0397,5.0397,5.0537,5.0815,5.2103,5.2869,5.3147,5.44,5.4992,5.4992,5.4745,5.4683,5.4683,5.4683,5.4683,5.4683,5.4683,5.4745,5.4904,5.4904,5.493,5.4992,5.4992,5.4992,5.4992,5.4992,5.493,5.4904,5.4904,5.478,5.4592,5.4367,5.4239,5.4312,5.4735,5.5451,5.6096,5.6415,5.6902,5.7214,5.6757,5.629,5.5864,5.5827,5.5528,5.5184,5.494,5.4491,5.3714,5.2435,5.1372,5.0068,4.8262,4.6704,4.4988,4.3028,4.0941,3.8912,3.6951,3.4259,3.1933,3.0189,2.7657,2.5584,2.397,2.225,2.0641,1.8982,1.7439,1.6028,1.4759,1.3896,1.3325,1.3182,1.2323,1.1893,1.1749,1.1077,1.0469,1.0185,0.9812,0.9305,0.8815,0.8573,0.8163,0.7898,0.758,0.7187,0.6905,0.6098,0.5825,0.568,4.7043,4.6906,4.6778,4.6778,4.659,4.6398,4.6398,4.6301,4.6239,4.6189,0.0,0.0,0.0,0.0,0.0,4.7996,4.8831,4.9597,5.0363,5.0397,5.0397,5.0397,5.0397,5.0397,5.0397,5.0397,5.0815,5.1616,5.2347,5.3112,5.3938,5.4644,5.4992,5.4992,5.4992,5.4992,5.4992,5.4992,5.4992,5.4992,5.4992,5.4992,5.4992,5.4992,5.4992,5.4992,5.4992,5.4992,5.4992,5.4992,5.4992,5.4992,5.4992,5.4904,5.478,5.4592,5.4367,5.4346,0.0,0.0,0.0,5.6381,5.6868,5.7181,5.6834,5.6402,5.6006,5.5491,5.5377,5.5138,5.4465,5.4114,5.3615,5.2515,5.179,5.0685,4.8877,4.7482,4.5935,4.4003,4.1913,3.9704,3.7686,3.5166,3.2633,3.0663,2.8758,2.6978,2.5158,2.3665,2.1609,1.9122,1.758,1.6593,1.6178,1.4759,1.3904,1.3904,1.3182,1.2617,1.2194,1.1749,1.1319,1.09,1.0173,0.9598,0.897,0.8661,0.8282,0.8007,0.7675,0.7421,0.6845,0.6119,0.5825,0.568,4.7133,4.7043,4.687,4.6824,4.6731,4.6637,4.6447,4.635,4.6301,0.0,0.0,0.0,4.614,4.658,4.7473,4.8993,4.9234,4.9652,5.0495,5.053,5.062,5.0764,5.0764,5.0764,5.0764,5.0764,5.115,5.192,5.2691,5.3462,5.4233,5.5003,5.5389,5.5389,5.5389,5.5389,5.5329,5.5113,5.4992,5.4992,5.4992,5.5053,5.5139,5.5139,5.5234,5.5389,5.5389,5.5389,5.5389,5.5389,5.5234,5.5139,5.5053,5.4904,5.478,5.4717,5.4592,5.4436,5.4415,0.0,0.0,0.0,0.0,0.0,5.708,5.6834,5.6369,5.5733,5.5407,5.4868,5.4009,5.3951,5.3528,5.2151,5.1337,5.0304,4.879,4.7344,4.5744,4.3839,4.2131,4.022,3.8231,3.6003,3.3882,3.2095,2.9854,2.7797,2.6218,2.3515,2.1346,1.9808,1.8563,1.7439,1.6593,1.5895,1.5186,1.4332,1.3904,1.3333,1.2617,1.2187,1.1613,1.1044,1.0455,1.0126,0.9638,0.9242,0.8683,0.8112,0.7996,0.757,0.6845,0.6119,0.5825,0.568,4.7223,4.7133,4.7043,4.6906,4.686,4.6731,4.659,4.6542,4.6447,0.0,0.0,0.0,4.7151,4.7838,4.8592,4.9538,4.9816,5.0165,5.0694,5.0729,5.0819,5.0873,5.0873,5.0873,5.0873,5.1189,5.1716,5.2488,5.326,5.4033,5.4805,5.5297,5.5507,5.5507,5.5507,5.5507,5.5507,5.5329,5.5174,5.5174,5.5174,5.5234,5.5354,5.5354,5.5413,5.5507,5.5507,5.5507,5.5507,5.5507,5.5413,5.5294,5.5139,5.4992,5.4904,5.4842,5.4655,5.4431,5.4239,5.4658,5.5379,5.5894,0.0,0.0,5.7197,5.6987,5.6525,5.5974,5.5491,5.4998,5.4157,5.3865,5.3343,5.2021,5.1101,5.0109,4.8973,4.7645,4.6082,4.4336,4.2589,4.0676,3.8715,3.654,3.4512,3.2872,3.0692,2.8477,2.6486,2.406,2.2173,2.0792,1.9541,1.8422,1.7439,1.6603,1.5895,1.5186,1.4474,1.3904,1.3182,1.276,1.2043,1.1476,1.075,1.0311,1.0167,0.959,0.8874,0.815,0.815,0.7715,0.6845,0.6119,0.5825,0.568,0.0,4.7223,4.7178,4.7043,4.6916,4.6824,4.6778,4.6755,4.6731,0.0,4.7209,4.797,4.8556,4.9258,4.9714,4.982,5.0487,5.0873,5.0873,5.0873,5.0873,5.0873,5.0873,5.0943,5.1013,5.1681,5.2453,5.3296,5.3963,5.4735,5.5507,5.5507,5.5507,5.5507,5.5507,5.5507,5.5507,5.5507,5.5507,5.5507,5.5507,5.5507,5.5507,5.5507,5.5507,5.5507,5.5507,5.5507,5.5507,5.5507,5.5507,5.5448,5.5259,5.5139,5.4992,5.4842,5.4717,5.4494,5.4303,5.4754,5.5409,5.5826,5.6297,0.0,5.7137,5.6996,5.6603,5.6244,5.5733,5.5246,5.4581,5.3899,5.3113,5.2033,5.1075,5.0115,4.9119,4.8002,4.6684,4.5081,4.3136,4.1188,3.916,3.6961,3.4881,3.3126,3.1341,2.9003,2.6234,2.4752,2.327,2.1897,2.0376,1.9262,1.8573,1.7168,1.632,1.6178,1.5044,1.4332,1.3896,1.3182,1.2617,1.2194,1.1038,1.0599,1.0455,0.9735,0.8874,0.815,0.815,0.7715,0.6845,0.6119,0.5825,0.568,4.7443,4.7363,4.7232,4.7178,4.7133,4.7043,4.6824,4.7346,4.7677,4.7581,4.8155,4.8831,4.952,4.9662,4.996,5.0592,5.0803,5.0873,5.0873,5.0873,5.0873,5.0873,5.0873,5.1189,5.1786,5.1926,5.2699,5.4103,5.4244,5.4735,5.5507,5.5507,5.5507,5.5507,5.5507,5.5507,5.5507,5.5507,5.5507,5.5507,5.5507,5.5507,5.5507,5.5507,5.5507,5.5507,5.5507,5.5507,5.5507,5.5507,5.5507,5.5507,5.5448,5.5294,5.5139,5.4992,5.4904,5.4717,5.4529,5.4407,5.4586,5.5142,5.5724,0.0,5.6544,5.6962,5.6987,5.6447,5.5974,5.5409,5.4549,5.3985,5.329,5.2124,5.1263,5.0309,4.9123,4.7591,4.6089,4.49,4.3137,4.1268,3.94,3.7878,3.6114,3.4278,3.1212,2.8608,2.662,2.4873,2.3543,2.2722,2.1207,2.0098,1.9262,1.8142,1.7168,1.6178,1.5337,1.4617,1.3896,1.3182,1.2617,1.2194,1.1332,1.075,1.0455,1.0023,0.9157,0.815,0.815,0.7715,0.6845,0.6119,0.5825,0.568,4.7529,4.745,4.7363,4.7232,4.7223,4.7277,4.7543,4.7879,4.8176,4.8458,4.9068,4.971,5.0522,5.0541,5.0629,5.1052,5.1088,5.1088,5.1088,5.1088,5.1088,5.1088,5.1475,5.1863,5.2216,5.2992,5.3767,5.4543,5.4931,5.5318,5.5706,5.559,5.5625,5.5625,5.5625,5.5625,5.5625,5.5648,5.5953,5.627,5.5707,5.5812,5.6188,5.6188,5.6493,5.687,5.6751,5.6691,5.6596,5.6174,5.6069,5.5999,5.5613,5.5354,5.5199,5.5139,5.493,5.478,5.4655,5.4494,5.4475,5.5003,5.5621,0.0,0.0,5.6902,5.7139,5.668,5.6211,5.5653,5.4915,5.4242,5.3552,5.2487,5.1572,5.0632,4.9473,4.7847,4.6401,4.502,4.3492,4.181,4.0199,3.841,3.6237,3.365,3.1212,2.9134,2.7419,2.5831,2.4481,2.3406,2.2035,2.0804,1.982,1.8703,1.7731,1.6744,1.6037,1.5186,1.4474,1.3611,1.3039,1.2474,1.1613,1.1031,1.0455,1.0023,0.9157,0.815,0.815,0.7715,0.6845,0.6119,0.5825,0.568,4.7687,4.7572,4.7565,4.7579,4.7527,4.7689,4.8396,4.8637,4.8925,4.9564,5.0104,5.0606,5.128,5.1298,5.1298,5.1298,5.1298,5.1369,5.1511,5.1511,5.1582,5.1723,5.236,5.275,5.2981,5.4131,5.4839,5.498,5.5617,5.5901,5.5901,5.5822,5.5764,5.5764,5.5764,5.5764,5.5764,5.602,5.6502,5.7069,5.6317,5.6493,5.7176,5.7176,5.7683,5.8273,5.8094,5.7912,5.7745,5.7052,5.6842,5.6736,5.6139,5.5809,5.5714,5.5654,5.5506,5.5293,5.523,5.5104,5.5017,5.5309,5.5894,5.6474,0.0,0.0,0.0,5.6834,5.6402,5.5927,5.5196,5.4613,5.3813,5.2935,5.1941,5.1011,4.996,4.8481,4.695,4.5475,4.3932,4.2375,4.0894,3.8529,3.5869,3.2892,3.1341,2.9805,2.8378,2.6902,2.5427,2.4088,2.2585,2.1346,2.0249,1.9133,1.8153,1.7449,1.6603,1.5763,1.491,1.4189,1.3468,1.2753,1.2036,1.1319,1.0455,1.0167,0.9302,0.815,0.815,0.7715,0.6845,0.6119,0.5825,0.568,4.8193,4.7777,4.7832,4.8431,4.8532,4.8695,4.9303,4.9972,5.0677,5.1315,5.1343,5.1347,5.1454,5.135,5.1298,5.1298,5.1298,5.1582,5.2343,5.2378,5.2644,5.3316,5.3422,5.3812,5.4485,5.4697,5.5122,5.5794,5.5865,5.5901,5.5901,5.5844,5.5879,5.5879,5.5879,5.5879,5.5914,5.6644,5.6998,5.714,5.7742,5.806,5.8131,5.8131,5.8202,5.8273,5.8094,5.7998,5.7938,5.7745,5.7649,5.7649,5.7579,5.7544,5.7482,5.7359,5.7171,5.6982,5.6819,5.666,5.6498,5.6368,5.6782,5.7157,5.7049,0.0,5.7214,5.6987,0.0,5.5927,5.5196,0.0,0.0,5.3113,5.2306,5.1449,5.0508,4.9149,4.7773,4.6112,4.437,4.2712,4.1215,3.8268,3.5767,3.3922,3.2128,3.0455,2.8774,2.7035,2.5562,2.4495,2.2996,2.1897,2.1069,1.968,1.8563,1.7861,1.6744,1.5763,1.491,1.4189,1.3468,1.2753,1.233,1.1469,1.0455,1.0455,0.9446,0.815,0.815,0.7715,0.6845,0.6119,0.5825,0.568,4.9471,4.924,4.9264,4.9502,4.945,4.9613,5.0315,5.1,5.1513,5.1772,5.1708,5.1607,5.1607,5.1999,5.2232,5.2232,5.2624,5.3051,5.3371,5.3371,5.3513,5.3816,5.4296,5.4723,5.5043,5.5506,5.5897,5.6217,5.6217,5.6217,5.6217,5.6106,5.6049,5.6049,5.6049,5.6298,5.6723,5.7192,5.7925,5.8779,5.9099,5.9526,5.9882,5.9301,5.9408,5.9703,5.9643,5.9557,5.9338,5.8818,5.8554,5.8421,5.7965,5.779,5.7825,5.7763,5.7514,5.7289,5.7225,5.6967,5.6739,5.6572,5.6919,5.7259,5.7153,5.7302,5.7439,5.7214,0.0,0.0,0.0,0.0,0.0,0.0,5.2487,5.1421,5.01,4.8895,4.7656,4.6347,4.4912,4.2911,4.0268,3.8149,3.6135,3.4298,3.2765,3.1212,2.9805,2.823,2.6769,2.5442,2.3938,2.2722,2.1622,2.0249,1.9133,1.8153,1.7308,1.632,1.5328,1.4759,1.3904,1.2753,1.2617,1.1749,1.0455,1.0455,0.959,0.815,0.815,0.757,0.6555,0.5974,0.5683,0.5399,5.1049,5.0678,5.0337,5.0468,5.0416,5.0579,5.1318,5.1742,5.1956,5.1956,5.2036,5.213,5.208,5.2794,5.3258,5.3207,5.3706,5.4099,5.4313,5.4349,5.4456,5.467,5.5241,5.5526,5.5526,5.6097,5.6383,5.6383,5.6383,5.6383,5.6383,5.6308,5.6253,5.6253,5.6466,5.6858,5.7391,5.7968,5.8881,5.9916,6.0165,6.0594,6.1058,6.0333,6.0416,6.0878,6.0818,6.0635,6.0352,5.9726,5.9425,5.9194,5.8597,5.8421,5.8421,5.8421,5.8234,5.798,5.7915,5.7721,5.7426,5.7258,5.7398,5.7566,5.753,5.7509,5.7514,5.7364,5.6834,0.0,0.0,0.0,5.4179,5.3389,0.0,5.1243,4.9664,4.842,4.7306,4.6141,4.4413,4.2213,3.9268,3.7769,3.6239,3.4411,3.2922,3.1518,3.0006,2.8584,2.7342,2.5962,2.4487,2.3188,2.1897,2.0804,1.9692,1.8573,1.7872,1.6885,1.5753,1.5186,1.4189,1.2896,1.2896,1.1893,1.0455,1.0455,0.959,0.815,0.815,0.728,0.6264,0.5974,0.5538,0.5113,5.295,5.1542,5.0611,5.1318,5.1464,5.1629,5.2196,5.2198,5.2102,5.2102,5.2785,5.3203,5.3053,5.377,5.4184,5.3992,5.3992,5.4349,5.5134,5.5169,5.5526,5.6276,5.6347,5.6347,5.6347,5.6383,5.6383,5.6383,5.6383,5.6383,5.6383,5.6383,5.6383,5.6418,5.7204,5.756,5.7667,5.9202,5.988,5.9987,6.0736,6.1093,6.1093,6.1058,6.1093,6.1093,6.0878,6.0696,6.0547,6.0423,6.0199,6.0072,6.0036,6.0036,6.0036,6.0036,5.9873,5.9679,5.9582,5.9383,5.9182,5.8944,5.8702,5.8456,5.8456,5.8027,5.7514,5.7364,5.6834,5.629,5.5814,5.5196,5.4305,5.2932,5.212,0.0,0.0,4.8126,4.6775,4.5266,4.2578,4.0354,3.8807,3.7246,3.5743,3.4072,3.2512,3.0926,2.9208,2.7824,2.6584,2.5495,2.417,2.3105,2.231,2.122,2.011,1.8993,1.8282,1.7298,1.6178,1.5337,1.4332,1.3325,1.2896,1.1893,1.0455,1.0455,0.959,0.815,0.815,0.7135,0.5825,0.5825,0.5538,0.5113,5.3235,5.2669,5.2285,5.2324,5.2272,5.2291,5.2397,5.2293,5.2426,5.2967,5.3158,5.3504,5.3957,5.4712,5.5127,5.504,5.5542,5.5972,5.6223,5.6259,5.6366,5.6617,5.66,5.6546,5.6546,5.6437,5.6383,5.6383,5.6383,5.6383,5.6418,5.6918,5.7168,5.7204,5.7989,5.8631,5.9166,5.9701,6.0201,6.0736,6.0986,6.1093,6.1093,6.1093,6.1093,6.1093,6.1034,6.0854,6.0609,6.0547,6.036,6.0107,6.0107,6.0107,6.0107,6.0107,5.9943,5.9748,5.9652,5.9453,5.9251,5.9012,5.884,5.8631,5.8561,5.8277,5.7881,5.7364,5.7063,5.6603,5.6053,5.5442,5.4557,5.3155,5.2262,5.0988,0.0,4.6616,4.4674,4.3541,4.219,4.074,3.9094,3.777,3.6258,3.4526,3.3095,3.152,2.9919,2.8546,2.7338,2.6252,2.4819,2.3764,2.2996,2.176,2.0527,1.9692,1.8422,1.7439,1.6452,1.547,1.4332,1.3325,1.2896,1.1893,1.0455,1.0455,0.959,0.815,0.815,0.7135,0.5825,0.5825,0.5421,0.4886,5.34,5.3277,5.3188,5.2893,5.2761,5.2744,5.2935,5.2878,5.3074,5.3905,5.4133,5.4445,5.4936,5.5656,5.6073,5.6021,5.6489,5.6812,5.6812,5.6812,5.6812,5.6812,5.6707,5.6707,5.6707,5.66,5.6546,5.6546,5.6832,5.6975,5.6957,5.7743,5.8045,5.8024,5.8809,5.9416,5.9916,6.0201,6.0629,6.1093,6.1093,6.1272,6.1521,6.1521,6.1343,6.1093,6.1093,6.0854,6.0609,6.0609,6.036,6.0107,6.0107,6.0107,6.0107,6.0107,6.0008,5.9879,5.9687,5.9554,5.9319,5.9081,5.8909,5.8735,5.8561,5.8348,5.8027,5.7439,5.7139,5.6834,5.6244,5.5523,5.4544,5.3006,5.1888,5.0441,0.0,4.5522,4.3709,4.2652,4.1722,4.0514,3.9008,3.7553,3.6092,3.4487,3.3105,3.156,2.9971,2.8641,2.7495,2.6454,2.5166,2.4185,2.3393,2.2173,2.1069,2.011,1.8703,1.7721,1.6875,1.5612,1.4474,1.3468,1.3039,1.1893,1.0455,1.0455,0.959,0.815,0.815,0.7135,0.5829,0.5856,0.5191,0.4376,5.3521,5.3437,5.3309,5.3097,5.2967,5.3089,5.3681,5.3826,5.4143,5.4882,5.5558,5.5944,5.5916,5.6551,5.6969,5.6901,5.6848,5.6884,5.692,5.692,5.692,5.692,5.692,5.692,5.692,5.692,5.692,5.692,5.7675,5.8017,5.7853,5.8733,5.8979,5.8809,5.963,5.9987,6.0023,6.0772,6.1129,6.1165,6.1165,6.1628,6.2342,6.2342,6.1878,6.12,6.12,6.1021,6.0751,6.0715,6.0466,6.0212,6.0212,6.0177,6.0142,6.0142,6.0142,6.0043,5.9687,5.9621,5.952,5.9081,5.8909,5.8771,5.8561,5.8348,5.8027,5.7439,5.7139,5.6834,5.6244,5.5604,5.4466,5.2403,5.1203,4.9509,4.6281,4.5018,4.3926,4.2652,4.1071,3.9647,3.8526,3.6881,3.5356,3.4134,3.2685,3.1073,2.9549,2.8241,2.7119,2.6216,2.5092,2.4101,2.3379,2.2709,2.1622,2.011,1.8982,1.8002,1.7308,1.5753,1.4617,1.3904,1.3182,1.1893,1.0455,1.0455,0.959,0.815,0.815,0.714,0.5846,0.5773,0.4982,0.37,5.3674,5.4038,5.4285,5.416,5.3946,5.388,5.3972,5.4474,5.513,5.5884,5.6079,5.6358,5.6926,5.708,5.7391,5.7955,5.7991,5.8244,5.8858,5.8895,5.8895,5.8895,5.8789,5.8736,5.8736,5.8628,5.8574,5.8574,5.879,5.8898,5.8843,5.9633,5.9937,5.9767,6.059,6.0925,6.0808,6.1022,6.145,6.1985,6.1985,6.2414,6.3092,6.3092,6.2985,6.2806,6.2806,6.2683,6.2533,6.2372,6.2216,6.2023,6.1858,6.1441,6.0984,6.0984,6.0563,6.0043,5.9687,5.9621,5.952,5.9081,5.8944,5.8875,5.8561,5.849,5.8171,5.7439,5.7289,5.6987,5.6244,5.5653,5.4791,5.3101,5.077,4.844,4.6402,4.5201,4.4181,4.297,4.1571,4.0058,3.8526,3.7227,3.5795,3.4134,3.2778,3.1421,2.9804,2.86,2.7383,2.6493,2.5482,2.4523,2.387,2.2889,2.176,2.0527,1.9401,1.8282,1.7308,1.6028,1.4901,1.3904,1.3182,1.1893,1.0455,1.0455,0.959,0.815,0.815,0.7219,0.5849,0.5268,0.4563,0.3704,5.4199,5.4825,5.5258,5.5133,5.53,5.5464,5.5204,5.5524,5.6061,5.6817,5.6879,5.7122,5.7923,5.7933,5.826,5.906,5.9081,5.9211,5.9683,5.9667,5.9615,5.9615,5.9509,5.9509,5.9509,5.9402,5.9402,5.9402,5.9763,5.9889,5.9835,6.0627,6.0932,6.0762,6.1229,6.1328,6.1247,6.151,6.1878,6.2307,6.2628,6.3234,0.0,6.3912,6.4126,6.4448,6.4448,6.3894,6.32,6.2974,6.2782,6.2687,6.2455,6.2108,6.1792,6.1792,6.1441,6.1025,6.0662,6.0595,6.0458,5.9702,5.953,5.9357,5.8629,5.849,5.8277,5.7439,5.7289,5.7063,5.6244,5.5766,5.4773,5.2901,5.0513,4.8293,4.6962,4.5556,4.4275,4.3136,4.1868,4.0465,3.8921,3.7548,3.6036,3.4469,3.3119,3.1767,3.0157,2.8957,2.7783,2.6843,2.5785,2.496,2.4223,2.3188,2.1897,2.0665,1.9552,1.8433,1.7308,1.6169,1.5035,1.3904,1.3182,1.1893,1.0455,1.0455,0.959,0.801,0.7327,0.6689,0.5906,0.5179,0.4307,0.3733,5.5059,5.5798,5.6273,5.6108,5.681,5.7235,5.6878,5.6832,5.7005,5.7606,5.774,5.8069,5.875,5.8896,5.9297,6.0099,6.0034,6.0056,6.0129,6.001,5.9957,5.9957,5.9957,5.9905,5.9905,5.9905,5.9905,5.9905,6.0629,6.0901,6.0774,6.1459,6.1728,6.1651,6.1651,6.1573,6.1507,6.2212,6.2485,6.2663,6.3306,6.4055,6.4769,6.4769,6.5197,6.5804,6.5804,6.4848,6.3484,6.3293,6.3165,6.3005,6.2771,6.2635,6.2564,6.2564,6.2459,6.2322,6.202,6.1883,6.164,6.0566,6.0323,6.0081,5.8869,5.8627,5.8379,5.7473,5.7289,5.7063,5.6244,5.5653,5.4576,5.2442,5.0493,4.8887,4.7762,4.6027,4.4546,4.3328,4.2137,0.0,3.944,3.7761,3.6254,3.5024,3.3572,3.2113,3.049,2.9194,2.8096,2.7201,2.6248,2.5282,2.4573,2.3393,2.2173,2.0665,1.9552,1.8433,1.7308,1.6169,1.5035,1.3904,1.3182,1.1893,1.0599,1.0455,0.9602,0.8038,0.6515,0.6002,0.5926,0.5231,0.4512,0.3768,5.6143,5.6811,5.7289,5.7085,5.7709,5.8221,5.8083,5.7994,5.7941,5.8088,5.849,5.8823,5.8933,5.9456,6.0099,6.0901,6.0974,6.1215,6.1907,6.1943,6.1891,6.1891,6.1785,6.1732,6.1732,6.1661,6.1607,6.1607,6.1752,6.177,6.177,6.1914,6.1895,6.1728,6.1728,6.1975,6.2367,6.3095,6.375,6.4234,6.4341,6.4876,6.559,6.559,6.5697,6.5804,6.5804,6.5625,6.5312,6.4989,6.4858,6.4791,6.4388,6.3898,6.3372,6.3372,6.2915,6.2322,6.202,6.1883,6.1779,6.1222,6.1116,6.0839,5.9621,5.9378,5.8991,5.7573,5.7289,5.7063,5.6244,5.5246,5.4189,5.2816,5.1611,5.018,4.809,4.6862,4.5401,4.3478,4.2262,4.1097,3.9775,3.8291,3.6665,3.5024,3.3797,3.2322,3.082,2.9549,2.8456,2.7565,2.6485,2.555,2.4509,2.3419,2.2173,2.0665,1.982,1.8703,1.7308,1.6461,1.547,1.4332,1.3325,1.2036,1.0881,1.0599,0.9646,0.8136,0.6601,0.608,0.6002,0.5295,0.4544,0.3768,5.7153,5.7749,5.8306,5.8226,5.8479,5.8735,5.8651,5.8894,5.9021,5.8932,5.9173,5.9632,6.0346,6.0738,6.1239,6.1945,6.1967,6.2099,6.25,6.2449,6.2433,6.2433,6.2344,6.2291,6.2291,6.2168,6.2114,6.2114,6.2005,6.2005,6.2005,6.2005,6.195,6.1932,6.231,6.2717,6.3274,6.404,6.4393,6.4662,6.5054,6.5447,6.5804,6.5804,6.5804,6.5804,6.5804,6.5804,6.574,6.5415,6.5282,6.5216,6.4878,6.446,6.4179,6.4179,6.3898,6.3515,6.3206,6.3066,6.2927,6.2085,6.191,6.1631,6.0408,6.0164,5.974,5.8178,5.7859,5.7453,5.6119,5.5164,5.4317,5.3373,5.225,5.0964,4.9314,4.757,4.5938,4.4303,4.2646,4.1198,3.9981,3.8607,3.7096,3.5466,3.3909,3.255,3.1169,2.9874,2.8846,2.7895,2.6856,2.5782,2.4803,2.3474,2.231,2.0943,2.0098,1.8843,1.759,1.6603,1.5612,1.4474,1.3325,1.218,1.0887,0.9803,0.8988,0.8169,0.6672,0.6135,0.6022,0.5,0.4238,0.3768,5.8089,5.8612,5.9024,5.8984,5.9092,5.9201,5.9201,5.9743,6.0018,5.9656,5.9907,6.0526,6.1724,6.2019,6.2303,6.2867,6.2755,6.2705,6.2705,6.2552,6.2485,6.2485,6.2449,6.2449,6.2449,6.2291,6.2238,6.2238,6.2295,6.2314,6.2314,6.244,6.2512,6.2549,6.3269,6.3784,6.4243,6.4889,6.5064,6.4974,6.5554,6.5804,6.5804,6.5804,6.5804,6.5804,6.5804,6.5804,6.574,6.548,6.5349,6.5216,6.4878,6.4706,6.4706,6.4706,6.4706,6.4637,6.4322,6.4251,6.397,6.3021,6.281,6.2458,6.1229,6.0984,6.0523,5.9026,5.8451,5.7698,5.6105,5.5278,5.456,5.3899,5.2735,5.1539,5.0395,4.8278,4.6489,4.5204,4.3291,4.1555,4.0338,3.8995,3.7489,3.6173,3.4289,3.2706,3.154,3.0219,2.9169,2.8271,2.7165,2.6028,2.5037,2.3543,2.231,2.1207,2.0098,1.8982,1.7861,1.6744,1.5612,1.4474,1.3325,1.2051,1.0794,0.8998,0.8326,0.8234,0.6728,0.6176,0.6042,0.4852,0.4084,0.377,5.9065,5.914,5.9139,5.9024,5.9657,6.018,6.018,6.0811,6.0948,5.9943,6.0958,6.1828,6.1976,6.264,6.3073,6.3147,6.3051,6.2953,6.2953,6.2855,6.2755,6.2755,6.2654,6.2603,6.2603,6.2449,6.2381,6.2381,6.3002,6.3257,6.3257,6.3872,6.4178,6.4215,6.5011,6.5294,6.519,6.5898,6.6038,6.5851,6.5832,6.5804,6.5804,6.5804,6.5804,6.5804,6.5804,6.5804,6.574,6.551,6.5415,6.5282,6.5082,6.4878,6.4706,6.4706,6.4706,6.4637,6.4393,6.4287,6.4109,6.3823,6.3643,6.3216,6.2015,6.177,6.1415,5.9919,5.8552,5.7258,5.6217,5.536,5.4645,5.4189,5.3227,5.206,5.0455,4.9228,4.7798,4.5972,4.431,4.2637,4.1001,3.9297,3.7977,3.692,3.5045,3.3308,3.188,3.0629,2.9542,2.8648,2.7279,2.6028,2.5037,2.3543,2.231,2.1207,2.0098,1.8982,1.7861,1.6744,1.5612,1.4474,1.3325,1.1969,1.0492,0.8887,0.8417,0.844,0.6773,0.6206,0.6108,0.4865,0.4084,0.3774,5.9365,5.9365,5.9515,5.989,6.0188,6.0561,6.1085,6.1752,6.2081,6.1619,6.2011,6.2472,6.2817,6.3104,6.3289,6.3231,6.359,6.3836,6.3836,6.4267,6.4512,6.4412,6.4361,6.431,6.4207,6.4103,6.3998,6.3998,6.4184,6.4221,6.4111,6.4383,6.4763,6.512,6.5446,6.5728,6.6043,6.6222,6.6207,6.6021,6.5832,6.6089,6.6517,6.6517,6.6803,6.716,6.716,6.716,6.716,6.7094,6.6292,6.5282,6.5082,6.4843,6.4706,6.4706,6.4706,6.4637,6.4463,6.4287,6.4109,6.3999,6.3747,6.3457,6.27,6.2556,6.2165,6.0806,5.9285,5.7837,5.6953,5.6007,5.5091,5.4252,5.329,5.2305,5.1026,4.961,4.8182,4.6785,4.5011,4.3349,4.2007,4.0326,3.8899,3.7785,3.5622,3.3959,3.2933,3.1501,3.0174,2.8973,2.7654,2.6377,2.5037,2.3543,2.2448,2.1484,2.0237,1.9122,1.8131,1.6744,1.5186,1.3476,1.228,1.1338,1.0522,0.904,0.854,0.8473,0.6833,0.6247,0.6118,0.4552,0.3944,0.3656,5.951,5.9736,6.0112,6.0604,6.1018,6.1467,6.2067,6.2738,6.3181,6.3098,6.3094,6.319,6.3527,6.3519,6.3585,6.3752,6.4177,6.4572,6.4831,6.5386,6.5656,6.5557,6.5506,6.5455,6.5353,6.5249,6.5144,6.5144,6.5221,6.5132,6.5003,6.5202,6.5488,6.5953,6.5953,6.6184,6.6608,6.6391,6.6413,6.6442,6.6253,6.6689,6.7302,6.7302,6.7624,6.8088,6.8088,6.8088,6.8088,6.8088,6.7176,6.6022,6.582,6.5616,6.5408,6.5408,6.5408,6.5268,6.4953,6.4707,6.4459,6.4106,6.382,6.3526,6.3076,6.3,6.2642,6.12,5.9885,5.8675,5.7707,5.6556,5.5474,5.4568,5.3414,5.2397,5.1293,4.9934,4.8585,4.7631,4.577,4.4166,4.3022,4.1164,3.9609,3.8521,3.6493,3.4848,3.3878,3.2351,3.0809,2.9421,2.8114,2.6651,2.5037,2.3543,2.2585,2.1772,2.0237,1.9122,1.8272,1.6452,1.45,1.2835,1.1491,1.0853,1.0643,0.9162,0.8636,0.852,0.6878,0.6275,0.6118,0.4395,0.3796,0.3681,5.9616,6.0295,6.0898,6.0898,6.2257,6.3314,6.32,6.3878,6.4326,6.4125,6.4083,6.4042,6.3915,6.3823,6.4115,6.4935,6.4744,6.4938,6.5827,6.5804,6.5706,6.5706,6.5557,6.5506,6.5506,6.5353,6.5301,6.5301,6.5877,6.608,6.5951,6.6504,6.6786,6.6786,6.6786,6.6786,6.6786,6.6608,6.6859,6.7429,6.7267,6.7504,6.8088,6.8088,6.8088,6.8088,6.8088,6.8088,6.8088,6.8088,6.799,6.7856,6.7652,6.7271,6.6988,6.6988,6.6988,6.6813,6.6075,6.5582,6.512,6.4389,6.3892,6.3526,6.3076,6.3,6.2532,6.0897,6.0284,5.9646,5.8396,5.6848,5.5634,5.517,5.3726,5.2397,5.1293,5.0346,4.9248,4.8252,4.6606,4.4989,4.362,4.158,3.9975,3.8919,3.7456,3.5917,3.4228,3.2897,3.1444,2.9787,2.8493,2.6769,2.5037,2.3543,2.2585,2.1772,2.0237,1.9122,1.8272,1.531,1.357,1.2853,1.1244,1.081,1.0914,0.9229,0.8683,0.8622,0.69,0.6275,0.6118,0.4395,0.3796,0.3681,6.055,6.1269,6.1989,6.2521,6.3049,6.3577,6.4068,6.437,6.452,6.4443,6.4893,6.5151,6.511,6.4903,6.5067,6.5888,6.6304,6.6658,6.6955,6.738,6.758,6.7481,6.7432,6.7331,6.7126,6.7074,6.7022,6.6953,6.712,6.7067,6.6846,6.6874,6.6903,6.6822,6.7366,6.7619,6.7655,6.7981,6.8255,6.8319,6.8091,6.8362,6.8944,6.8944,6.9265,6.9729,6.9729,6.9729,6.9729,6.9729,6.9593,6.9455,6.9247,6.8293,6.7165,6.7023,6.7023,6.6953,6.6707,6.6386,6.606,6.5816,6.5036,6.4249,6.3828,6.311,6.2391,6.1488,6.1017,6.0374,5.9151,5.7979,5.6718,5.5328,5.4099,5.2917,5.1383,5.0346,4.9277,4.828,4.6964,4.5606,4.4434,4.2865,4.1257,3.9917,3.8303,3.6773,3.5067,3.3559,3.1997,3.0602,2.8757,2.6902,2.5427,2.3952,2.2722,2.1772,2.0527,1.8931,1.695,1.5069,1.3853,1.3185,1.1495,1.0987,1.0926,0.9315,0.875,0.8622,0.69,0.6275,0.6121,0.4436,0.3843,0.3727,6.1561,6.2208,6.2927,6.3385,6.3763,6.4141,6.4595,6.4671,6.4634,6.4596,6.5275,6.5877,6.6216,6.6274,6.6481,6.6918,6.7307,6.7663,6.7999,6.8389,6.8506,6.8457,6.8358,6.8208,6.8055,6.7952,6.7847,6.7794,6.7687,6.747,6.721,6.7367,6.7339,6.7293,6.809,6.8452,6.8488,6.8837,6.9074,6.911,6.8981,6.9251,6.9765,6.9765,7.0086,7.0514,7.0514,7.0514,7.0514,7.0514,7.0445,7.0272,6.9991,6.9177,6.8258,6.7973,6.7901,6.7831,6.755,6.719,6.686,6.6582,6.5833,6.5007,6.4239,6.3441,6.256,6.1857,6.135,6.0687,5.9872,5.8691,5.7508,5.6088,5.4847,5.3437,5.1772,5.0699,4.9536,4.8308,4.7053,4.6007,4.483,4.3406,4.181,4.0292,3.867,3.7132,3.5541,3.3902,3.2384,3.0861,2.902,2.7302,2.5831,2.4474,2.3157,2.2064,2.0485,1.8613,1.6449,1.5112,1.4027,1.3349,1.1637,1.0944,1.0685,0.9371,0.8778,0.8466,0.69,0.6292,0.6165,0.4462,0.3876,0.377,6.2501,6.3145,6.3713,0.0,6.4358,6.4888,6.4743,6.4743,6.4707,6.4709,6.5427,6.6219,6.7086,6.7874,6.8199,6.7947,6.7778,6.8024,6.8846,6.8791,6.8697,6.8697,6.8457,6.8309,6.8309,6.8055,6.7952,6.7973,6.778,6.7561,6.7393,6.7986,6.8232,6.8126,6.8923,6.9249,6.9285,6.9321,6.957,6.9901,6.9901,7.0171,7.0514,7.0514,7.0514,7.0514,7.0514,7.0514,7.0514,7.0514,7.0514,7.0445,7.0062,6.9885,6.9849,6.9522,6.9376,6.9235,6.8498,6.7994,6.7487,6.6825,6.6318,6.5619,6.441,6.3849,6.3134,6.2025,6.1383,6.0853,6.0463,5.9014,5.786,5.7259,5.5812,5.414,5.2557,5.1376,5.0154,4.8477,4.7267,4.6114,4.4909,4.3457,4.1997,4.0339,3.8834,3.7175,3.5624,3.4273,3.2734,3.0897,2.9595,2.8014,2.6176,2.5114,2.3885,2.2626,2.018,1.8268,1.6802,1.5197,1.4113,1.3354,1.1689,1.0845,1.0486,0.9246,0.8471,0.8011,0.6751,0.6329,0.6075,0.4483,0.3899,0.3807,0.0,0.0,6.479,6.479,6.4981,6.5133,6.5095,6.4989,6.5148,6.5796,6.6483,6.7203,6.8072,6.8824,6.9234,6.9193,6.886,6.8758,6.8983,6.8884,6.8828,6.8697,6.865,6.8506,6.8309,6.8259,6.8402,6.882,6.9284,6.9411,6.9242,6.9253,6.9209,6.9104,6.9781,7.0118,7.0118,7.0698,7.0934,7.0923,7.0793,7.0704,7.0718,7.0582,7.0514,7.0514,7.0514,7.0514,7.0514,7.0514,7.0514,7.0445,7.0202,7.0062,6.9849,6.9522,6.9376,6.934,6.9165,6.8763,6.8392,6.8218,6.723,6.6097,6.5118,6.4223,6.3303,6.2662,6.1716,6.0853,6.0463,5.9467,5.8377,5.7354,5.6217,5.4844,5.3218,5.2052,5.086,4.9587,4.8507,4.7163,4.5538,4.4265,4.2791,4.1234,3.9574,3.8174,3.6939,3.53,3.3589,3.1724,2.9993,2.8521,2.7276,2.5981,2.4059,2.164,2.0162,1.8515,1.7029,1.553,1.4404,1.3531,1.1985,1.0922,1.0486,0.9246,0.8355,0.7631,0.6677,0.6248,0.5835,0.4418,0.3954,0.3811,6.4476,6.4856,6.5199,6.5199,6.5199,6.5199,6.5199,6.5432,6.5817,6.6273,6.7271,6.8147,6.8603,6.9284,6.9697,6.9657,6.9374,6.9203,6.9203,6.9027,6.9079,6.9444,6.9304,6.9346,6.9583,6.9434,6.9451,6.9667,6.9945,7.0054,6.9884,7.004,7.0105,6.9963,7.0615,7.0879,7.0915,7.1313,7.1404,7.1276,7.1045,7.0883,7.0785,7.0582,7.0728,7.1049,7.1049,7.1264,7.1549,7.1549,7.1549,7.1549,7.1339,7.1126,7.0839,7.0194,6.973,6.9376,6.9376,6.9043,6.8628,6.8474,6.7649,6.669,6.5938,6.5107,6.4248,6.3466,6.2382,6.1466,6.0955,5.9822,5.8664,5.7797,5.6809,5.5516,5.3909,5.2729,5.1494,5.0037,4.8948,4.762,4.6114,4.4852,4.3474,4.1923,4.0341,3.8759,3.7382,3.5601,3.3934,3.2276,3.0659,2.9257,2.794,2.5852,2.3851,2.1812,2.0329,1.8751,1.7246,1.5684,1.4507,1.3583,1.2037,1.0987,1.0414,0.9321,0.8278,0.724,0.6759,0.6162,0.5739,0.4457,0.3984,0.3838,6.5264,6.5264,6.5264,6.5264,6.5308,6.5454,6.5454,6.6107,6.6641,6.6793,6.8015,6.8932,6.9013,6.9549,6.9891,6.9777,6.9693,6.9604,6.9562,6.9391,6.9634,7.0451,7.0219,7.0411,7.1082,7.0981,7.0761,7.0531,7.0515,7.0384,7.0307,7.0734,7.0943,7.0799,7.1267,7.1494,7.1494,7.1494,7.1504,7.1456,7.1261,7.1201,7.1144,7.094,7.1264,7.187,7.187,7.2263,7.2798,7.2798,7.2798,7.2798,7.2691,7.2511,7.215,7.1296,7.0441,6.9691,6.9446,6.9043,6.8628,6.8162,6.7799,6.7339,6.669,6.6126,6.541,6.4271,6.3149,6.2226,6.171,6.0243,5.8951,5.8462,5.7432,5.6128,5.457,5.3406,5.207,5.0347,4.9224,4.7996,4.669,4.5438,4.416,4.2592,4.0869,3.9176,3.7613,3.5932,3.4241,3.2771,3.1213,2.971,2.8098,2.5526,2.3478,2.2247,2.0597,1.8926,1.7407,1.5761,1.4546,1.3627,1.2096,1.0919,1.0226,0.9278,0.8215,0.7004,0.6679,0.6236,0.5636,0.4312,0.4005,0.3868,6.5383,6.5383,6.5383,6.5383,6.5994,6.6491,6.6491,6.7114,6.7845,6.8498,6.8773,6.9195,6.9883,6.9963,6.9966,6.9966,7.0421,7.0637,7.0428,7.0347,7.0674,7.1275,7.1172,7.1067,7.1082,7.1501,7.1611,7.1451,7.1987,7.2242,7.2071,7.1888,7.1805,7.1781,7.1583,7.1494,7.1494,7.1494,7.1893,7.2481,7.2155,7.2454,7.2997,7.2581,7.2513,7.262,7.262,7.2691,7.2798,7.2798,7.2798,7.2798,7.2798,7.2548,7.2257,7.215,7.1713,7.1061,6.9727,6.9043,6.8628,6.8162,6.7799,6.7475,6.7339,6.6466,6.5579,6.4941,6.3915,6.2868,6.2431,6.0987,5.9777,5.919,5.7743,5.628,5.51,5.4083,5.2905,5.1614,5.0492,4.9072,4.7319,4.6115,4.4824,4.3385,4.1522,3.9963,3.8933,3.6971,3.5103,3.3633,3.1773,2.965,2.7241,2.5382,2.3684,2.2247,2.0597,1.8926,1.7407,1.5897,1.4735,1.3804,1.2357,1.1136,1.0346,0.9386,0.8152,0.6595,0.6595,0.6145,0.5371,0.436,0.4029,0.3868,6.5494,6.5494,6.5647,6.6106,6.6528,6.6949,6.7408,6.8112,6.8738,6.9082,6.9475,6.9866,7.0217,7.0182,7.0302,7.0649,7.0991,7.1443,7.2147,7.1643,7.1626,7.232,7.2136,7.2171,7.2423,7.2578,7.2553,7.2391,7.2595,7.261,7.2496,7.2167,7.1988,7.1964,7.2091,7.2146,7.2183,7.2617,7.2951,7.3182,7.2916,7.2997,7.3183,7.2869,7.3083,7.344,7.344,7.3726,7.4083,7.4083,7.4083,7.4083,7.4083,7.3828,7.346,7.3,7.2312,7.1371,7.0062,6.952,6.915,6.8266,6.7799,6.751,6.751,6.6792,6.6053,6.5679,6.4561,6.354,6.3186,6.1698,6.0419,5.9918,5.8397,5.6892,5.5891,5.4465,5.3078,5.1896,5.0683,4.9448,4.7922,4.6703,4.5395,4.4061,4.2051,4.036,3.9299,3.7173,3.541,3.4128,3.1491,2.9107,2.6954,2.5511,2.3954,2.2464,2.0933,1.9296,1.7738,1.6119,1.475,1.3648,1.2288,1.1063,0.9983,0.9332,0.8086,0.6676,0.6676,0.6196,0.5216,0.4372,0.4036,0.3868,6.5876,6.5915,6.6183,6.7065,6.7372,6.7717,6.8369,6.9115,6.9621,6.9621,7.0101,7.0495,7.062,7.0625,7.0865,7.1558,7.1788,7.2357,7.3487,7.2939,7.2805,7.3364,7.3129,7.3191,7.3578,7.3357,7.3145,7.2982,7.2872,7.2667,7.2496,7.2386,7.2279,7.2316,7.2744,7.2979,7.3016,7.3667,7.3898,7.3946,7.3744,7.3647,7.3651,7.344,7.3761,7.4297,7.4297,7.4689,7.5225,7.5225,7.5225,7.5225,7.5225,7.4894,7.4487,7.385,7.2982,7.1967,7.0488,7.0167,6.988,6.8646,6.804,6.7715,6.7544,6.7014,6.6421,6.6182,6.5138,6.412,6.3941,6.2474,6.1152,6.0646,5.9114,5.7595,5.6582,5.4995,5.351,5.2318,5.1208,4.9959,4.8682,4.7376,4.614,4.4784,4.2742,4.1064,3.964,3.7496,3.5597,3.4106,3.1109,2.8795,2.7174,2.58,2.4263,2.273,2.1246,1.9604,1.7873,1.6333,1.4921,1.3646,1.2398,1.1003,0.9773,0.9448,0.8169,0.6727,0.6727,0.6224,0.5216,0.4372,0.4036,0.387,6.6643,6.6797,6.7065,6.7947,6.8714,6.9251,6.9289,7.0056,7.0593,7.0593,7.0578,7.086,7.1587,7.157,7.1811,7.265,7.3269,7.3649,7.3801,7.4207,7.4412,7.4305,7.3896,7.3691,7.3578,7.3424,7.3252,7.2982,7.2982,7.2816,7.2532,7.2875,7.3118,7.3155,7.3579,7.3812,7.3849,7.3885,7.4188,7.474,7.4572,7.4831,7.5299,7.5083,7.5082,7.5118,7.5118,7.5153,7.5225,7.5225,7.5225,7.5225,7.5225,7.4894,7.4593,7.4522,7.4181,7.3405,7.1429,7.0932,7.0679,6.9554,6.8863,6.833,6.7646,6.7014,6.6421,6.6182,6.5537,6.5,6.4695,6.3218,6.1981,6.1374,5.9799,5.8237,5.7213,5.6025,5.4835,5.3585,5.2449,5.1169,4.9887,4.8523,4.7283,4.5893,4.3779,4.1948,4.0622,3.8425,3.5916,3.293,3.1138,2.9493,2.7847,2.6226,2.4546,2.3007,2.1324,1.9604,1.7873,1.6469,1.4939,1.3654,1.2643,1.138,1.006,0.9559,0.8395,0.6727,0.6727,0.6224,0.5216,0.4372,0.4036,0.3873,6.7664,6.7818,6.8125,6.8971,6.9393,6.9739,7.0239,7.0594,7.0758,7.0758,7.1168,7.1567,7.1772,7.2243,7.2826,7.3527,7.3762,7.4068,7.4485,7.4626,7.4606,7.438,7.4009,7.3765,7.3715,7.3997,7.3993,7.3758,7.4238,7.4327,7.4001,7.3934,7.3957,7.3993,7.4413,7.4645,7.4682,7.5189,7.5386,7.54,7.533,7.5299,7.5262,7.5189,7.5225,7.5225,7.5225,7.5225,7.5225,7.5225,7.5225,7.5225,7.5225,7.4894,7.4517,7.4287,7.4167,7.3791,7.2683,7.2116,7.1479,7.0315,6.9619,6.9115,6.833,6.7489,6.6752,6.6196,6.5392,6.4793,6.4518,6.3544,6.262,6.1905,6.0415,5.8971,5.7903,5.6407,5.495,5.3726,5.2586,5.1304,5.0018,4.8651,4.7383,4.6014,4.3894,4.2059,4.0729,3.7783,3.523,3.3032,3.1609,3.0004,2.792,2.6446,2.4843,2.3273,2.1704,2.0025,1.8418,1.6709,1.5108,1.3473,1.2542,1.1237,0.9569,0.9407,0.8403,0.6727,0.6727,0.6056,0.4883,0.4238,0.3909,0.3576,6.8629,6.8821,6.909,6.9937,7.009,7.0244,7.0821,7.0871,7.093,7.1199,7.1679,7.2165,7.2601,7.3182,7.3772,7.4476,7.4408,7.4524,7.5018,7.5081,7.4978,7.4756,7.4431,7.435,7.4562,7.4882,7.4863,7.4607,7.5124,7.5211,7.4918,7.4811,7.4796,7.4769,7.5248,7.5478,7.5515,7.6058,7.6108,7.5798,7.5798,7.5585,7.5225,7.5225,7.5225,7.5225,7.5225,7.5225,7.5225,7.5225,7.5225,7.5189,7.5116,7.4819,7.4441,7.4088,7.401,7.3931,7.3415,7.2951,7.2279,7.1028,7.0408,6.9901,6.9115,6.8267,6.7368,6.6598,6.5757,6.4872,6.4365,6.3675,6.2937,6.2116,6.0905,5.9674,5.8594,5.7025,5.5555,5.4317,5.3165,5.1868,5.0542,4.9186,4.7929,4.652,4.4377,4.2228,4.0049,3.7355,3.5061,3.3426,3.2168,3.0376,2.8227,2.6749,2.5139,2.355,2.1972,2.0444,1.8654,1.6845,1.5036,1.3383,1.2395,1.107,0.9407,0.9407,0.8416,0.6761,0.6761,0.593,0.4765,0.4284,0.3782,0.3445,6.9552,6.9706,6.9975,7.0744,7.0898,7.0898,7.0898,7.0898,7.1206,7.2091,7.215,7.2716,7.4312,7.4478,7.4686,7.5424,7.5321,7.5209,7.5209,7.5607,7.5758,7.5622,7.5389,7.5533,7.6205,7.6051,7.5824,7.542,7.542,7.5248,7.4955,7.5395,7.5634,7.5607,7.6082,7.6275,7.6275,7.6275,7.6108,7.5798,7.5798,7.5585,7.5225,7.5225,7.5225,7.5225,7.5225,7.5225,7.5225,7.5225,7.5225,7.5151,7.5004,7.4593,7.4287,7.4088,7.401,7.3931,7.3415,7.3334,7.3044,7.1788,7.1198,7.0721,6.9901,6.8958,6.8138,6.7368,6.6428,6.5493,6.4463,6.3675,6.2937,6.2116,6.1308,6.0377,5.9207,5.8085,5.6851,5.5613,5.4433,5.3105,5.1721,5.0334,4.9072,4.763,4.5437,4.2516,3.8865,3.7089,3.5456,3.3802,3.2299,3.0608,2.89,2.7175,2.5581,2.3816,2.205,2.0444,1.8654,1.6854,1.5036,1.339,1.2401,1.1076,0.9407,0.9407,0.8454,0.6833,0.6833,0.6022,0.4694,0.4346,0.3825,0.3486,7.0516,7.0684,7.0761,7.0992,7.1005,7.0979,7.0979,7.1426,7.1898,7.2168,7.3217,7.4081,7.4465,7.497,7.5365,7.5497,7.5356,7.5475,7.593,7.6398,7.6897,7.7417,7.66,7.6132,7.6205,7.6648,7.6679,7.6232,7.6823,7.6906,7.6607,7.6491,7.6437,7.6473,7.63,7.6275,7.6275,7.614,7.5971,7.5798,7.5657,7.5406,7.526,7.5831,7.6045,7.6117,7.6616,7.6795,7.6795,7.6795,7.6795,7.6756,7.6453,7.5755,7.4984,7.4827,7.4396,7.3931,7.3415,7.3334,7.3183,7.2444,7.1987,7.1473,7.0721,6.9857,6.8908,6.7869,6.7096,6.6119,6.4801,6.403,6.3281,6.1979,6.1103,6.0167,5.9207,5.8085,5.6851,5.5613,5.4433,5.3105,5.1721,5.0334,4.9072,4.763,4.4458,4.153,3.872,3.737,3.5869,3.4196,3.2748,3.1148,2.9079,2.7051,2.5366,2.4106,2.1992,2.0271,1.9089,1.7238,1.5386,1.3702,1.269,1.1328,0.9621,0.9621,0.8607,0.6911,0.6911,0.5888,0.4351,0.4207,0.3693,0.2995,7.099,7.1106,7.1106,7.1106,7.1056,7.1146,7.1467,7.1941,7.2465,7.3091,7.4053,7.4802,7.5027,7.5456,7.5666,7.5532,7.5661,7.6161,7.722,7.7376,7.784,7.867,7.7926,7.7417,7.7177,7.7632,7.7588,7.7082,7.7562,7.7607,7.7304,7.6929,7.6801,7.6801,7.6409,7.6275,7.6275,7.6072,7.5901,7.5834,7.5908,7.5799,7.576,7.6545,7.683,7.6902,7.733,7.7508,7.7508,7.7508,7.7433,7.7204,7.693,7.6261,7.5715,7.5635,7.4948,7.4192,7.3868,7.3461,7.3088,7.2671,7.2245,7.1796,7.1178,7.0423,6.9587,6.8452,6.7763,6.687,6.5287,6.4668,6.3811,6.2456,6.1699,6.0761,5.9518,5.8356,5.7139,5.5641,5.4433,5.3105,5.1721,5.0334,4.8756,4.6688,4.3955,4.1379,3.921,3.7821,3.6282,3.459,3.2932,3.1121,2.9191,2.6719,2.5026,2.3892,2.1915,2.0326,1.8941,1.7409,1.5539,1.3666,1.2809,1.1435,0.9711,0.9711,0.8523,0.6989,0.6989,0.5786,0.423,0.4256,0.3556,0.2849,7.113,7.113,7.113,7.113,7.1183,7.1467,7.2225,7.243,7.3058,7.4514,7.4784,7.5101,7.5818,7.5794,7.5699,7.5714,7.6273,7.7263,7.8701,7.8473,7.867,7.9462,7.9263,7.8966,7.8708,7.8708,7.8441,7.782,7.782,7.7607,7.7304,7.6929,7.6801,7.6801,7.6409,7.6348,7.6384,7.618,7.6045,7.6085,7.6554,7.6621,7.6581,7.733,7.7615,7.7615,7.7687,7.7723,7.7723,7.7723,7.7418,7.7064,7.6905,7.663,7.6397,7.6397,7.5673,7.4834,7.467,7.3865,7.2942,7.2519,7.2193,7.181,7.1367,7.0882,7.0129,6.8998,6.8427,6.7557,6.6029,6.5304,6.4563,6.3431,6.2687,6.1716,5.9874,5.8918,5.7686,5.5838,5.4598,5.3267,5.1878,5.0359,4.8185,4.5107,4.3558,4.1912,3.9975,3.8366,3.6695,3.4967,3.2952,3.0891,2.9277,2.6652,2.4673,2.3333,2.1997,2.0328,1.8657,1.729,1.5584,1.3878,1.2847,1.1468,0.974,0.974,0.8577,0.7071,0.7071,0.587,0.4307,0.4307,0.3769,0.2874,7.1247,7.1247,7.1247,7.1247,7.1804,7.2235,7.2354,7.3459,7.4368,7.4668,7.5284,7.5755,7.5895,7.5794,7.5967,7.6556,7.7646,7.8481,7.8777,7.904,7.9311,7.95,7.9263,7.8966,7.8708,7.8708,7.8441,7.782,7.782,7.7607,7.7304,7.6929,7.6801,7.6801,7.6409,7.6637,7.7253,7.6872,7.702,7.7559,7.7411,7.7334,7.733,7.8115,7.8436,7.8508,7.915,7.94,7.94,7.9167,7.8815,7.8458,7.8412,7.7826,7.717,7.717,7.6444,7.5602,7.5436,7.4545,7.3533,7.3015,7.2307,7.16,7.1367,7.0882,7.0296,6.9376,6.8862,6.8045,6.657,6.5599,6.4685,6.3388,6.2364,6.1348,6.0529,5.9392,5.8287,5.7077,5.5839,5.4477,5.3057,5.0423,4.7766,4.5243,4.3628,4.1912,3.9975,3.8629,3.7108,3.5378,3.3565,3.1571,2.9424,2.7084,2.5132,2.3584,2.1737,2.0304,1.9077,1.7687,1.5943,1.419,1.3136,1.1726,0.9964,0.9964,0.8909,0.7149,0.7149,0.5909,0.4307,0.4307,0.3769,0.2874,7.1291,7.164,7.191,7.191,7.2623,7.3273,7.3586,7.4347,7.4962,7.5302,7.5736,7.5985,7.5895,7.6178,7.6777,7.7831,7.8523,7.9051,7.9347,7.9418,7.95,7.95,7.9214,7.8915,7.8708,7.8655,7.8332,7.782,7.782,7.7607,7.7304,7.6929,7.702,7.7385,7.6989,7.7326,7.8086,7.763,7.7739,7.8062,7.8052,7.8079,7.8151,7.8972,7.9257,7.9328,7.9757,7.9822,7.9665,7.9347,7.9069,7.887,7.8823,7.8376,7.7977,7.7811,7.7118,7.6238,7.6068,7.5085,7.4066,7.3714,7.2778,7.1774,7.1074,7.0699,7.0236,6.9382,6.8896,6.8271,6.7112,6.6194,6.5227,6.4104,6.3091,6.1995,6.0786,5.983,5.8622,5.7229,5.6101,5.4447,5.2228,4.9913,4.7748,4.5634,4.408,4.242,4.0582,3.9099,3.7503,3.5772,3.3676,3.1452,2.9453,2.7096,2.4826,2.3165,2.1464,2.0154,1.8864,1.7455,1.5873,1.4285,1.323,1.181,1.003,0.9669,0.8778,0.7173,0.6994,0.5741,0.4307,0.4307,0.3769,0.2874,7.1485,7.2104,7.2645,7.28,7.3535,7.4324,7.491,7.5092,7.5362,7.6041,7.6034,7.6024,7.6087,7.6875,7.7858,7.8981,7.9093,7.9394,7.9954,7.9683,7.95,7.95,7.9229,7.9051,7.8932,7.8885,7.8611,7.8005,7.8005,7.7901,7.7745,7.7331,7.7567,7.8224,7.7824,7.8159,7.8919,7.8459,7.8387,7.8493,7.8802,7.89,7.8972,7.965,7.9899,7.9899,7.9822,7.9665,7.9427,7.9069,7.8906,7.8823,7.8657,7.8609,7.8525,7.8357,7.7647,7.6903,7.6608,7.5618,7.4679,7.4377,7.3379,7.2211,7.0976,7.0523,7.0143,6.9188,6.8699,6.8201,6.7491,6.6628,6.5777,6.4906,6.4015,6.2839,6.1146,6.0233,5.9073,5.7227,5.5905,5.3971,5.0936,4.9408,4.7832,4.5998,4.4442,4.283,4.1268,3.955,3.7809,3.6046,3.3444,3.1286,2.9453,2.6758,2.4555,2.2686,2.1128,1.9737,1.8514,1.7104,1.5697,1.4285,1.323,1.1632,1.003,0.9491,0.8421,0.7173,0.6633,0.5559,0.4307,0.4128,0.3592,0.2694,7.2297,7.2529,7.2839,7.3574,7.4386,7.4943,7.4987,7.5594,7.6056,7.6118,7.6034,7.6254,7.6855,7.8228,7.9052,7.8941,7.9586,7.9999,7.9903,7.9638,7.95,7.95,7.9792,7.986,7.9754,8.0264,7.9985,7.8855,7.8855,7.9044,7.9433,7.9077,7.8917,7.9026,7.8658,7.8992,7.9752,7.9287,7.9537,8.011,7.9839,7.9757,7.9757,7.9864,7.9899,7.9899,7.9665,7.9347,7.8987,7.887,7.8823,7.8657,7.8574,7.8525,7.8357,7.8272,7.7945,7.744,7.714,7.6231,7.5197,7.4922,7.3976,7.2767,7.1781,7.0737,6.967,6.9091,6.8401,6.7695,6.7213,6.6343,6.5483,6.4604,6.3706,6.2758,6.1615,6.0387,5.9284,5.8202,5.5734,5.3335,5.1272,4.9772,4.8072,4.6041,4.4461,4.283,4.1268,3.955,3.7649,3.5561,3.3265,3.1135,2.895,2.6588,2.4555,2.2686,2.0945,1.9553,1.8514,1.7104,1.5697,1.4285,1.2869,1.1455,0.9852,0.9134,0.8063,0.7173,0.6633,0.5559,0.4128,0.3412,0.3053,0.2694,7.3148,7.369,7.4115,7.4502,7.5276,7.5817,7.5794,7.6044,7.6365,7.68,7.6794,7.6993,7.7675,7.8696,7.9399,7.9626,7.9967,8.0113,7.9898,7.9638,7.9689,8.0179,8.0029,8.0181,8.0613,8.073,8.0671,8.0406,7.9926,7.967,7.98,7.9406,7.9427,7.9865,7.9493,7.9754,8.0334,8.0043,8.011,8.0283,7.9977,7.9899,7.9899,7.9899,7.9822,7.9665,7.9347,7.9069,7.887,7.8741,7.8657,7.8574,7.8441,7.8357,7.8272,7.8049,7.7789,7.749,7.7099,7.6496,7.589,7.5518,7.4472,7.339,7.2671,7.1521,7.0272,6.9059,6.8301,6.7593,6.6901,6.613,6.5375,6.4493,6.3592,6.2672,6.1465,6.0381,5.9052,5.7275,5.518,5.3291,5.1352,4.9771,4.8041,4.6151,4.4504,4.283,4.1268,3.955,3.7739,3.5702,3.3565,3.1322,2.9289,2.7068,2.4986,2.3074,2.1126,1.9423,1.7981,1.6577,1.5168,1.3925,1.2698,1.1277,0.9852,0.8778,0.7885,0.7173,0.6097,0.5022,0.3769,0.3233,0.2874,0.2694]},{"header":{"parameterUnit":"m.s-1","parameterCategory":1,"la1":30.6,"la2":28.766,"lo1":-90.7593,"lo2":-88.6598,"dy":0.0162,"dx":0.0183,"nx":116,"ny":114,"refTime":"2024-03-22T00:00:00:Z","depth":0,"parameterNumber":3,"parameterNumberName":"V-component_of_WINDS"},"data":[0.0,0.0,0.0,0.0,0.0,0.0,0.0,0.0,0.0,0.0,0.0,0.0,0.0,0.0,0.0,0.0,0.0,0.0,0.0,0.0,0.0,0.0,0.0,0.0,0.0,0.0,0.0,0.0,0.0,0.0,0.0,0.0,0.0,0.0,0.0,0.0,0.0,0.0,0.0,0.0,0.0,0.0,0.0,0.0,0.0,0.0,0.0,0.0,0.0,0.0,0.0,0.0,0.0,0.0,0.0,0.0,0.0,0.0,0.0,0.0,0.0,0.0,0.0,0.0,0.0,0.0,0.0,0.0,0.0,0.0,0.0,0.0,0.0,0.0,0.0,0.0,0.0,0.0,0.0,0.0,0.0,0.0,0.0,0.0,0.0,0.0,0.0,0.0,0.0,0.0,0.0,0.0,0.0,0.0,0.0,0.0,0.0,0.0,0.0,0.0,0.0,0.0,0.0,0.0,0.0,0.0,0.0,0.0,0.0,0.0,0.0,0.0,0.0,0.0,0.0,0.0,0.0,0.0,0.0,0.0,0.0,0.0,0.0,0.0,0.0,0.0,0.0,0.0,0.0,0.0,0.0,0.0,0.0,0.0,0.0,0.0,0.0,0.0,0.0,0.0,0.0,0.0,0.0,0.0,0.0,0.0,0.0,0.0,0.0,0.0,0.0,0.0,0.0,0.0,0.0,0.0,0.0,0.0,0.0,0.0,0.0,0.0,0.0,0.0,0.0,0.0,0.0,0.0,0.0,0.0,0.0,0.0,0.0,0.0,0.0,0.0,0.0,0.0,0.0,0.0,0.0,0.0,0.0,0.0,0.0,0.0,0.0,0.0,0.0,0.0,0.0,0.0,0.0,0.0,0.0,0.0,0.0,0.0,0.0,0.0,0.0,0.0,0.0,0.0,0.0,0.0,0.0,0.0,0.0,0.0,0.0,0.0,0.0,0.0,0.0,0.0,0.0,0.0,0.0,0.0,0.0,0.0,0.0,0.0,0.0,0.0,0.0,0.0,0.0,0.0,0.0,0.0,0.0,0.0,0.0,0.0,0.0,0.0,0.0,0.0,0.0,0.0,0.0,0.0,0.0,0.0,0.0,0.0,0.0,0.0,0.0,0.0,0.0,0.0,0.0,0.0,0.0,0.0,0.0,0.0,0.0,0.0,0.0,0.0,0.0,0.0,0.0,0.0,0.0,0.0,0.0,0.0,0.0,0.0,0.0,0.0,0.0,0.0,0.0,0.0,0.0,0.0,0.0,0.0,0.0,0.0,0.0,0.0,0.0,0.0,0.0,0.0,0.0,0.0,0.0,0.0,0.0,0.0,0.0,0.0,0.0,0.0,0.0,0.0,0.0,0.0,0.0,0.0,0.0,0.0,0.0,0.0,0.0,0.0,0.0,0.0,0.0,0.0,0.0,0.0,0.0,0.0,0.0,0.0,0.0,0.0,0.0,0.0,0.0,0.0,0.0,0.0,0.0,0.0,0.0,0.0,0.0,0.0,0.0,0.0,0.0,0.0,0.0,0.0,0.0,0.0,0.0,0.0,0.0,0.0,0.0,0.0,0.0,0.0,0.0,0.0,0.0,0.0,0.0,0.0,0.0,0.0,0.0,0.0,0.0,0.0,0.0,0.0,0.0,0.0,0.0,0.0,0.0,0.0,0.0,0.0,0.0,0.0,0.0,0.0,0.0,0.0,0.0,0.0,0.0,0.0,0.0,0.0,0.0,0.0,0.0,0.0,0.0,0.0,0.0,0.0,0.0,0.0,0.0,0.0,0.0,0.0,0.0,0.0,0.0,0.0,0.0,0.0,0.0,0.0,0.0,0.0,0.0,0.0,0.0,0.0,0.0,0.0,0.0,0.0,0.0,0.0,0.0,0.0,0.0,0.0,0.0,0.0,0.0,0.0,0.0,0.0,0.0,0.0,0.0,0.0,0.0,0.0,0.0,0.0,0.0,0.0,0.0,0.0,0.0,0.0,0.0,0.0,0.0,0.0,0.0,0.0,0.0,0.0,0.0,0.0,0.0,0.0,0.0,0.0,0.0,0.0,0.0,0.0,0.0,0.0,0.0,0.0,0.0,0.0,0.0,0.0,0.0,0.0,0.0,0.0,0.0,0.0,0.0,0.0,0.0,0.0,0.0,0.0,0.0,0.0,0.0,0.0,0.0,0.0,0.0,0.0,0.0,0.0,0.0,0.0,0.0,0.0,0.0,0.0,0.0,0.0,0.0,0.0,0.0,0.0,0.0,0.0,0.0,0.0,0.0,0.0,0.0,0.0,0.0,0.0,0.0,0.0,0.0,0.0,0.0,0.0,0.0,0.0,0.0,0.0,0.0,0.0,0.0,0.0,0.0,0.0,0.0,0.0,0.0,0.0,0.0,0.0,0.0,0.0,0.0,0.0,0.0,0.0,0.0,0.0,0.0,0.0,0.0,0.0,0.0,0.0,0.0,0.0,0.0,0.0,0.0,0.0,0.0,0.0,0.0,0.0,0.0,0.0,0.0,0.0,0.0,0.0,0.0,0.0,0.0,0.0,0.0,0.0,0.0,0.0,0.0,0.0,0.0,0.0,0.0,0.0,0.0,0.0,0.0,0.0,0.0,0.0,0.0,0.0,0.0,0.0,0.0,0.0,0.0,0.0,0.0,0.0,0.0,0.0,0.0,0.0,0.0,0.0,0.0,0.0,0.0,0.0,0.0,0.0,0.0,0.0,0.0,0.0,0.0,0.0,0.0,0.0,0.0,0.0,0.0,0.0,0.0,0.0,0.0,0.0,0.0,0.0,0.0,0.0,0.0,0.0,0.0,0.0,0.0,0.0,0.0,0.0,0.0,0.0,0.0,0.0,0.0,0.0,0.0,0.0,0.0,0.0,0.0,0.0,0.0,0.0,0.0,0.0,0.0,0.0,0.0,0.0,0.0,0.0,0.0,0.0,0.0,0.0,0.0,0.0,0.0,0.0,0.0,0.0,0.0,0.0,0.0,0.0,0.0,0.0,0.0,0.0,0.0,0.0,0.0,0.0,0.0,0.0,0.0,0.0,0.0,0.0,0.0,0.0,0.0,0.0,0.0,0.0,0.0,0.0,0.0,0.0,0.0,0.0,0.0,0.0,0.0,0.0,0.0,0.0,0.0,0.0,0.0,0.0,0.0,0.0,0.0,0.0,0.0,0.0,0.0,0.0,0.0,0.0,0.0,0.0,0.0,0.0,0.0,0.0,0.0,0.0,0.0,0.0,0.0,0.0,0.0,0.0,0.0,0.0,0.0,0.0,0.0,0.0,0.0,0.0,0.0,0.0,0.0,0.0,0.0,0.0,0.0,0.0,0.0,0.0,0.0,0.0,0.0,0.0,0.0,0.0,0.0,0.0,0.0,0.0,0.0,0.0,0.0,0.0,0.0,0.0,0.0,0.0,0.0,0.0,0.0,0.0,0.0,0.0,0.0,0.0,0.0,0.0,0.0,0.0,0.0,0.0,0.0,0.0,0.0,0.0,0.0,0.0,0.0,0.0,0.0,0.0,0.0,0.0,0.0,0.0,0.0,0.0,0.0,0.0,0.0,0.0,0.0,0.0,0.0,0.0,0.0,0.0,0.0,0.0,0.0,0.0,0.0,0.0,0.0,0.0,0.0,0.0,0.0,0.0,0.0,0.0,0.0,0.0,0.0,0.0,0.0,0.0,0.0,0.0,0.0,0.0,0.0,0.0,0.0,0.0,0.0,0.0,0.0,0.0,0.0,0.0,0.0,0.0,0.0,0.0,0.0,0.0,0.0,0.0,0.0,0.0,0.0,0.0,0.0,0.0,0.0,0.0,0.0,0.0,0.0,0.0,0.0,0.0,0.0,0.0,0.0,0.0,0.0,0.0,0.0,0.0,0.0,0.0,0.0,0.0,0.0,0.0,0.0,0.0,0.0,0.0,0.0,0.0,0.0,0.0,0.0,0.0,0.0,0.0,0.0,0.0,0.0,0.0,0.0,0.0,0.0,0.0,0.0,0.0,0.0,0.0,0.0,0.0,0.0,0.0,0.0,0.0,0.0,0.0,0.0,0.0,0.0,0.0,0.0,0.0,0.0,0.0,0.0,0.0,0.0,0.0,0.0,0.0,0.0,0.0,0.0,0.0,0.0,0.0,0.0,0.0,0.0,0.0,0.0,0.0,0.0,0.0,0.0,0.0,0.0,0.0,0.0,0.0,0.0,0.0,0.0,0.0,0.0,0.0,0.0,0.0,0.0,0.0,0.0,0.0,0.0,0.0,0.0,0.0,0.0,0.0,0.0,0.0,0.0,0.0,0.0,0.0,0.0,0.0,0.0,0.0,0.0,0.0,0.0,0.0,0.0,0.0,0.0,0.0,0.0,0.0,0.0,0.0,0.0,0.0,0.0,0.0,0.0,0.0,0.0,0.0,0.0,0.0,0.0,0.0,0.0,0.0,0.0,0.0,0.0,0.0,0.0,0.0,0.0,0.0,0.0,0.0,0.0,0.0,0.0,0.0,0.0,0.0,0.0,0.0,0.0,0.0,0.0,0.0,0.0,0.0,0.0,0.0,0.0,0.0,0.0,0.0,0.0,0.0,0.0,0.0,0.0,0.0,0.0,0.0,0.0,0.0,0.0,0.0,0.0,0.0,0.0,0.0,0.0,0.0,0.0,0.0,0.0,0.0,0.0,0.0,0.0,0.0,0.0,0.0,0.0,0.0,0.0,0.0,0.0,0.0,0.0,0.0,0.0,0.0,0.0,0.0,0.0,0.0,0.0,0.0,0.0,0.0,0.0,0.0,0.0,0.0,0.0,0.0,0.0,0.0,0.0,0.0,0.0,0.0,0.0,0.0,0.0,0.0,0.0,0.0,0.0,0.0,0.0,0.0,0.0,0.0,0.0,0.0,0.0,0.0,0.0,0.0,0.0,0.0,0.0,0.0,0.0,0.0,0.0,0.0,0.0,0.0,0.0,0.0,0.0,0.0,0.0,0.0,0.0,0.0,0.0,0.0,0.0,0.0,0.0,0.0,0.0,0.0,0.0,0.0,0.0,0.0,0.0,0.0,0.0,0.0,0.0,0.0,0.0,0.0,0.0,0.0,0.0,0.0,0.0,0.0,0.0,0.0,0.0,0.0,0.0,0.0,0.0,0.0,0.0,0.0,0.0,0.0,0.0,0.0,0.0,0.0,0.0,0.0,0.0,0.0,0.0,0.0,0.0,0.0,0.0,0.0,0.0,0.0,0.0,0.0,0.0,0.0,0.0,0.0,0.0,0.0,0.0,0.0,0.0,0.0,0.0,0.0,0.0,0.0,0.0,0.0,0.0,0.0,0.0,0.0,0.0,0.0,0.0,0.0,0.0,0.0,0.0,0.0,0.0,0.0,0.0,0.0,0.0,0.0,0.0,0.0,0.0,0.0,0.0,0.0,0.0,0.0,0.0,0.0,0.0,0.0,0.0,0.0,0.0,0.0,0.0,0.0,0.0,0.0,0.0,0.0,0.0,0.0,0.0,0.0,0.0,0.0,0.0,0.0,0.0,0.0,0.0,0.0,0.0,0.0,0.0,0.0,0.0,0.0,0.0,0.0,0.0,0.0,0.0,0.0,0.0,0.0,0.0,0.0,0.0,0.0,0.0,0.0,0.0,0.0,0.0,0.0,0.0,0.0,0.0,0.0,0.0,0.0,0.0,0.0,0.0,0.0,0.0,0.0,0.0,0.0,0.0,0.0,0.0,0.0,0.0,0.0,0.0,0.0,0.0,0.0,0.0,0.0,0.0,0.0,0.0,0.0,0.0,0.0,0.0,0.0,0.0,0.0,0.0,0.0,0.0,0.0,0.0,0.0,0.0,0.0,0.0,0.0,0.0,0.0,0.0,0.0,0.0,0.0,0.0,0.0,0.0,0.0,0.0,0.0,0.0,0.0,0.0,0.0,0.0,0.0,0.0,0.0,0.0,0.0,0.0,0.0,0.0,0.0,0.0,0.0,0.0,0.0,0.0,0.0,0.0,0.0,0.0,0.0,0.0,0.0,0.0,0.0,0.0,0.0,0.0,0.0,0.0,0.0,0.0,0.0,0.0,0.0,0.0,0.0,0.0,0.0,0.0,0.0,0.0,0.0,0.0,0.0,0.0,0.0,-5.6284,-5.6003,0.0,0.0,0.0,0.0,0.0,0.0,0.0,0.0,0.0,0.0,0.0,0.0,0.0,0.0,0.0,0.0,0.0,0.0,0.0,0.0,0.0,0.0,0.0,-2.946,-3.0086,-3.0086,-3.1048,-3.1673,-3.1673,-3.1673,-3.1761,-3.1849,-3.1937,-3.2025,-3.2225,-3.2463,-3.2636,-3.2723,-3.281,-3.2982,-3.3068,-3.3326,-3.3403,-3.3457,0.0,0.0,0.0,0.0,0.0,0.0,0.0,0.0,0.0,0.0,0.0,0.0,0.0,0.0,0.0,0.0,0.0,0.0,0.0,0.0,0.0,0.0,0.0,0.0,0.0,0.0,0.0,0.0,0.0,0.0,0.0,0.0,0.0,0.0,0.0,0.0,0.0,0.0,0.0,0.0,0.0,0.0,0.0,0.0,0.0,0.0,0.0,0.0,0.0,0.0,0.0,0.0,0.0,0.0,0.0,0.0,0.0,0.0,0.0,0.0,0.0,0.0,0.0,0.0,0.0,0.0,0.0,0.0,0.0,0.0,-5.787,-5.7203,0.0,0.0,0.0,0.0,0.0,0.0,0.0,0.0,0.0,0.0,0.0,0.0,0.0,0.0,0.0,0.0,0.0,0.0,0.0,0.0,0.0,-2.8522,-2.8522,-2.946,-3.0086,-3.0086,-3.1048,-3.1673,-3.1673,-3.1673,-3.1673,-3.1673,-3.1849,-3.1937,-3.1937,-3.2225,-3.2376,-3.255,-3.2636,-3.281,-3.3068,-3.324,-3.3471,-3.3641,-3.3979,0.0,0.0,0.0,0.0,0.0,0.0,0.0,0.0,0.0,0.0,0.0,0.0,0.0,0.0,0.0,0.0,0.0,0.0,0.0,0.0,0.0,0.0,0.0,0.0,0.0,0.0,0.0,0.0,0.0,0.0,0.0,0.0,0.0,0.0,0.0,0.0,0.0,0.0,0.0,0.0,0.0,0.0,0.0,0.0,0.0,0.0,0.0,0.0,0.0,0.0,0.0,0.0,0.0,0.0,0.0,0.0,0.0,0.0,0.0,0.0,0.0,0.0,0.0,-6.1576,-6.1883,-6.2132,-6.1723,-6.1696,-6.1862,-5.9622,-5.8463,-5.8256,-5.8484,0.0,0.0,0.0,0.0,0.0,0.0,0.0,0.0,0.0,0.0,0.0,0.0,0.0,0.0,0.0,0.0,0.0,0.0,0.0,-2.8522,-2.8522,-2.946,-3.0086,-3.0086,-3.1048,-3.1673,-3.1673,-3.1673,-3.1673,-3.1673,-3.1761,-3.1761,-3.1761,-3.1937,-3.2025,-3.2113,-3.2463,-3.281,-3.3068,-3.3154,-3.324,-3.3471,-3.3894,-3.4204,-3.4293,0.0,0.0,0.0,0.0,0.0,0.0,0.0,0.0,0.0,0.0,0.0,0.0,0.0,0.0,0.0,0.0,0.0,0.0,0.0,0.0,0.0,0.0,0.0,0.0,0.0,0.0,0.0,0.0,0.0,0.0,0.0,0.0,0.0,0.0,0.0,0.0,0.0,0.0,0.0,0.0,0.0,-5.3315,-5.4296,0.0,0.0,0.0,0.0,0.0,0.0,0.0,0.0,0.0,0.0,0.0,0.0,0.0,-6.0674,-6.0774,-6.1199,-6.1531,-6.1808,-6.2102,-6.234,-6.2597,-6.2758,-6.2964,-6.3161,-6.2909,0.0,-5.9495,-5.9648,0.0,0.0,0.0,0.0,0.0,0.0,0.0,0.0,0.0,0.0,0.0,0.0,0.0,0.0,0.0,0.0,0.0,0.0,0.0,0.0,0.0,-2.9629,-3.0206,-3.0494,-3.1216,-3.1673,-3.1673,-3.1673,-3.1673,-3.1673,-3.1673,-3.1673,-3.1673,-3.1761,-3.1995,-3.2487,-3.3227,-3.3643,-3.382,-3.3909,-3.4086,-3.435,-3.4525,-3.4513,-3.423,-3.4673,0.0,0.0,0.0,0.0,0.0,0.0,0.0,0.0,0.0,0.0,0.0,0.0,0.0,0.0,0.0,0.0,0.0,0.0,0.0,0.0,0.0,0.0,0.0,0.0,0.0,0.0,0.0,0.0,0.0,0.0,0.0,0.0,0.0,0.0,0.0,0.0,0.0,0.0,0.0,-5.2977,-5.4568,-5.5821,-5.6529,-5.73,0.0,0.0,0.0,0.0,0.0,0.0,0.0,0.0,0.0,-6.1789,-6.2271,-6.2625,-6.2757,-6.3041,-6.3352,-6.3713,-6.3878,-6.4131,-6.4419,-6.4166,-6.4161,-6.4329,-6.3934,-6.3185,-6.2121,-6.1662,-6.0761,-5.9666,0.0,0.0,0.0,0.0,-5.8272,-5.7851,0.0,0.0,0.0,0.0,0.0,0.0,0.0,0.0,0.0,0.0,0.0,0.0,-2.9244,-2.9773,-3.0302,-3.0831,-3.136,-3.1673,-3.1673,-3.1673,-3.1673,-3.1673,-3.1793,-3.1865,-3.1865,-3.201,-3.2364,-3.3047,-3.3777,-3.4247,-3.4338,-3.4545,-3.4816,-3.4996,-3.5111,-3.4893,-3.4529,-3.4868,-3.5042,-3.5077,0.0,0.0,0.0,0.0,0.0,0.0,0.0,0.0,0.0,0.0,0.0,0.0,0.0,0.0,0.0,0.0,0.0,0.0,0.0,0.0,0.0,0.0,0.0,0.0,0.0,0.0,0.0,0.0,0.0,0.0,0.0,0.0,0.0,0.0,0.0,0.0,0.0,-5.4805,-5.5894,-5.7109,-5.7751,-5.8561,0.0,0.0,0.0,0.0,0.0,0.0,-6.3137,-6.3492,-6.3822,-6.4012,-6.4426,-6.4766,-6.497,-6.52,-6.549,-6.5862,-6.6009,-6.6123,-6.6189,-6.5715,-6.5489,-6.5436,-6.4842,-6.4558,-6.4382,-6.3464,-6.224,-6.101,-6.0971,-6.0362,-5.9414,-5.941,-5.929,-5.9012,0.0,0.0,0.0,0.0,0.0,0.0,0.0,0.0,0.0,0.0,0.0,-2.8715,-2.9244,-2.9773,-3.0302,-3.0831,-3.136,-3.1673,-3.1673,-3.1673,-3.1673,-3.1673,-3.2178,-3.2466,-3.2466,-3.2947,-3.3305,-3.3582,-3.3906,-3.4089,-3.4338,-3.4545,-3.4726,-3.4726,-3.5021,-3.5328,-3.5745,-3.5719,-3.567,-3.5574,-3.5827,0.0,0.0,0.0,0.0,0.0,0.0,0.0,0.0,0.0,0.0,0.0,0.0,0.0,0.0,0.0,0.0,0.0,0.0,0.0,0.0,0.0,0.0,0.0,0.0,0.0,0.0,0.0,0.0,0.0,0.0,0.0,0.0,0.0,0.0,0.0,0.0,0.0,0.0,-5.8233,-5.9984,0.0,0.0,0.0,0.0,-6.4194,-6.4494,-6.4819,-6.5198,-6.5533,-6.5821,-6.6231,-6.6575,-6.6898,-6.7162,-6.7341,-6.761,-6.7947,-6.8087,-6.787,-6.7325,-6.7406,-6.7121,-6.653,-6.6478,-6.6078,-6.5379,-6.4489,-6.3623,-6.2872,-6.2876,-6.1834,-6.0346,-6.0339,-5.9801,-5.9084,0.0,0.0,0.0,0.0,0.0,0.0,0.0,0.0,-2.732,-2.8378,-2.8522,-2.8835,-2.9701,-2.9989,-3.0422,-3.1312,-3.1553,-3.1673,-3.1673,-3.1673,-3.1817,-3.2178,-3.2394,-3.2659,-3.2996,-3.3501,-3.3765,-3.3859,-3.4481,-3.4936,-3.5125,-3.5407,-3.5594,-3.578,-3.5873,-3.6151,-3.6376,-3.5929,-3.5869,-3.5982,-3.6181,-3.622,0.0,0.0,0.0,0.0,0.0,0.0,0.0,0.0,0.0,0.0,0.0,0.0,0.0,0.0,0.0,0.0,0.0,0.0,0.0,0.0,0.0,0.0,0.0,0.0,0.0,0.0,0.0,0.0,0.0,0.0,0.0,0.0,0.0,0.0,0.0,0.0,0.0,-6.0159,-6.1465,0.0,-6.2923,-6.3693,-6.4303,-6.4639,-6.4981,-6.5396,-6.579,-6.6118,-6.6469,-6.6725,-6.7089,-6.7387,-6.7635,-6.7827,-6.8071,-6.8359,-6.8497,-6.8485,-6.8431,-6.8583,-6.8514,-6.8331,-6.7812,-6.7409,-6.7093,-6.6244,-6.5038,-6.3789,-6.3788,-6.3068,-6.2011,-6.2024,-6.1456,-6.0629,0.0,0.0,0.0,0.0,0.0,0.0,0.0,-2.7306,-2.7512,-2.8402,-2.8522,-2.8907,-2.9965,-3.0086,-3.0518,-3.1577,-3.1673,-3.1673,-3.1673,-3.1841,-3.2106,-3.2491,-3.2827,-3.326,-3.3789,-3.4126,-3.4318,-3.4318,-3.4848,-3.5332,-3.562,-3.5908,-3.6098,-3.6358,-3.6358,-3.6546,-3.6658,-3.6314,-3.6148,-3.6322,-3.6586,-3.6656,-3.6532,0.0,0.0,0.0,0.0,0.0,0.0,0.0,0.0,0.0,0.0,0.0,0.0,0.0,0.0,0.0,0.0,0.0,0.0,0.0,0.0,0.0,0.0,0.0,0.0,0.0,0.0,0.0,0.0,0.0,0.0,0.0,0.0,0.0,0.0,-5.9323,-6.0526,-6.1647,-6.2775,-6.3582,-6.4015,-6.4838,-6.5476,-6.5769,-6.6412,-6.7012,-6.7384,-6.7747,-6.8048,-6.8294,-6.8411,-6.8541,-6.8738,-6.8944,-6.9232,-6.9494,-6.9572,-6.9613,-6.9531,-6.963,-6.9546,-6.9284,-6.8786,-6.8547,-6.8476,-6.7601,-6.6527,-6.5434,-6.4833,-6.406,-6.331,-6.3302,-6.2747,-6.187,0.0,0.0,0.0,0.0,0.0,0.0,-2.7434,-2.7597,-2.7921,-2.845,-2.8522,-2.8931,-2.9965,-3.011,-3.0518,-3.1577,-3.1673,-3.1673,-3.1673,-3.2178,-3.2515,-3.2539,-3.3525,-3.4318,-3.4823,-3.4823,-3.4823,-3.4823,-3.5042,-3.5356,-3.5645,-3.5861,-3.6148,-3.6408,-3.6408,-3.6597,-3.676,-3.676,-3.6734,-3.6677,-3.7101,-3.7052,-3.6524,0.0,0.0,0.0,0.0,0.0,0.0,0.0,0.0,0.0,0.0,0.0,0.0,0.0,0.0,0.0,0.0,0.0,0.0,0.0,0.0,0.0,0.0,0.0,0.0,0.0,0.0,0.0,0.0,0.0,0.0,0.0,0.0,0.0,-5.9938,-6.119,-6.229,-6.2722,-6.391,-6.4911,-6.5357,-6.6547,-6.7395,-6.776,-6.8985,-6.9878,-7.0116,-7.048,-7.0784,-7.1142,-7.0642,-7.0495,-7.0669,-7.0937,-7.1193,-7.1415,-7.1493,-7.1163,-7.0563,-7.0602,-7.0229,-6.9472,-6.9442,-6.9453,-6.9386,-6.8496,-6.8093,-6.7842,-6.6127,-6.4919,-6.413,-6.4148,-6.357,-6.269,0.0,0.0,0.0,0.0,0.0,0.0,-2.7434,-2.7748,-2.8053,-2.8426,-2.8835,-2.934,-3.0013,-3.0422,-3.0927,-3.1601,-3.1673,-3.1673,-3.1673,-3.2178,-3.2827,-3.3597,-3.4246,-3.4679,-3.4823,-3.4823,-3.4823,-3.4823,-3.5208,-3.5598,-3.5917,-3.6604,-3.6998,-3.7294,-3.7465,-3.7563,-3.766,-3.7855,-3.7718,-3.7373,-3.7428,-3.7443,-3.7468,0.0,0.0,0.0,0.0,0.0,0.0,0.0,0.0,0.0,0.0,0.0,0.0,0.0,0.0,0.0,0.0,0.0,0.0,0.0,0.0,0.0,0.0,0.0,0.0,0.0,0.0,0.0,0.0,0.0,0.0,0.0,-5.9851,-6.1126,-6.094,-6.2127,-6.3231,-6.386,-6.5419,-6.6684,-6.7234,-6.8335,-6.9265,-6.97,-7.0337,-7.0843,-7.1254,-7.1605,-7.1897,-7.2167,-7.2329,-7.2502,-7.2696,-7.2327,-7.2242,-7.2424,-7.1886,-7.1587,-7.1446,-7.1575,-7.1494,-7.1236,-7.0624,-7.0331,-7.0284,-6.9341,-6.8593,-6.7881,-6.679,-6.5795,-6.4971,-6.4959,-6.4001,-6.2692,0.0,0.0,0.0,0.0,0.0,0.0,-2.7459,-2.802,-2.8373,-2.8474,-2.8979,-2.9508,-3.0037,-3.0567,-3.1096,-3.1625,-3.1673,-3.1769,-3.201,-3.2731,-3.3501,-3.4342,-3.4655,-3.4823,-3.4823,-3.504,-3.516,-3.516,-3.5689,-3.6054,-3.6354,-3.6971,-3.7343,-3.7643,-3.7916,-3.8015,-3.8015,-3.8212,-3.8133,-3.7901,-3.7859,-3.7852,-3.7756,-3.7599,-3.7558,-3.7479,-3.714,-3.7016,-3.6989,-3.701,0.0,0.0,0.0,0.0,0.0,0.0,0.0,0.0,0.0,0.0,0.0,0.0,0.0,0.0,0.0,0.0,0.0,0.0,0.0,0.0,0.0,0.0,0.0,0.0,-6.1113,-6.2467,-6.281,-6.3764,-6.4667,-6.5267,-6.6853,-6.8084,-6.8512,-6.9441,-7.0147,-7.0576,-7.1281,-7.194,-7.2341,-7.2687,-7.3004,-7.3263,-7.3291,-7.337,-7.3523,-7.3319,-7.3278,-7.3401,-7.2662,-7.2315,-7.2384,-7.2112,-7.201,-7.1952,-7.1467,-7.1228,-7.1096,-7.0201,-6.9496,-6.8876,0.0,0.0,0.0,0.0,-6.4566,-6.3658,0.0,0.0,0.0,0.0,0.0,0.0,-2.7606,-2.8313,-2.8736,-2.8498,-2.9027,-2.9556,-3.0037,-3.0615,-3.1144,-3.1625,-3.1673,-3.1937,-3.2539,-3.3501,-3.427,-3.4799,-3.4823,-3.4847,-3.4919,-3.5376,-3.5641,-3.5713,-3.6242,-3.6584,-3.6812,-3.7189,-3.7516,-3.7717,-3.7992,-3.8191,-3.8191,-3.8191,-3.8265,-3.8412,-3.851,-3.8165,-3.7686,-3.7912,-3.8004,-3.7926,-3.7479,-3.7358,-3.7368,-3.7016,0.0,0.0,0.0,0.0,0.0,0.0,0.0,0.0,0.0,0.0,0.0,0.0,0.0,0.0,0.0,0.0,0.0,0.0,0.0,0.0,0.0,0.0,0.0,0.0,-6.2208,-6.3604,-6.4927,-6.572,-6.632,-6.679,-6.8155,-6.9188,-6.9586,-7.0181,-7.0713,-7.1028,-7.2197,-7.3033,-7.3425,-7.3799,0.0,0.0,0.0,-7.3779,-7.3934,-7.4087,-7.4261,-7.4456,-7.3613,-7.323,-7.3179,-7.2479,-7.2109,-7.1981,-7.1976,-7.1915,-7.1739,-7.0948,-7.0538,-7.0207,-6.8458,-6.7277,-6.6415,-6.5558,-6.5174,-6.4981,0.0,0.0,0.0,0.0,0.0,0.0,-2.8098,-2.8635,-2.8895,-2.8578,-2.934,-2.9965,-3.0086,-3.0927,-3.1553,-3.1649,-3.1673,-3.2082,-3.3068,-3.3693,-3.427,-3.4799,-3.4823,-3.5016,-3.5449,-3.5569,-3.5833,-3.6266,-3.6771,-3.7036,-3.7163,-3.7806,-3.8313,-3.8521,-3.8935,-3.9166,-3.9371,-3.9371,-3.912,-3.8793,-3.8994,-3.8983,-3.8825,-3.8359,-3.8366,-3.8475,-3.7926,-3.7808,-3.7808,-3.7923,-3.796,-3.796,-3.8256,-3.8434,0.0,0.0,0.0,0.0,0.0,0.0,0.0,0.0,0.0,0.0,0.0,0.0,0.0,0.0,0.0,0.0,0.0,0.0,0.0,-6.1307,-6.2876,-6.4282,-6.5497,-6.6869,-6.7764,-6.7812,-6.9045,-7.0118,-7.0719,-7.1671,-7.2465,-7.2992,-7.349,-7.398,-7.4422,-7.4673,-7.5051,-7.5398,-7.5582,-7.5735,-7.5929,-7.5391,-7.5238,-7.5417,-7.4572,0.0,-7.3192,-7.3083,-7.265,-7.2008,-7.1945,-7.1866,-7.1778,-7.1576,-7.1023,-7.0166,-6.8419,-6.7182,-6.6411,-6.6239,-6.5678,-6.5097,0.0,0.0,0.0,0.0,0.0,0.0,-2.8246,-2.8786,-2.8973,-2.8578,-2.9436,-3.0086,-3.0086,-3.1023,-3.1673,-3.1673,-3.2154,-3.2707,-3.326,-3.4006,-3.4559,-3.4823,-3.4823,-3.5064,-3.5617,-3.5881,-3.6266,-3.6795,-3.7324,-3.7589,-3.7589,-3.817,-3.8526,-3.8841,-3.9154,-3.9465,-3.9697,-3.9697,-3.9546,-3.927,-3.9372,-3.95,-3.9543,-3.882,-3.8678,-3.8886,-3.834,-3.8225,-3.8266,-3.807,-3.8057,-3.8057,-3.8304,-3.8789,-3.9184,0.0,0.0,0.0,0.0,0.0,0.0,0.0,0.0,0.0,0.0,0.0,0.0,0.0,0.0,-5.5153,-5.7013,0.0,-6.0804,-6.2029,-6.3802,-6.5402,-6.6401,-6.781,-6.8716,-6.8699,-6.9901,-7.1039,-7.1582,-7.2372,-7.3124,-7.3591,-7.3934,-7.435,-7.4857,-7.5095,-7.5386,-7.5756,-7.609,-7.6311,-7.6496,-7.6221,-7.6193,-7.6337,-7.5513,-7.4662,-7.3905,-7.3468,-7.2807,-7.1971,-7.1877,-7.1806,-7.1719,-7.1684,-7.1081,-7.0098,-6.9245,-6.8103,-6.6921,-6.6477,-6.6032,-6.5644,0.0,0.0,0.0,0.0,0.0,0.0,-2.8393,-2.8758,-2.8895,-2.8578,-2.9436,-3.0086,-3.0086,-3.1023,-3.1673,-3.1673,-3.2659,-3.3284,-3.3191,-3.415,-3.4726,-3.4628,-3.4726,-3.5014,-3.5661,-3.6194,-3.6723,-3.7348,-3.7781,-3.7974,-3.7974,-3.8185,-3.8526,-3.8736,-3.905,-3.9362,-3.9594,-3.9697,-3.9697,-3.9697,-3.9697,-3.9775,-3.9982,-3.9193,-3.9082,-3.9194,-3.8626,-3.861,-3.8721,-3.837,-3.824,-3.824,-3.8372,-3.8965,-3.9641,-3.9826,-4.0453,0.0,0.0,0.0,0.0,0.0,0.0,0.0,0.0,-4.9371,-5.1152,-5.2549,-5.422,-5.6049,-5.8061,-5.9707,-6.1348,-6.2883,-6.4802,-6.6348,-6.7307,-6.8653,-6.9598,-6.9732,-7.093,-7.1972,-7.2665,-7.324,-7.3729,-7.4188,-7.4573,-7.4984,-7.5245,-7.5547,-7.5748,-7.5879,-7.616,-7.6405,-7.6575,-7.6715,-7.691,-7.7011,-7.634,-7.5629,-7.4805,-7.3939,-7.3016,-7.214,-7.1895,-7.1758,-7.1675,-7.1603,-7.1106,-7.033,-7.0176,-6.9149,-6.7716,-6.6786,-6.634,-6.6185,0.0,0.0,0.0,0.0,0.0,0.0,0.0,0.0,-2.8736,-2.8498,-2.9436,-3.0086,-3.0086,-3.1023,-3.1673,-3.1673,-3.2659,-3.3191,-3.3005,-3.3862,-3.4359,-3.4162,-3.4335,-3.4885,-3.5884,-3.6261,-3.6892,-3.7902,-3.795,-3.7974,-3.7974,-3.7974,-3.821,-3.8421,-3.8736,-3.905,-3.9362,-3.9594,-3.9697,-3.9697,-3.9697,-3.9697,-3.9775,-3.9649,-3.9601,-3.9565,-3.9194,-3.911,-3.918,-3.9346,-3.9416,-3.9416,-3.9416,-3.9633,-3.9944,-4.0133,-4.0469,-4.0911,-4.1761,-4.304,-4.4442,-4.5289,-4.6301,-4.731,0.0,-5.0105,-5.157,-5.2948,-5.5038,-5.7109,-5.8684,-6.0193,-6.2015,-6.4095,-6.5312,-6.6472,-6.7798,-6.938,-7.0585,-7.1265,-7.2083,-7.3088,-7.4432,-7.5031,-7.5527,-7.6057,-7.6442,-7.6544,-7.6274,-7.6529,-7.6548,-7.6184,-7.6374,-7.6573,-7.6777,-7.6855,-7.6936,-7.7092,-7.6995,-7.6519,-7.5625,-7.4764,-7.3852,-7.291,-7.2095,-7.1669,-7.1624,-7.1532,-7.1436,-7.1182,-7.0367,-6.9456,-6.8545,-6.7694,-6.6843,-6.6185,0.0,0.0,0.0,0.0,0.0,0.0,0.0,0.0,-2.8736,-2.8498,-2.9436,-3.0086,-3.0086,-3.1023,-3.1673,-3.1673,-3.2568,-3.3005,-3.2911,-3.3693,-3.4162,-3.4064,-3.4162,-3.4733,-3.5955,-3.6105,-3.6812,-3.7974,-3.7974,-3.7974,-3.7974,-3.7974,-3.808,-3.8421,-3.8526,-3.8841,-3.9258,-3.9362,-3.9594,-3.9697,-3.9697,-3.9697,-3.9697,-3.9697,-3.9649,-3.9677,-3.9293,-3.9385,0.0,-3.9414,-3.9503,-3.9599,-3.9599,-4.0,-4.0456,-4.0744,-4.1271,-4.1989,-4.2997,-4.4151,-4.5302,-4.5858,-4.6792,-4.7903,-4.931,-5.0626,-5.2162,-5.4104,-5.569,-5.7273,-5.9083,-6.076,-6.2464,-6.4221,-6.5614,-6.6991,-6.8555,-6.9799,-7.1078,-7.2798,-7.3668,-7.4288,-7.4859,-7.5402,-7.5947,-7.6504,-7.6881,-7.7126,-7.7227,-7.702,-7.6924,-7.6905,-7.6653,-7.6594,-7.6786,-7.691,-7.7011,-7.7112,-7.7091,-7.6639,-7.5785,-7.4882,-7.369,-7.225,-7.1831,-7.162,-7.1552,-7.1475,-7.1415,-7.1296,-7.0926,-6.9938,-6.87,-6.781,-6.6959,-6.6185,0.0,0.0,0.0,0.0,0.0,0.0,0.0,0.0,0.0,0.0,-2.9436,-3.0206,-3.0494,-3.1216,-3.1584,-3.1584,-3.2293,-3.2794,-3.27,-3.3499,-3.3988,-3.3866,-3.3965,-3.4534,-3.5774,-3.59,-3.6606,-3.7892,-3.7998,-3.7974,-3.7974,-3.7974,-3.808,-3.8291,-3.8421,-3.8631,-3.905,-3.9258,-3.9362,-3.9594,-3.9697,-3.9697,-3.9697,-3.9697,-3.9697,-3.9647,-3.9525,-3.9776,-4.0124,-3.9809,-3.9875,-4.0069,-4.0069,-4.0455,-4.0992,-4.1258,-4.1977,-4.2986,-4.4201,-4.5101,-4.5841,-4.6209,-4.7391,-4.8821,-4.9843,-5.1258,-5.2897,-5.4764,-5.6118,-5.759,-5.9536,-6.1262,-6.2885,-6.4377,-6.6014,-6.7622,-6.8957,-7.0279,-7.1819,-7.3761,-7.4857,-7.5451,-7.5555,-7.6124,-7.667,-7.7265,-7.7651,-7.8011,-7.8179,-7.7624,-7.737,-7.7447,-7.6837,-7.6612,-7.683,-7.6936,-7.7043,-7.7082,-7.7103,-7.6785,-7.6106,-7.4987,-7.3442,-7.1704,-7.163,-7.1568,-7.1494,-7.1435,-7.1334,-7.1291,-7.1291,-7.0286,-6.8738,-6.8081,-6.7152,-6.6185,0.0,0.0,0.0,0.0,0.0,0.0,0.0,0.0,0.0,0.0,-2.9436,-3.047,-3.1504,-3.1472,-3.1294,-3.1294,-3.2085,-3.2394,-3.2111,-3.3087,-3.3592,-3.3392,-3.3568,-3.4156,-3.5235,-3.5671,-3.6526,-3.7596,-3.7892,-3.7974,-3.7974,-3.7974,-3.7974,-3.7974,-3.8315,-3.8421,-3.8526,-3.905,-3.9258,-3.9362,-3.9594,-3.9697,-3.9697,-3.9697,-3.9697,-3.9697,-3.9955,-4.0262,-4.0465,-4.0743,-4.1045,-4.1272,-4.1272,-4.1272,-4.1398,-4.1571,-4.2492,-4.3579,-4.4802,-4.5706,-4.6477,-4.6679,-4.828,-4.9925,-5.0169,-5.2059,-5.3933,-5.4488,-5.65,-5.8615,-6.0043,-6.1722,-6.3453,-6.5081,-6.6785,-6.82,-6.9026,-7.122,-7.3053,-7.3904,-7.5361,-7.6505,-7.7169,-7.7789,-7.8346,-7.8991,-7.9479,-7.9537,-7.917,-7.8711,-7.8171,-7.7611,-7.6961,-7.6704,-7.691,-7.6975,-7.7051,-7.7103,-7.7108,-7.7097,-7.6981,-7.514,-7.3354,-7.1704,-7.162,-7.1571,-7.1494,-7.1435,-7.1334,-7.1291,-7.1291,-7.0286,-6.8816,-6.8777,-6.7655,-6.6185,0.0,0.0,0.0,0.0,0.0,0.0,0.0,0.0,0.0,0.0,0.0,0.0,0.0,0.0,0.0,0.0,-3.1808,-3.2206,-3.2111,-3.2892,-3.3392,-3.3292,-3.3392,-3.3954,-3.5132,-3.5385,-3.6213,-3.7596,-3.7702,-3.7785,-3.7974,-3.7974,-3.7974,-3.7974,-3.808,-3.8185,-3.8421,-3.8631,-3.8945,-3.9258,-3.9362,-3.9594,-3.9697,-3.9697,-3.9697,-3.9697,0.0,-3.9981,-4.0287,-4.0491,-4.0795,-4.1097,-4.1198,-4.1559,-4.2053,-4.2827,-4.3766,-4.4684,-4.5234,-4.6236,-4.7094,-4.7612,-4.8826,-5.0182,-5.1292,-5.253,-5.403,-5.5631,-5.6946,-5.8607,-6.0706,-6.2043,-6.3486,-6.5114,-6.6819,-6.8404,-6.9796,-7.1647,-7.3264,-7.4617,-7.5685,-7.6607,-7.7389,-7.792,-7.8421,-7.9029,-7.9517,-7.9882,-8.0048,-7.9056,-7.8479,-7.8462,-7.7292,-7.6754,-7.6897,-7.6994,-7.7089,-7.7108,-7.7087,-7.6489,-7.5269,-7.4587,-7.3352,-7.1675,-7.1586,-7.1513,-7.1494,-7.1394,-7.1313,-7.1291,-7.1291,-7.0286,-6.8816,-6.8816,-6.7694,-6.6185,0.0,0.0,0.0,0.0,0.0,0.0,0.0,0.0,0.0,0.0,0.0,0.0,0.0,0.0,0.0,0.0,0.0,-3.2016,-3.1921,-3.2817,-3.3292,-3.3292,-3.3292,-3.3853,-3.5051,-3.5178,-3.5876,-3.7251,-3.7489,-3.7702,-3.7892,-3.7998,-3.7974,-3.7974,-3.7974,-3.808,-3.8291,-3.8421,-3.8631,-3.905,-3.9258,-3.9362,-3.9594,-3.9697,-3.9697,0.0,-3.9697,-3.98,-3.9981,-4.0389,-4.0848,-4.1308,-4.1511,-4.2004,-4.2682,-4.3751,-4.4514,-4.5123,-4.5998,-4.6796,-4.7653,-4.8365,-4.9434,-5.0531,-5.1747,-5.282,-5.4141,-5.6029,-5.7364,-5.8851,-6.1053,-6.2427,-6.3779,-6.5147,-6.7054,-6.8812,-7.0175,-7.2031,-7.3687,-7.4935,-7.5829,-7.6636,-7.7413,-7.8034,-7.8581,-7.9177,-7.9652,-8.0119,-8.0542,-7.9307,-7.8679,-7.8959,-7.7525,-7.6801,-7.6933,-7.7024,-7.7117,-7.7094,-7.6763,-7.5845,-7.4382,-7.4016,-7.3066,-7.1699,-7.155,-7.1494,-7.1475,-7.1373,-7.1291,-7.1291,-7.1291,-7.0286,-6.8816,-6.8816,-6.7715,-6.6225,0.0,0.0,0.0,0.0,0.0,0.0,0.0,0.0,0.0,0.0,0.0,0.0,0.0,0.0,0.0,0.0,0.0,0.0,-3.1731,-3.2673,-3.3247,-3.3292,-3.3292,-3.3752,-3.4785,-3.5074,-3.5666,-3.6712,-3.7274,-3.7596,-3.7596,-3.7892,-3.7974,-3.7974,-3.7974,-3.7974,-3.7974,-3.8315,-3.8421,-3.8421,-3.905,-3.9258,-3.9362,-3.9594,-3.9697,-3.9697,-3.9697,-3.9722,-3.9825,-4.0338,-4.1132,-4.1931,-4.2136,-4.2631,-4.3284,-4.4361,-4.4756,-4.5128,-4.6919,-4.7591,-4.8075,-4.8893,-5.0011,-5.1101,-5.1632,-5.2827,-5.4303,-5.5974,-5.7598,-5.9346,-6.1148,-6.278,-6.4175,-6.5213,-6.7456,-6.939,-7.0278,-7.237,-7.4216,-7.4971,-7.5931,-7.6728,-7.7413,-7.8257,-7.8891,-7.934,-7.9832,-8.0278,-8.0681,-7.946,-7.8812,-7.9072,-7.7615,-7.6871,-7.7004,-7.7082,-7.71,-7.7082,-7.6223,-7.5299,-7.435,-7.3419,-7.2507,-7.1684,-7.155,-7.1494,-7.1475,-7.1373,-7.1291,-7.1291,-7.1291,-7.0286,-6.8816,-6.8816,-6.7735,-6.6303,0.0,0.0,0.0,0.0,0.0,0.0,0.0,0.0,0.0,0.0,0.0,0.0,0.0,0.0,0.0,0.0,0.0,0.0,-3.1731,-3.2351,-3.2879,-3.3269,-3.3292,-3.3752,-3.4785,-3.4889,-3.5478,-3.6712,-3.7036,-3.7358,-3.7596,-3.7892,-3.7974,-3.7974,-3.7974,-3.7974,-3.7974,-3.808,-3.821,-3.8421,-3.8526,-3.8945,-3.9258,-3.9362,-3.949,-3.9697,-3.9697,-3.9948,-4.03,-4.0692,-4.1516,-4.2475,-4.3205,-4.3546,-4.3887,-4.4784,-4.5581,-4.6196,-4.6813,-4.7757,-4.8706,-4.9499,-5.0317,-5.1214,-5.2202,-5.3174,-5.445,-5.6541,-5.7932,-5.9501,-6.168,-6.3132,-6.4175,-6.5213,-6.7456,-6.939,-7.0278,-7.237,-7.4216,-7.4971,-7.5931,-7.6793,-7.7592,-7.8329,-7.9041,-7.9652,-7.9954,-8.0278,-8.0681,-7.946,-7.8812,-7.9072,-7.7615,-7.6858,-7.7011,-7.7073,-7.7106,-7.7082,-7.6223,-7.5299,-7.4314,-7.3419,-7.2492,-7.1614,-7.155,-7.1494,-7.1475,-7.1373,-7.1291,-7.1291,-7.1291,-7.0286,-6.8816,-6.8819,-6.7716,-6.6322,0.0,0.0,0.0,0.0,0.0,0.0,0.0,0.0,0.0,0.0,0.0,0.0,0.0,0.0,0.0,0.0,0.0,0.0,0.0,-3.2213,-3.2718,-3.3269,-3.3292,-3.366,-3.444,-3.467,-3.5281,-3.6148,-3.6703,-3.7036,-3.7382,-3.7679,-3.7892,-3.7974,-3.7974,-3.7974,-3.7974,-3.7974,-3.808,0.0,0.0,-3.8631,-3.8945,-3.905,-3.9258,-3.9515,-3.974,-4.0445,-4.1229,-4.1549,-4.2179,-4.307,-4.3854,-4.4144,-4.4463,-4.5283,-4.5896,-4.6485,-4.743,-4.8136,-4.8982,-5.0133,-5.0628,-5.1257,-5.238,-5.3415,-5.4726,-5.6601,-5.8061,-5.9703,-6.1796,-6.3068,-6.4081,-6.5213,-6.7456,-6.939,-7.0278,-7.237,-7.4216,-7.4971,-7.6,-7.6856,-7.7651,-7.8437,-7.9188,-7.974,-8.0078,-8.043,-8.0817,-7.9509,-7.8912,-7.9155,-7.7641,-7.6894,-7.705,-7.7064,-7.7097,-7.7073,-7.5833,-7.4889,-7.4236,-7.3016,-7.2142,-7.1598,-7.1532,-7.1494,-7.1475,-7.1373,-7.1291,-7.1291,-7.1291,-7.0268,-6.8819,-6.88,-6.7755,-6.6338,0.0,0.0,0.0,0.0,0.0,0.0,0.0,0.0,0.0,0.0,0.0,0.0,0.0,0.0,0.0,0.0,0.0,0.0,0.0,0.0,-3.2551,-3.3247,-3.3292,-3.3499,-3.4004,-3.4532,-3.5037,-3.552,-3.6348,-3.682,-3.7036,-3.7489,-3.7702,-3.7998,-3.7974,-3.7974,-3.7974,-3.7974,-3.7974,-3.7974,-3.8291,-3.8421,-3.8421,0.0,-3.8995,-3.9457,-4.0078,-4.1114,-4.2292,-4.2587,-4.3022,-4.3532,-4.4157,-4.4422,-4.4853,-4.5647,-4.5994,-4.6504,-4.8177,-4.8749,-4.9162,-5.0546,-5.0906,-5.1238,-5.2358,-5.3568,-5.4847,-5.6344,-5.8053,-5.9891,-6.1589,-6.2776,-6.3894,-6.5123,-6.7456,-6.939,-7.0278,-7.237,-7.4216,-7.4971,-7.6068,-7.6983,-7.7651,-7.8528,-7.9273,-7.974,-8.0237,-8.065,-8.0984,-7.9686,-7.8912,-7.888,-7.7611,-7.6989,-7.7109,-7.7109,-7.7052,-7.6897,-7.5278,-7.4371,-7.4053,-7.2457,-7.1675,-7.1598,-7.155,-7.1494,-7.1475,-7.1355,-7.1313,-7.1313,-7.1197,-7.0173,-6.8781,-6.8685,-6.7695,-6.6422,0.0,0.0,0.0,0.0,0.0,0.0,0.0,0.0,0.0,0.0,-2.829,-2.8763,0.0,0.0,0.0,0.0,0.0,0.0,0.0,0.0,0.0,-3.2946,-3.2992,-3.3298,-3.3981,-3.4532,-3.5037,-3.552,-3.6348,-3.6688,-3.682,-3.7382,-3.7596,-3.7702,-3.7892,-3.7974,-3.7974,-3.7974,-3.7974,-3.7974,-3.808,-3.8185,-3.8421,-3.8421,-3.89,0.0,-4.0963,-4.1763,-4.2233,-4.2796,-4.3169,-4.35,-4.4068,-4.4313,-4.4526,-4.5454,-4.6173,-4.7033,-4.8059,-4.8932,-4.9675,-5.0348,-5.0711,-5.1128,-5.2113,-5.3245,-5.4604,-5.6344,-5.7918,-5.9521,-6.1356,-6.2646,-6.38,-6.491,-6.7334,-6.939,-7.0278,-7.237,-7.4216,-7.4971,-7.6068,-7.6983,-7.7651,-7.8528,-7.9273,-7.974,-8.0237,-8.065,-8.0984,-7.9686,-7.8395,-7.7339,-7.715,-7.7095,-7.7109,-7.7094,-7.6737,-7.6001,-7.5005,-7.406,-7.3197,-7.2185,-7.1675,-7.1598,-7.1586,-7.1571,-7.1494,-7.1435,-7.1355,-7.1317,-7.0581,-6.9731,-6.88,-6.8157,-6.7315,-6.6508,0.0,0.0,0.0,0.0,0.0,0.0,0.0,-2.6633,-2.6909,-2.772,-2.7942,-2.841,-2.9373,-2.9485,-2.9485,0.0,0.0,0.0,0.0,0.0,0.0,-3.2622,-3.2791,-3.3106,-3.3412,-3.4291,-3.4923,-3.5152,0.0,-3.658,-3.6712,-3.7036,-3.7274,-3.7596,-3.7702,-3.7892,-3.7974,-3.7974,-3.7974,-3.7974,-3.7974,-3.808,-3.8234,-3.8524,-3.9237,0.0,-4.1188,-4.1805,-4.219,-4.255,-4.2849,-4.3073,-4.3628,-4.4274,-4.4856,-4.5563,-4.6473,-4.7276,-4.8197,-4.8912,-4.9442,-5.015,-5.0572,-5.1128,-5.1787,-5.3029,-5.4446,-5.5947,-5.7633,-5.9344,-6.1051,-6.2383,-6.3516,-6.4819,-6.7212,-6.9271,-7.0278,-7.237,-7.4216,-7.4971,-7.6068,-7.6983,-7.7651,-7.8528,-7.9273,-7.974,-8.0237,-8.065,-8.0984,-7.9777,-7.8378,-7.6948,-7.7014,-7.7101,-7.7109,-7.7087,-7.6653,-7.5785,-7.4936,-7.3982,-7.2963,-7.2107,-7.1675,-7.1598,-7.1586,-7.1589,-7.1571,-7.1475,-7.1455,-7.1378,-7.0486,-6.9672,-6.8855,-6.8053,-6.7247,-6.6553,0.0,0.0,0.0,0.0,0.0,0.0,0.0,-2.6467,-2.6741,-2.748,-2.7591,-2.8055,-2.919,-2.9301,-2.9301,0.0,0.0,0.0,0.0,0.0,0.0,0.0,0.0,0.0,-3.2768,0.0,0.0,-3.468,-3.568,0.0,0.0,0.0,0.0,0.0,-3.7489,-3.7679,-3.7892,-3.7892,-3.7998,0.0,0.0,-3.7974,-3.8046,0.0,0.0,0.0,0.0,-4.1629,-4.211,-4.2312,-4.2425,-4.2538,-4.3073,-4.401,-4.5159,-4.5727,-4.6524,-4.7466,-4.839,-4.8779,-4.9125,-4.9783,-5.0348,-5.0906,-5.1568,-5.2812,-5.423,-5.5625,-5.7238,-5.9062,-6.0743,-6.1985,-6.326,-6.4636,-6.7035,-6.9064,-7.0161,-7.237,-7.4216,-7.4971,-7.6068,-7.6983,-7.7651,-7.8528,-7.9273,-7.974,-8.0125,-8.0409,-8.0568,-7.9532,-7.8326,-7.696,-7.7014,-7.7101,-7.7109,-7.7087,-7.6575,-7.5521,-7.4819,-7.3865,-7.2691,-7.2029,-7.1675,-7.1598,-7.1603,-7.1607,-7.1607,-7.1532,-7.1513,-7.1436,-7.035,-6.9571,-6.8924,-6.7907,-6.7136,-6.6646,0.0,0.0,0.0,0.0,0.0,0.0,0.0,-2.599,-2.6319,-2.7195,-2.7326,-2.7765,-2.8729,-2.8839,-2.8839,0.0,0.0,0.0,0.0,0.0,0.0,0.0,0.0,0.0,0.0,0.0,0.0,-3.4448,-3.5207,0.0,0.0,0.0,0.0,0.0,0.0,-3.7358,-3.7596,-3.7596,0.0,0.0,0.0,0.0,0.0,0.0,0.0,0.0,0.0,-4.181,-4.211,-4.211,-4.211,-4.2199,-4.2538,-4.3363,-4.4597,-4.5411,-4.6206,-4.712,-4.8041,-4.8431,-4.8895,-4.9442,-4.9897,-5.0348,-5.1128,-5.2374,-5.3766,-5.5517,-5.7102,-5.8716,-6.0463,-6.1885,-6.3164,-6.4175,-6.6822,-6.9064,-7.0031,-7.2325,-7.4216,-7.4971,-7.6068,-7.6983,-7.7651,-7.8528,-7.9273,-7.974,-7.9774,-7.9567,-7.9108,-7.8455,-7.7742,-7.6921,-7.7014,-7.7101,-7.7109,-7.7087,-7.6262,-7.4624,-7.4546,-7.3553,-7.1835,-7.1757,-7.1675,-7.1598,-7.1598,-7.1603,-7.1607,-7.1589,-7.1589,-7.1434,-6.9765,-6.9079,-6.8885,-6.7291,-6.6685,-6.6708,0.0,0.0,0.0,0.0,0.0,0.0,-2.5738,-2.5549,-2.5808,-2.6754,-2.6883,-2.7248,-2.8172,-2.8279,-2.8466,-2.8746,0.0,0.0,0.0,0.0,0.0,0.0,0.0,0.0,0.0,0.0,-3.374,-3.4448,-3.4949,0.0,0.0,0.0,0.0,0.0,0.0,-3.7036,-3.7251,-3.7251,0.0,0.0,0.0,0.0,0.0,0.0,0.0,0.0,0.0,0.0,-4.1516,-4.1745,-4.1859,-4.1859,-4.2199,-4.2797,-4.3687,-4.4929,-4.618,-4.7184,-4.7769,-4.8172,-4.8548,-4.9125,-4.967,-5.0235,-5.0906,-5.1874,-5.32,-5.5213,-5.6699,-5.8264,-6.0402,-6.1784,-6.2971,-6.4081,-6.613,-6.821,-6.9879,-7.1827,-7.3533,-7.4935,-7.6068,-7.6983,-7.7651,-7.8528,-7.9416,-8.0157,-7.9455,-7.8941,-7.8887,-7.832,-7.7665,-7.6921,-7.7014,-7.7101,-7.7109,-7.6622,-7.5755,-7.4507,-7.3961,-7.3018,-7.1718,-7.1718,-7.1675,-7.1598,-7.1598,-7.1581,-7.1603,-7.1603,-7.1309,-7.0759,-6.9554,-6.8769,-6.8228,-6.7087,-6.6657,-6.6702,0.0,0.0,0.0,0.0,0.0,-2.5464,-2.5464,-2.5295,-2.5551,-2.6487,-2.6615,-2.6977,-2.7891,-2.7998,-2.8186,-2.856,-2.856,0.0,0.0,0.0,0.0,0.0,0.0,0.0,0.0,0.0,-3.3272,-3.4133,-3.46,-3.5313,0.0,0.0,-3.6386,-3.6603,0.0,0.0,0.0,0.0,0.0,0.0,0.0,0.0,0.0,0.0,0.0,0.0,0.0,0.0,0.0,0.0,0.0,-4.1378,-4.1859,-4.234,-4.302,-4.4468,-4.5766,-4.6764,-4.7298,-4.7703,-4.8172,-4.8663,-4.9354,-4.9897,-5.046,-5.1348,-5.2533,-5.4569,-5.6025,-5.7558,-5.9857,-6.1356,-6.2678,-6.3894,-6.5626,-6.7611,-6.9643,-7.1468,-7.3182,-7.4864,-7.6,-7.692,-7.7651,-7.8648,-7.9645,-8.0468,-7.9287,-7.8594,-7.8887,-7.8088,-7.7392,-7.6921,-7.7014,-7.7101,-7.7109,-7.631,-7.5449,-7.4507,-7.361,-7.2667,-7.1732,-7.1718,-7.1675,-7.1614,-7.1598,-7.1598,-7.1598,-7.1614,-7.1125,-7.0339,-6.9459,-6.8631,-6.7813,-6.6992,-6.6702,-6.6741,0.0,0.0,0.0,0.0,0.0,0.0,-2.5189,-2.5189,-2.5551,-2.6487,-2.6615,-2.6977,-2.7891,-2.7998,-2.7998,-2.7998,-2.7998,0.0,0.0,0.0,0.0,0.0,0.0,0.0,0.0,0.0,-3.2502,-3.3475,-3.4133,-3.4865,-3.584,-3.6168,-3.6277,-3.6277,0.0,0.0,0.0,0.0,0.0,0.0,0.0,0.0,-3.8742,0.0,0.0,0.0,0.0,0.0,0.0,0.0,0.0,0.0,0.0,-4.1995,-4.2788,-4.3912,-4.4786,-4.5691,-4.6509,-4.7257,-4.7821,-4.8172,-4.8663,-4.924,-4.9897,-5.0683,-5.1736,-5.3343,-5.5031,-5.6852,-5.8728,-6.0639,-6.2284,-6.3324,-6.5443,-6.7523,-6.9441,-7.1273,-7.3182,-7.4864,-7.5931,-7.6793,-7.7651,-7.8966,-7.9992,-8.0468,-7.9287,-7.8594,-7.8887,-7.7506,-7.677,-7.6921,-7.7014,-7.7101,-7.7109,-7.631,-7.5449,-7.4507,-7.361,-7.2716,-7.1809,-7.1732,-7.169,-7.1699,-7.1614,-7.1598,-7.1598,-7.1684,-7.1194,-7.03,-6.9525,-6.8721,-6.7881,-6.7024,-6.6741,-6.6783,0.0,0.0,0.0,0.0,0.0,0.0,0.0,-2.5144,-2.5388,-2.6083,-2.6438,-2.6857,-2.7463,-2.7526,-2.7526,-2.7526,-2.7809,0.0,0.0,0.0,0.0,0.0,0.0,0.0,0.0,-3.1629,-3.2295,-3.3475,-3.3688,-3.4415,-3.5533,-3.584,-3.595,-3.595,-3.6168,-3.6386,0.0,0.0,0.0,0.0,0.0,-3.778,-3.8428,0.0,0.0,0.0,0.0,0.0,0.0,0.0,0.0,0.0,0.0,0.0,0.0,-4.2414,-4.3924,-4.536,-4.627,-4.678,-4.7257,-4.8055,-4.8289,-4.8753,-4.9783,-5.0572,-5.1516,-5.3205,-5.5031,-5.6852,-5.8624,-6.0506,-6.2085,-6.3324,-6.4649,-6.6479,-6.9152,-7.0661,-7.2318,-7.4645,-7.6366,-7.7651,-7.8383,-7.9293,-7.9727,-7.9628,-7.8941,-7.8363,-7.8037,-7.7195,-7.677,-7.6921,-7.7014,-7.7101,-7.7109,-7.5724,-7.4818,-7.4468,-7.3025,-7.2131,-7.1809,-7.1797,-7.1732,-7.1704,-7.169,-7.1675,-7.1637,-7.1107,-7.0356,-6.9513,-6.8694,-6.787,-6.7092,-6.6837,-6.6775,-6.6798,0.0,0.0,0.0,0.0,0.0,0.0,0.0,-2.4836,-2.5201,-2.5562,-2.6013,-2.6464,-2.6935,-2.6976,-2.7071,-2.7167,-2.7598,0.0,0.0,0.0,0.0,0.0,0.0,0.0,-3.1219,-3.1322,-3.2088,-3.3369,-3.3475,-3.4092,-3.5202,-3.5533,-3.5643,-3.5643,-3.584,-3.6059,0.0,0.0,0.0,0.0,-3.7035,-3.763,-3.8225,0.0,0.0,0.0,0.0,0.0,0.0,0.0,0.0,0.0,0.0,0.0,0.0,0.0,-4.2802,-4.4196,-4.544,-4.615,-4.6806,-4.7493,-4.7964,-4.8405,-4.9328,-5.0123,-5.11,-5.2594,-5.4533,-5.6474,-5.7978,-6.0045,-6.1885,-6.3132,-6.4268,-6.5935,-6.854,-7.0084,-7.2114,-7.4976,-7.6756,-7.7997,-7.8648,-7.934,-7.9613,-7.9246,-7.8788,-7.8248,-7.765,-7.704,-7.677,-7.6921,-7.7014,-7.6945,-7.6601,-7.5252,-7.4389,-7.4,-7.2596,-7.1858,-7.1782,-7.1809,-7.1797,-7.1732,-7.1718,-7.1718,0.0,-7.0836,-7.0006,-6.9173,-6.831,-6.7491,-6.6736,-6.6791,-6.6805,-6.6817,0.0,0.0,0.0,0.0,0.0,0.0,0.0,-2.4506,-2.4885,-2.5128,-2.5591,-2.6034,-2.6456,-2.6496,-2.6592,-2.6805,0.0,0.0,0.0,0.0,0.0,0.0,0.0,0.0,-3.1116,-3.1159,-3.1819,-3.3071,-3.3307,-3.4029,-3.498,-3.5202,-3.5423,-3.5423,-3.5423,-3.5533,-3.5753,-3.6059,-3.6277,-3.6369,-3.7333,-3.7747,0.0,0.0,0.0,0.0,0.0,0.0,0.0,0.0,0.0,0.0,0.0,0.0,0.0,0.0,0.0,0.0,0.0,-4.544,-4.625,-4.6661,-4.7493,-4.8172,-4.8521,-4.9556,0.0,-5.1568,-5.3761,-5.5742,-5.6944,-5.9326,-6.1551,-6.281,-6.4142,-6.568,-6.7896,-6.9923,-7.2453,-7.5891,-7.7107,-7.794,-7.8544,-7.9303,-7.9537,-7.9132,-7.8673,-7.8132,-7.7534,-7.7001,-7.677,-7.6921,-7.6975,-7.6633,-7.582,-7.5017,-7.4122,-7.3181,-7.2322,-7.1867,-7.1817,-7.1782,-7.1809,-7.1809,-7.1732,-7.1693,-7.1576,-7.0745,-6.9924,-6.9128,-6.8261,-6.7438,-6.6811,-6.6805,-6.6823,-6.68,0.0,0.0,0.0,0.0,0.0,0.0,0.0,0.0,0.0,0.0,-2.5852,-2.6376,-2.6496,-2.6496,-2.6496,0.0,0.0,0.0,0.0,0.0,0.0,0.0,0.0,0.0,-3.0599,-3.1146,-3.1827,-3.2749,-3.3226,-3.3835,-3.4646,-3.498,-3.5091,-3.5091,-3.5312,-3.5423,-3.5533,-3.5643,-3.5643,-3.5688,-3.6297,-3.677,0.0,0.0,0.0,0.0,-3.8619,-3.8619,0.0,0.0,0.0,0.0,0.0,0.0,0.0,0.0,-4.0716,-4.1425,-4.2396,0.0,-4.5535,-4.62,-4.6874,-4.756,0.0,-4.9098,-5.001,-5.0906,-5.3103,-5.5169,-5.6568,-5.888,-6.1041,-6.258,-6.3894,-6.5412,-6.7416,-7.0694,-7.3721,-7.6032,-7.7107,-7.794,-7.8544,-7.8775,-7.8701,-7.8253,-7.7758,-7.7246,-7.6683,-7.6691,-7.677,-7.6921,-7.6391,-7.6008,-7.5781,-7.4982,-7.4128,-7.3204,-7.2331,-7.1876,-7.1887,-7.1817,-7.1806,-7.1806,-7.1794,-7.1416,-7.0775,-6.9918,-6.9119,-6.8288,-6.7407,-6.6954,-6.6805,-6.6862,-6.6895,-6.6794,0.0,0.0,0.0,0.0,0.0,0.0,0.0,0.0,0.0,0.0,0.0,0.0,0.0,0.0,0.0,0.0,0.0,0.0,0.0,0.0,0.0,0.0,0.0,-3.0287,-3.0391,-3.0958,-3.1742,-3.2426,-3.3138,-3.3723,-3.4311,-3.4646,-3.4758,-3.4758,-3.5091,-3.5202,-3.5202,-3.5312,-3.5423,-3.5468,-3.596,0.0,0.0,0.0,0.0,0.0,-3.838,-3.838,0.0,-3.838,-3.8477,-3.8596,0.0,0.0,0.0,0.0,-3.9988,-4.0598,-4.1306,-4.2974,-4.4593,-4.549,-4.622,-4.6993,-4.7821,-4.8753,-4.967,-5.0683,-5.2656,-5.4604,-5.6267,-5.8324,-6.0465,-6.2319,-6.3673,-6.569,-6.8759,-7.1315,-7.3725,-7.5995,-7.7107,-7.7792,-7.8021,-7.8351,-7.8245,-7.7413,-7.7259,-7.6976,-7.6436,-7.6575,-7.677,-7.6921,-7.6196,-7.5612,-7.5233,-7.4439,-7.3549,-7.2639,-7.2151,-7.1893,-7.1897,-7.1848,-7.1838,-7.1838,-7.1409,-7.099,-7.0511,-6.9263,-6.8492,-6.8,-6.7149,-6.6817,-6.6839,-6.6898,-6.691,-6.6797,0.0,0.0,0.0,0.0,0.0,0.0,0.0,0.0,0.0,0.0,0.0,0.0,0.0,0.0,0.0,0.0,0.0,0.0,0.0,0.0,0.0,0.0,-2.9889,-3.0099,-3.0287,-3.081,-3.1506,-3.2102,-3.2983,-3.3566,-3.3974,-3.4311,-3.4423,-3.4423,-3.4758,-3.4869,-3.498,-3.5202,-3.5312,-3.5335,-3.5759,0.0,0.0,0.0,0.0,0.0,0.0,0.0,0.0,-3.8261,-3.8261,-3.838,-3.838,0.0,0.0,0.0,0.0,0.0,-4.0527,-4.1947,-4.3458,-4.447,-4.5465,-4.644,-4.7324,-4.8262,-4.9301,-5.0544,-5.2126,-5.3955,-5.5889,-5.7918,-5.9932,-6.1927,-6.3673,-6.6201,-7.0119,-7.1598,-7.3191,-7.5778,-7.6924,-7.7496,-7.7424,-7.7899,-7.7789,-7.6764,-7.6907,-7.6822,-7.6436,-7.6575,-7.6692,-7.6688,-7.6001,-7.5209,-7.4405,-7.3663,-7.2851,-7.1987,-7.193,-7.1909,-7.1906,-7.175,-7.1711,-7.1672,-7.0766,-7.0316,-7.0099,-6.8695,-6.8039,-6.7826,-6.7091,-6.6848,-6.6908,-6.6914,-6.6835,-6.656,0.0,0.0,0.0,0.0,0.0,0.0,0.0,0.0,0.0,0.0,0.0,0.0,0.0,0.0,0.0,0.0,0.0,0.0,0.0,0.0,0.0,-2.9237,-2.9554,-2.9764,-3.0099,-3.093,-3.1517,-3.1906,-3.2769,-3.3346,-3.3636,-3.3749,-3.3861,-3.4199,-3.4423,-3.4534,-3.4534,-3.4646,-3.4646,-3.4646,-3.4712,0.0,0.0,0.0,0.0,0.0,0.0,0.0,0.0,-3.7495,-3.7758,-3.7998,-3.7998,0.0,0.0,0.0,0.0,0.0,-3.94,-4.0336,-4.1469,-4.3313,-4.4689,-4.5817,-4.6773,-4.7703,-4.8637,-4.9897,-5.1376,-5.3216,-5.5596,-5.7391,-5.9417,-6.1659,-6.4235,-6.6675,-6.9141,-7.102,-7.2905,-7.4781,-7.602,-7.6866,-7.7349,-7.6844,-7.6536,-7.6688,-7.6332,-7.6195,-7.6397,-7.6575,-7.642,-7.583,-7.5065,-7.4311,-7.3504,-7.3356,-7.2869,-7.1987,-7.193,-7.1884,-7.1877,-7.1152,-7.0793,-7.0754,-6.9896,-6.9124,-6.8476,-6.8202,-6.7709,-6.7068,-6.6945,-6.6874,-6.6914,-6.691,-6.6429,-6.5555,0.0,0.0,0.0,0.0,0.0,0.0,0.0,0.0,0.0,0.0,0.0,0.0,0.0,0.0,0.0,0.0,0.0,0.0,0.0,0.0,-2.8621,-2.8834,-2.9046,-2.9343,-2.9764,-3.0668,-3.1251,-3.1579,-3.2629,-3.3296,-3.3409,-3.3523,-3.3636,-3.3861,-3.3974,-3.3952,-3.3952,-3.3952,-3.3952,-3.3952,0.0,0.0,0.0,0.0,0.0,0.0,0.0,0.0,0.0,0.0,-3.7032,-3.7396,-3.7396,0.0,0.0,0.0,0.0,0.0,-3.893,-3.9469,-4.0194,-4.1659,-4.3241,-4.4882,-4.6175,-4.7112,-4.8029,-4.9301,-5.0539,-5.2378,-5.4996,-5.6669,-5.8857,-6.2456,-6.4819,-6.6846,-6.8888,-7.0599,-7.2228,-7.3951,-7.5178,-7.5903,-7.6042,-7.6052,-7.6042,-7.6,-7.5948,-7.6041,-7.6397,-7.6575,-7.6381,-7.5635,-7.487,-7.4116,-7.3309,-7.2811,-7.2401,-7.1987,-7.1982,-7.1702,-7.1221,-7.0824,-7.0387,-6.9912,-6.9014,-6.8444,-6.8072,-6.7615,-6.7242,-6.6906,-6.6913,-6.6912,-6.6823,-6.634,-6.5312,-6.4091,0.0,0.0,0.0,0.0,0.0,0.0,0.0,0.0,0.0,0.0,0.0,0.0,0.0,0.0,0.0,0.0,0.0,0.0,0.0,-2.7812,-2.8408,-2.8621,-2.8621,-2.8834,-2.9448,-3.0221,-3.0799,-3.1251,-3.228,-3.2964,-3.309,-3.3409,-3.3523,-3.3523,-3.3523,-3.3636,-3.3636,-3.3636,-3.3636,-3.3636,0.0,0.0,0.0,0.0,0.0,0.0,0.0,0.0,0.0,0.0,0.0,0.0,0.0,0.0,0.0,-3.7637,-3.7878,-3.8238,-3.8455,-3.893,-3.9423,-4.031,-4.1945,-4.3869,-4.5494,-4.6534,-4.7442,-4.8842,-4.9983,-5.16,-5.439,-5.6563,-5.9236,-6.31,-6.4967,-6.6574,-6.8486,-6.9952,-7.1482,-7.3024,-7.4214,-7.4922,-7.4872,-7.5412,-7.5662,-7.5427,-7.5718,-7.6041,-7.6397,-7.6381,-7.607,-7.5351,-7.4597,-7.3804,-7.2997,-7.2343,-7.2014,-7.1987,-7.1792,-7.1357,-7.0681,-7.0291,-6.9738,-6.9036,-6.8183,-6.781,-6.7789,-6.7138,-6.6912,-6.6913,-6.6873,-6.6745,-6.6439,-6.5328,-6.4073,-6.2942,0.0,0.0,0.0,0.0,0.0,0.0,0.0,0.0,0.0,0.0,0.0,0.0,0.0,0.0,0.0,0.0,0.0,0.0,0.0,-2.7812,-2.8301,-2.8301,-2.8301,-2.8601,-2.9132,-2.9595,-3.0275,-3.0901,-3.1502,-3.2066,-3.2727,-3.3069,-3.3203,-3.3182,-3.3523,-3.3636,-3.3636,-3.3636,-3.3636,-3.3636,-3.3636,0.0,0.0,0.0,0.0,0.0,0.0,0.0,0.0,0.0,0.0,0.0,0.0,0.0,-3.6545,-3.6911,-3.7154,-3.7495,-3.7878,-3.8335,-3.9044,-3.9928,-4.1542,-4.3191,-4.4421,-4.5779,-4.7205,-4.8842,-4.9843,-5.1349,-5.4087,-5.7809,-6.1091,-6.2875,-6.4387,-6.5855,-6.7312,-6.9254,-7.091,-7.2032,-7.313,-7.4071,-7.4835,-7.4794,-7.4899,-7.5351,-7.5718,-7.6041,-7.6397,-7.5838,-7.516,-7.4494,-7.3709,-7.2912,-7.2098,-7.203,-7.1986,-7.1987,-7.1167,-7.0777,-7.066,-6.902,-6.8239,-6.8161,-6.7324,-6.6986,-6.6992,-6.6914,-6.6912,-6.6904,-6.6848,-6.6321,-6.5406,-6.3709,-6.2999,-6.2804,0.0,0.0,0.0,0.0,0.0,0.0,0.0,0.0,0.0,0.0,0.0,-2.4941,-2.4941,0.0,0.0,0.0,0.0,0.0,0.0,-2.7602,-2.8174,-2.8281,-2.8301,-2.8388,-2.8601,-2.9252,-2.9908,-3.0681,-3.1636,-3.2199,-3.2498,-3.2727,-3.2841,-3.2841,-3.2955,-3.3069,-3.3069,-3.3069,-3.3069,-3.3069,-3.3069,-3.3069,0.0,0.0,0.0,0.0,0.0,0.0,0.0,0.0,-3.4987,-3.5381,-3.5549,-3.6067,-3.6423,-3.6545,-3.6789,-3.7154,-3.7517,-3.7878,-3.838,-3.9158,-4.0421,-4.2013,-4.353,-4.5034,-4.6516,-4.7677,-4.893,-5.0986,-5.4691,-5.8324,-6.1082,-6.2418,-6.411,-6.5734,-6.6928,-6.8648,-7.013,-7.1206,-7.223,-7.3148,-7.395,-7.4372,-7.4821,-7.5318,-7.5686,-7.5809,-7.56,-7.5489,-7.4849,-7.3574,-7.3319,-7.2828,-7.2002,-7.1981,-7.1718,-7.1205,-7.0842,-7.0136,-6.9078,-6.8414,-6.7835,-6.7338,-6.7029,-6.6914,-6.691,-6.6901,-6.6891,-6.679,-6.6226,-6.5127,-6.3787,-6.3148,-6.2555,-6.2041,0.0,0.0,0.0,0.0,0.0,0.0,0.0,0.0,0.0,0.0,0.0,0.0,0.0,-2.4745,0.0,0.0,0.0,0.0,-2.6481,-2.7285,-2.7853,-2.8174,-2.8174,-2.8174,-2.8301,-2.879,-2.9441,-3.0369,-3.1592,-3.2133,-3.2133,-3.2383,-3.2383,-3.2383,-3.2383,-3.2383,-3.2383,-3.2383,-3.2383,-3.2383,-3.2383,-3.2383,0.0,0.0,0.0,0.0,0.0,0.0,0.0,0.0,-3.417,-3.4721,-3.5014,-3.5449,-3.5987,-3.6135,-3.6423,-3.6667,-3.7011,-3.7396,-3.7878,-3.8216,-3.9424,-4.093,-4.2563,-4.4305,-4.5914,-4.6968,-4.8832,-5.1319,-5.5047,-5.8038,-6.0424,-6.209,-6.3797,-6.5382,-6.6761,-6.8172,-6.949,-7.0642,-7.1671,-7.2556,-7.335,-7.4047,-7.474,-7.5245,-7.5392,-7.5358,-7.5098,-7.4771,-7.4078,-7.3042,-7.2823,-7.2494,-7.1987,-7.1733,-7.1158,-7.0308,-7.0,-6.9256,-6.8125,-6.785,-6.7422,-6.6912,-6.6911,-6.6904,-6.6887,-6.6873,-6.67,-6.6291,-6.5145,-6.3967,-6.2875,-6.2578,-6.2102,-6.1586,0.0,0.0,0.0,0.0,0.0,0.0,0.0,0.0,-2.4152,-2.4152,-2.4152,0.0,0.0,0.0,0.0,0.0,-2.5597,0.0,-2.6172,-2.6967,-2.753,-2.7853,-2.7853,-2.8067,-2.8281,-2.8301,-2.8819,-3.0036,-3.1251,-3.1787,-3.1787,-3.1787,-3.1787,-3.1787,-3.1787,-3.1787,-3.1787,-3.1787,-3.1787,-3.1787,-3.1787,-3.1787,-3.1787,0.0,0.0,0.0,0.0,0.0,0.0,0.0,-3.3135,-3.3534,-3.4445,-3.4755,-3.496,-3.5662,-3.5911,-3.5932,-3.63,-3.6889,-3.7374,-3.7374,-3.8716,-4.0301,-4.1051,-4.3407,-4.5622,-4.6968,-4.9587,-5.2491,-5.4967,-5.6936,-5.9075,-6.1796,-6.3356,-6.472,-6.6424,-6.7856,-6.9122,-7.0234,-7.1259,-7.2233,-7.3246,-7.3896,-7.4573,-7.5245,-7.479,-7.4658,-7.5059,-7.3607,-7.2857,-7.2965,-7.2234,-7.1867,-7.1987,-7.1128,-7.027,-6.9372,-6.8496,-6.8144,-6.8166,-6.7285,-6.6904,-6.6901,-6.6883,-6.6862,-6.6805,-6.6805,-6.6291,-6.5301,-6.3561,-6.289,-6.2773,-6.1928,-6.1607,-6.1607,0.0,0.0,0.0,0.0,0.0,0.0,0.0,0.0,-2.4152,-2.4152,-2.4152,0.0,0.0,0.0,0.0,0.0,0.0,0.0,-2.5881,-2.6648,-2.7206,-2.753,-2.753,-2.7745,-2.796,-2.8466,-2.9004,-2.9682,-3.0888,-3.1441,-3.1441,-3.1672,-3.1787,-3.1787,-3.1787,-3.1787,-3.1787,-3.1787,-3.1787,-3.1787,-3.1787,-3.1787,-3.1787,0.0,0.0,0.0,0.0,0.0,0.0,0.0,0.0,0.0,-3.313,-3.3758,-3.4533,-3.4677,-3.5313,-3.5932,-3.6055,-3.6545,-3.7154,-3.7374,-3.8232,-3.9331,-4.0663,-4.2658,-4.4814,-4.7313,-4.9614,-5.1928,-5.4366,-5.6643,-5.8761,-6.0887,-6.2778,-6.4512,-6.5995,-6.7339,-6.8787,-7.0234,-7.1103,-7.1938,-7.3034,-7.3752,-7.4136,-7.4144,-7.4346,-7.4072,-7.32,-7.2887,-7.25,-7.2034,-7.1887,-7.1526,-7.0931,-7.0731,-6.9926,-6.8489,-6.8222,-6.7799,-6.7264,-6.7039,-6.6878,-6.6829,-6.6817,-6.6805,-6.6752,-6.6151,-6.4965,-6.3544,-6.3049,-6.2455,-6.187,-6.1627,-6.1559,-6.1607,0.0,0.0,0.0,0.0,0.0,0.0,-2.4152,-2.4152,-2.4152,-2.4152,-2.4152,-2.4152,0.0,0.0,0.0,-2.4152,-2.4757,-2.5301,-2.557,-2.6287,-2.6821,-2.7206,-2.7206,-2.7422,-2.7638,-2.8276,-2.881,-2.9234,-3.0368,-3.0935,-3.1112,-3.1344,-3.146,-3.146,-3.146,-3.146,-3.146,-3.146,-3.146,-3.146,-3.146,-3.146,-3.146,0.0,0.0,0.0,0.0,0.0,0.0,0.0,0.0,0.0,-3.2411,-3.2953,-3.3679,-3.4045,-3.4697,-3.5333,-3.55,-3.6034,-3.6545,-3.6911,-3.7614,-3.8598,-4.0518,-4.2682,-4.4888,-4.7221,-4.908,-5.0917,-5.3359,-5.5583,-5.7736,-5.9972,-6.213,-6.3923,-6.5559,-6.6928,-6.8293,-6.9743,-7.0709,-7.1671,-7.2705,-7.3155,-7.3417,-7.3568,-7.3375,-7.2932,-7.2276,-7.2136,-7.194,-7.1564,-7.134,-7.0979,-7.052,-6.9899,-6.9068,-6.807,-6.7719,-6.7344,-6.6856,-6.6856,-6.685,-6.6798,-6.6432,-6.6221,-6.6135,-6.4929,-6.378,-6.2785,-6.2413,-6.1946,-6.1518,-6.1489,-6.1539,-6.1559,0.0,0.0,-2.3755,-2.3755,0.0,-2.4152,-2.4152,-2.4152,-2.4152,-2.4152,-2.4152,-2.4152,0.0,0.0,0.0,-2.4152,-2.4537,-2.4941,-2.5344,-2.5748,-2.624,-2.6971,-2.6989,-2.7098,-2.7314,-2.7801,-2.8217,-2.8672,-2.964,-3.043,-3.0898,-3.0898,-3.0898,-3.0898,-3.0898,-3.0898,-3.0898,-3.0898,-3.0898,-3.0898,-3.0898,-3.0898,-3.0898,-3.0898,0.0,0.0,0.0,0.0,0.0,0.0,0.0,0.0,-3.227,-3.2431,-3.2612,-3.3417,-3.3963,-3.435,-3.4758,-3.5397,-3.5932,-3.63,-3.6932,-3.8166,-4.0571,-4.3262,-4.5451,-4.6824,-4.812,-4.9805,-5.2184,-5.4075,-5.6201,-5.9185,-6.132,-6.3164,-6.4934,-6.6424,-6.7776,-6.9048,-7.0094,-7.1123,-7.2138,-7.2183,-7.2416,-7.3095,-7.2092,-7.1636,-7.1948,-7.1467,-7.1214,-7.1356,-7.0671,-7.0285,-7.0239,-6.8744,-6.792,-6.7872,-6.7118,-6.6775,-6.6775,-6.6775,-6.6736,-6.6619,-6.5757,-6.5309,-6.5026,-6.3453,-6.2768,-6.2612,-6.1795,-6.1484,-6.1484,-6.1518,-6.1489,-6.15,0.0,0.0,-2.3456,-2.3456,0.0,0.0,-2.3854,-2.4053,-2.4152,-2.4152,-2.4152,-2.4152,-2.4152,-2.4152,0.0,-2.4152,-2.4537,-2.4941,-2.5344,-2.5748,-2.6258,-2.6663,-2.6881,-2.6989,-2.7098,-2.7408,-2.7933,-2.8672,-2.9545,-3.0103,-3.0509,-3.0762,-3.0898,-3.0898,-3.0898,-3.0898,-3.0898,-3.0898,-3.0898,-3.0898,-3.0898,-3.0898,-3.0898,-3.0898,-3.0898,0.0,0.0,0.0,0.0,0.0,0.0,0.0,-3.123,-3.1604,-3.2137,-3.2336,-3.3115,-3.3922,-3.4391,-3.4903,-3.5541,-3.5932,-3.6945,-3.8464,-4.0195,-4.19,-4.3916,-4.627,-4.7626,-4.909,-5.1511,-5.3295,-5.5167,-5.8053,-6.0051,-6.2013,-6.4105,-6.5821,-6.7339,-6.8635,-6.9247,-6.9973,-7.0967,-7.1065,-7.1044,-7.1105,-7.1179,-7.1128,-7.0929,-7.1002,-7.0845,-7.0349,-7.0235,-6.9645,-6.838,-6.802,-6.7515,-6.6891,-6.6735,-6.663,-6.663,-6.6693,-6.6351,-6.5689,-6.5411,-6.4582,-6.3336,-6.2962,-6.2367,-6.1681,-6.1486,-6.1408,-6.1408,-6.1484,-6.1507,-6.15,0.0,0.0,0.0,0.0,0.0,0.0,0.0,0.0,-2.4053,-2.4152,-2.4152,-2.4152,-2.4152,-2.4152,0.0,0.0,-2.4354,-2.4739,-2.5326,-2.5564,-2.5949,-2.6554,-2.6682,-2.6791,-2.6791,-2.6899,-2.7399,-2.8219,-2.8785,-2.9431,-3.0157,-3.0294,-3.0411,-3.0411,-3.0411,-3.0411,-3.0411,-3.0645,-3.0645,-3.0645,-3.0898,-3.0762,-3.0645,-3.0645,-3.0528,-3.0411,-3.0411,0.0,0.0,0.0,0.0,0.0,0.0,0.0,-3.1486,-3.1702,-3.2316,-3.3115,-3.3658,-3.4309,-3.5026,-3.5746,-3.701,-3.8473,-3.9826,-4.1191,-4.2791,-4.528,-4.6824,-4.8315,-5.0363,-5.2212,-5.4172,-5.642,-5.8543,-6.0478,-6.2357,-6.4057,-6.5546,-6.6833,-6.7688,-6.8556,-6.9586,-6.9778,-6.9865,-7.0143,-7.029,-7.0383,-7.0381,-7.0277,-7.0105,-6.9841,-6.9262,-6.851,-6.7691,-6.7332,-6.6912,-6.65,-6.6528,-6.6528,-6.6514,-6.6618,-6.6174,-6.5322,-6.4869,-6.3949,-6.2704,-6.2303,-6.1849,-6.1408,-6.1408,-6.1408,-6.1408,-6.1447,-6.1756,-6.2141,0.0,0.0,0.0,0.0,0.0,0.0,0.0,0.0,0.0,-2.4053,-2.4152,-2.4152,-2.4152,-2.4152,-2.4152,0.0,0.0,0.0,-2.5326,-2.5509,-2.5876,-2.6554,-2.6591,-2.6591,-2.6591,-2.6591,-2.694,-2.7673,-2.7955,-2.8611,-2.9592,-2.9785,-2.9922,-2.9922,-2.9922,-2.9922,-2.9922,-3.0157,-3.0274,-3.0392,-3.0645,-3.0528,-3.0274,-3.0274,-3.0157,-2.9922,-2.9922,-2.9922,-2.9922,-3.0274,0.0,0.0,0.0,0.0,-3.084,-3.119,-3.1564,-3.2038,-3.295,-3.3779,-3.4595,-3.5581,-3.6822,-3.8117,-3.9321,-4.0581,-4.1955,-4.4058,-4.5814,-4.7416,-4.9045,-5.0929,-5.2958,-5.4767,-5.6907,-5.8913,-6.055,-6.2053,-6.3566,-6.4801,-6.6011,-6.7093,-6.8063,-6.8364,-6.873,-6.9446,-6.9416,-6.9546,-6.9847,-6.9502,-6.9309,-6.922,-6.8043,-6.7402,-6.7309,-6.6707,-6.6373,-6.6373,-6.6461,-6.6461,-6.6389,-6.6344,-6.5881,-6.4986,-6.4104,-6.3249,-6.2393,-6.1691,-6.1405,-6.1419,-6.1419,-6.1497,-6.1614,-6.1629,-6.2238,-6.3001,0.0,0.0,0.0,0.0,0.0,0.0,0.0,0.0,0.0,0.0,-2.4053,-2.4152,-2.4152,-2.4152,-2.4152,-2.4152,-2.4152,-2.45,-2.5326,0.0,0.0,-2.6591,-2.6591,-2.6591,-2.6591,-2.6591,-2.6811,-2.7251,-2.7713,-2.8118,-2.8597,-2.9536,-2.9922,-2.9922,-2.9922,-2.9922,-2.9922,-2.9922,-2.9922,-2.9922,-3.0039,-3.0039,-2.9922,-2.9922,-2.9922,-2.9922,-2.9922,-2.9922,-2.9922,-2.9922,-2.9922,0.0,0.0,0.0,-3.0058,-3.0449,-3.0837,-3.1362,-3.2473,-3.3759,-3.4964,-3.5397,-3.6097,-3.6881,-3.8095,-3.9444,-4.1053,-4.2527,-4.4573,-4.6585,-4.8353,-4.9783,-5.1461,-5.3748,-5.5664,-5.7434,-5.9433,-6.1418,-6.2967,-6.3936,-6.4924,-6.5759,-6.6518,-6.6956,-6.7451,-6.8195,-6.8754,-6.8955,-6.8792,-6.8963,-6.8502,-6.7285,-6.7179,-6.6868,-6.6229,-6.6242,-6.6245,-6.6322,-6.6376,-6.6394,-6.6355,-6.5635,-6.4821,-6.3929,-6.3075,-6.2238,-6.1492,-6.1376,-6.1352,-6.1419,-6.1419,-6.1847,-6.2521,-6.2588,-6.3157,-6.3947,0.0,0.0,0.0,0.0,0.0,0.0,0.0,0.0,0.0,0.0,0.0,-2.4053,-2.4152,-2.4152,-2.4152,-2.4152,-2.4152,-2.45,-2.5326,-2.6133,-2.6591,-2.6591,-2.6591,-2.6591,-2.6591,-2.6591,-2.6774,-2.7178,-2.7563,-2.7985,-2.8407,-2.9028,-2.945,-2.945,-2.945,-2.945,-2.945,-2.9568,-2.9686,-2.9686,-2.9804,-2.9804,-2.9686,-2.9686,-2.9568,-2.945,-2.945,-2.945,-2.945,-2.9568,-2.9686,-2.9686,-2.9804,0.0,0.0,0.0,-3.0409,-3.0914,-3.2334,-3.3354,-3.4245,-3.4984,-3.5418,-3.616,-3.7514,-3.864,-3.9859,-4.1646,-4.3231,-4.5034,-4.7365,-4.893,-5.0487,-5.2396,-5.4136,-5.5771,-5.75,-5.9312,-6.0792,-6.1745,-6.3046,-6.4166,-6.4918,-6.5903,-6.6758,-6.7432,-6.7802,-6.8084,-6.8176,-6.7693,-6.714,-6.6643,-6.6385,-6.6127,-6.5846,-6.5951,-6.608,-6.6123,-6.6185,-6.6205,-6.6167,-6.489,-6.4113,-6.374,-6.2887,-6.205,-6.1291,-6.1306,-6.1337,-6.1391,-6.191,-6.2352,-6.274,-6.3262,-6.404,-6.4804,0.0,0.0,0.0,0.0,0.0,0.0,0.0,0.0,0.0,0.0,0.0,-2.3755,-2.4053,0.0,0.0,0.0,-2.4244,-2.4647,-2.5472,-2.6188,-2.6591,-2.6591,-2.6591,-2.6591,-2.6591,-2.6591,-2.6738,-2.7031,-2.7526,-2.793,-2.8242,-2.8755,-2.8975,-2.8975,-2.8975,-2.8975,-2.8975,-2.9213,-2.9331,-2.945,-2.9568,-2.9568,-2.9331,-2.9331,-2.9213,-2.8975,-2.8975,-2.8975,-2.8975,-2.9331,-2.9331,-2.945,-2.9568,-2.9686,0.0,0.0,0.0,-3.0837,-3.2074,-3.2848,-3.351,-3.4571,-3.5046,-3.5769,-3.7117,-3.7885,-3.9031,-4.0783,-4.2116,-4.3649,-4.6069,-4.7899,-4.9616,-5.1183,-5.2779,-5.4347,-5.5789,-5.7496,-5.8876,-5.9935,-6.1575,-6.2829,-6.3647,-6.5039,-6.6089,-6.6525,-6.6853,-6.703,-6.7074,-6.6367,-6.5951,-6.5973,-6.565,-6.5523,-6.5635,-6.5782,-6.5919,-6.599,-6.6036,-6.608,-6.6041,-6.4636,-6.4039,-6.3997,-6.2698,-6.1806,-6.1281,-6.1524,-6.1617,-6.171,-6.2648,-6.3168,-6.3401,-6.4078,-6.4896,-6.566,0.0,0.0,0.0,0.0,0.0,0.0,0.0,0.0,0.0,0.0,0.0,-2.3555,-2.3755,-2.3854,-2.3954,-2.4152,-2.4519,-2.5087,-2.5876,-2.6334,-2.6591,-2.6591,-2.6591,0.0,-2.6591,-2.6591,-2.6591,-2.6628,-2.7398,-2.7783,-2.782,-2.8608,-2.8975,-2.8975,-2.8975,-2.8975,-2.8975,-2.8975,-2.8975,-2.8975,-2.8975,-2.8975,-2.8975,-2.8975,-2.8975,-2.8975,-2.8975,-2.8975,-2.8975,-2.8975,-2.8975,-2.8975,-2.8975,-2.9094,-2.9094,0.0,0.0,0.0,-3.1565,-3.248,-3.351,-3.4198,-3.4922,-3.5562,-3.6321,-3.7299,-3.8486,-3.9484,-4.1237,-4.3041,-4.4399,-4.656,-4.8673,-5.0181,-5.192,-5.3518,-5.4988,-5.6541,-5.7963,-5.9177,-6.067,-6.2009,-6.2863,-6.4288,-6.5148,-6.5118,-6.597,-6.5962,-6.4902,-6.524,-6.5233,-6.4819,-6.5023,-6.522,-6.5405,-6.5651,-6.5832,-6.5919,-6.599,-6.6013,-6.5974,-6.5192,-6.4827,-6.4732,-6.2221,-6.1194,-6.1268,-6.2095,-6.2493,-6.2641,-6.358,-6.4411,-6.5071,-6.5194,-6.5764,-6.6555,0.0,0.0,0.0,0.0,0.0,0.0,0.0,0.0,0.0,0.0,0.0,0.0,0.0,-2.3555,-2.3655,-2.3954,-2.4674,-2.5295,-2.5611,-2.6028,-2.6245,-2.6026,-2.6026,-2.6026,-2.6026,-2.6026,-2.6026,-2.6026,-2.6816,-2.7194,-2.7211,-2.8002,-2.8379,-2.8379,-2.8856,-2.8975,-2.8975,-2.8975,-2.8975,-2.8975,-2.8975,-2.8874,-2.8636,-2.8636,-2.8517,-2.8379,-2.8379,-2.8379,-2.8379,-2.8379,-2.8498,-2.8636,-2.8636,-2.8874,-2.9094,-2.945,-2.978,-3.0225,-3.1003,-3.1808,-3.25,-3.3406,-3.4222,-3.4922,-3.5541,-3.6529,-3.758,-3.8742,-4.0076,-4.1415,-4.2832,-4.5504,-4.8003,-4.9616,-5.0962,-5.2487,-5.4097,-5.556,-5.6927,-5.8455,-5.9849,-6.1201,-6.2201,-6.3159,-6.3858,-6.433,-6.4274,-6.4254,-6.423,-6.4196,-6.4182,-6.4326,-6.4632,-6.5023,-6.5413,-6.5552,-6.5663,-6.5717,-6.5846,-6.5895,-6.5856,-6.5141,-6.4861,-6.4827,-6.3341,-6.2723,-6.2819,-6.3127,-6.3296,-6.3463,-6.4404,-6.4924,-6.5265,-6.5894,-6.6309,-6.6594,0.0,-2.1216,-2.142,-2.1725,0.0,-2.2232,-2.2434,-2.2552,-2.2653,-2.2854,0.0,0.0,0.0,0.0,-2.3444,-2.4014,-2.4765,-2.543,-2.5613,-2.5773,-2.5898,-2.5679,-2.5679,-2.5679,-2.5679,-2.5679,-2.575,-2.5892,-2.6548,-2.6938,-2.708,-2.7718,-2.802,-2.802,-2.8498,-2.8618,-2.8618,-2.8618,-2.8618,-2.8618,-2.8618,-2.8498,-2.8277,-2.8277,-2.814,-2.802,-2.802,-2.802,-2.802,-2.802,-2.814,-2.8277,-2.8277,-2.8517,-2.8874,-2.9213,-2.945,-2.9643,-3.0653,-3.1213,-3.1899,-3.3065,-3.3853,-3.4548,-3.5294,-3.6034,-3.6975,-3.8011,-3.9062,-4.0278,-4.1589,-4.4126,-4.6693,-4.8471,-5.0045,-5.1621,-5.3366,-5.4684,-5.6054,-5.7621,-5.8742,-5.9919,-6.1193,-6.1804,-6.2336,-6.2939,-6.2856,-6.2927,-6.3268,-6.3272,-6.3527,-6.4083,-6.4521,-6.4886,-6.5226,-6.5375,-6.5494,-6.5523,-6.569,-6.5769,-6.5795,-6.5317,-6.518,-6.5225,-6.469,-6.4173,-6.3729,-6.4038,-6.417,-6.4321,-6.5264,-6.5623,-6.5693,-6.6361,-6.6581,-6.6594,-2.0822,-2.113,-2.1318,-2.1318,-2.1725,-2.2131,-2.2131,-2.2333,-2.2552,-2.2653,0.0,0.0,0.0,0.0,0.0,-2.4455,-2.4881,-2.5271,-2.5661,-2.5679,-2.5679,-2.5679,-2.5679,-2.5679,-2.5679,-2.5679,-2.5892,-2.6299,-2.6672,-2.7062,-2.7335,-2.7842,-2.802,-2.802,-2.802,-2.802,-2.802,-2.802,-2.802,-2.802,-2.802,-2.802,-2.802,-2.802,-2.802,-2.802,-2.802,-2.802,-2.802,-2.802,-2.802,-2.802,-2.802,-2.8277,-2.8517,-2.8874,-2.9213,-2.9661,0.0,0.0,0.0,-3.3045,-3.3833,-3.4528,-3.517,-3.5932,-3.6545,-3.7253,-3.8596,-3.9877,-4.0856,-4.2469,-4.4394,-4.6872,-4.8932,-5.0906,-5.2644,-5.3906,-5.523,-5.6831,-5.7425,-5.8313,-5.9729,-6.03,-6.0733,-6.0834,-6.1671,-6.2045,-6.1878,-6.2464,-6.3205,-6.4042,-6.4482,-6.4743,-6.4888,-6.5226,-6.5413,-6.5413,-6.5523,-6.5674,-6.5793,-6.5795,-6.587,-6.602,-6.6097,-6.5196,-6.3826,-6.4696,-6.51,-6.5213,-6.6079,-6.6422,-6.6524,-6.6594,-6.6581,-6.6594,-2.0617,-2.0822,-2.1113,-2.1216,-2.142,-2.1623,-2.203,-2.2232,-2.2333,0.0,0.0,0.0,-2.2754,-2.3097,-2.3669,-2.4561,-2.4951,-2.5163,-2.5313,-2.5331,-2.5238,-2.5034,-2.5034,-2.5034,-2.5034,-2.5034,-2.5224,-2.5604,-2.5984,-2.6364,-2.6745,-2.7125,-2.7315,-2.7315,-2.7315,-2.7315,-2.7435,-2.7779,-2.802,-2.802,-2.802,-2.79,-2.7642,-2.7642,-2.7539,-2.7315,-2.7315,-2.7315,-2.7315,-2.7315,-2.7539,-2.7642,-2.79,-2.8277,-2.8517,-2.8636,-2.8874,-2.925,-2.9699,0.0,0.0,0.0,0.0,0.0,-3.4467,-3.517,-3.5911,-3.6889,-3.7725,-3.8777,-3.9965,-4.1211,-4.2769,-4.4738,-4.6836,-4.879,-5.0304,-5.1667,-5.3089,-5.4622,-5.5657,-5.691,-5.8311,-5.8752,-5.9282,-6.0046,-6.0539,-6.0996,-6.1394,-6.2479,-6.3336,-6.3792,-6.4206,-6.4521,-6.4743,-6.4958,-6.5128,-6.5321,-6.5413,-6.5532,-6.5674,-6.5755,-6.5859,-6.5996,-6.6013,-6.5788,-6.5466,-6.576,-6.5954,-6.6066,-6.6316,-6.6445,-6.6524,-6.6594,-6.6581,-6.6594,-2.0411,-2.0617,-2.0822,-2.113,-2.1232,-2.142,-2.1725,-2.1827,-2.203,0.0,0.0,0.0,-2.2997,-2.3461,-2.3963,-2.4429,-2.4837,-2.5011,-2.5,-2.5017,-2.4923,-2.4812,-2.4812,-2.4812,-2.4812,-2.4967,-2.5223,-2.56,-2.5977,-2.6354,-2.673,-2.697,-2.7073,-2.7073,-2.7073,-2.7073,-2.7073,-2.7435,-2.7659,-2.7659,-2.7659,-2.7539,-2.7297,-2.7297,-2.7177,-2.7073,-2.7073,-2.7073,-2.7073,-2.7073,-2.7177,-2.7418,-2.7642,-2.802,-2.8277,-2.8397,-2.8755,-2.9094,-2.945,-2.9987,-3.054,-3.1462,0.0,0.0,-3.4198,-3.4922,-3.5665,-3.6524,-3.7253,-3.7976,-3.9167,-4.0223,-4.1489,-4.3074,-4.4815,-4.6727,-4.8973,-5.0427,-5.1858,-5.3308,-5.4268,-5.5474,-5.686,-5.7357,-5.801,-5.8999,-5.9592,-6.0379,-6.1279,-6.2271,-6.3051,-6.3519,-6.3915,-6.4247,-6.4521,-6.4781,-6.4958,-6.5128,-6.529,-6.5413,-6.5523,-6.5646,-6.5781,-6.5923,-6.6005,-6.6036,-6.6058,-6.6144,-6.6284,-6.6376,-6.6376,-6.6428,-6.6524,-6.6594,-6.6581,-6.6594,0.0,-2.0411,-2.0514,-2.0822,-2.1011,-2.1216,-2.1318,-2.1554,-2.1791,0.0,-2.2518,-2.3009,-2.3682,-2.4025,-2.4247,-2.4299,-2.4624,-2.4812,-2.4812,-2.4812,-2.4812,-2.4812,-2.4812,-2.4847,-2.4881,-2.5206,-2.5583,-2.5994,-2.6319,-2.6696,-2.7073,-2.7073,-2.7073,-2.7073,-2.7073,-2.7073,-2.7073,-2.7073,-2.7073,-2.7073,-2.7073,-2.7073,-2.7073,-2.7073,-2.7073,-2.7073,-2.7073,-2.7073,-2.7073,-2.7073,-2.7073,-2.7194,-2.7401,-2.7642,-2.802,-2.8397,-2.8636,-2.8975,-2.9331,-2.9729,-3.0242,-3.1264,-3.2176,0.0,-3.3993,-3.4757,-3.5541,-3.6178,-3.6889,-3.7616,-3.8574,-3.9521,-4.0571,-4.1948,-4.3048,-4.4926,-4.827,-4.9707,-5.0947,-5.2319,-5.3031,-5.392,-5.541,-5.6107,-5.692,-5.7959,-5.8944,-6.0129,-6.143,-6.2041,-6.2654,-6.3147,-6.3654,-6.4,-6.4244,-6.4634,-6.4853,-6.4888,-6.5161,-6.5321,-6.5375,-6.5523,-6.5674,-6.5793,-6.5958,-6.599,-6.6013,-6.6123,-6.6284,-6.6376,-6.6376,-6.6428,-6.6524,-6.6594,-6.6581,-6.6594,-1.9894,-1.9983,-2.0292,-2.0514,-2.0617,-2.0822,-2.1216,-2.1577,-2.198,-2.2187,-2.2711,-2.3291,-2.3753,-2.4088,-2.4367,-2.4675,-2.4778,-2.4812,-2.4812,-2.4812,-2.4812,-2.4812,-2.4812,-2.4967,-2.5258,-2.5326,-2.5703,-2.6388,-2.6456,-2.6696,-2.7073,-2.7073,-2.7073,-2.7073,-2.7073,-2.7073,-2.7073,-2.7073,-2.7073,-2.7073,-2.7073,-2.7073,-2.7073,-2.7073,-2.7073,-2.7073,-2.7073,-2.7073,-2.7073,-2.7073,-2.7073,-2.7073,-2.7194,-2.7418,-2.7642,-2.802,-2.8277,-2.8636,-2.8993,-2.9387,-2.9792,-3.0566,-3.1367,0.0,-3.3307,-3.4057,-3.4922,-3.5788,-3.6524,-3.7374,-3.8551,-3.9403,-4.0339,-4.1834,-4.2824,-4.4119,-4.6009,-4.7591,-4.8994,-5.0086,-5.1409,-5.2821,-5.4229,-5.5113,-5.6146,-5.7331,-5.9012,-6.0317,-6.1221,-6.1951,-6.2552,-6.2855,-6.3382,-6.3742,-6.4,-6.4326,-6.4634,-6.4888,-6.5133,-6.5258,-6.5375,-6.5523,-6.5674,-6.5793,-6.5947,-6.6005,-6.6013,-6.608,-6.6205,-6.6376,-6.6376,-6.6428,-6.6524,-6.6594,-6.6581,-6.6594,-1.9687,-1.9776,-1.9983,-2.0292,-2.0411,-2.0679,-2.1043,-2.1442,-2.1828,-2.2339,-2.2881,-2.3445,-2.3828,-2.3971,-2.4149,-2.4351,-2.4368,-2.4368,-2.4368,-2.4368,-2.4368,-2.4368,-2.4553,-2.4738,-2.4906,-2.5276,-2.5646,-2.6016,-2.6201,-2.6386,-2.6571,-2.6813,-2.683,-2.683,-2.683,-2.683,-2.683,-2.6692,-2.6688,-2.684,-2.702,-2.7071,-2.7102,-2.7102,-2.7097,-2.7125,-2.7373,-2.7497,-2.7604,-2.7398,-2.7347,-2.7313,-2.7124,-2.7297,-2.7521,-2.7642,-2.814,-2.8517,-2.8755,-2.8975,-2.9424,-3.0332,-3.099,0.0,0.0,-3.3853,-3.4673,-3.5418,-3.6156,-3.7011,-3.8096,-3.9049,-3.9989,-4.1378,-4.2513,-4.3628,-4.4938,-4.661,-4.805,-4.9346,-5.0698,-5.2094,-5.3346,-5.4601,-5.6067,-5.7701,-5.9012,-6.0065,-6.0867,-6.16,-6.2149,-6.2603,-6.3099,-6.3557,-6.383,-6.4166,-6.4481,-6.4745,-6.4924,-6.5128,-6.529,-6.5435,-6.5552,-6.5701,-6.5859,-6.5919,-6.6013,-6.608,-6.6205,-6.6376,-6.6376,-6.6428,-6.6524,-6.6594,-6.6581,-6.6594,-1.9509,-1.9583,-1.9702,-2.0074,-2.0297,-2.0612,-2.1043,-2.1274,-2.1783,-2.2457,-2.2966,-2.3464,-2.3776,-2.3921,-2.3921,-2.3921,-2.3921,-2.3954,-2.402,-2.402,-2.4053,-2.4119,-2.4416,-2.4598,-2.4565,-2.5241,-2.5572,-2.5638,-2.5935,-2.6067,-2.6067,-2.6327,-2.6449,-2.6449,-2.6449,-2.6449,-2.6449,-2.6272,-2.6348,-2.6612,-2.7013,-2.7097,-2.7119,-2.7119,-2.7051,-2.7173,-2.7554,-2.7933,-2.8009,-2.7826,-2.7723,-2.7672,-2.7381,-2.7522,-2.7626,-2.7748,-2.8129,-2.863,-2.8751,-2.8992,-2.9407,-3.0344,-3.0982,-3.1627,0.0,0.0,0.0,-3.517,-3.5932,-3.6667,-3.7758,-3.8596,-3.9638,-4.0803,-4.2061,-4.3184,-4.4396,-4.6007,-4.7568,-4.898,-5.0316,-5.1635,-5.2815,-5.4517,-5.6303,-5.8137,-5.8944,-5.9779,-6.0512,-6.114,-6.1768,-6.2344,-6.2904,-6.3336,-6.3736,-6.4079,-6.4364,-6.4558,-6.4781,-6.5031,-6.5232,-6.5352,-6.5465,-6.5608,-6.5743,-6.587,-6.6013,-6.6058,-6.6185,-6.6376,-6.6376,-6.6428,-6.6524,-6.6594,-6.6581,-6.6594,-1.8984,-1.9182,-1.9568,-2.0061,-2.0227,-2.0545,-2.131,-2.1729,-2.2166,-2.2847,-2.3263,-2.3536,-2.3585,-2.3809,-2.3921,-2.3921,-2.3921,-2.4053,-2.4269,-2.4285,-2.4548,-2.4862,-2.4911,-2.5093,-2.5407,-2.5506,-2.5704,-2.6017,-2.605,-2.6067,-2.6067,-2.6189,-2.6205,-2.6205,-2.6205,-2.6205,-2.6222,-2.6414,-2.6579,-2.6645,-2.6925,-2.7074,-2.7107,-2.7107,-2.714,-2.7173,-2.7554,-2.7664,-2.779,-2.8009,-2.8117,-2.8117,-2.8083,-2.8066,-2.8191,-2.8442,-2.8817,-2.919,-2.9421,-2.981,-3.0199,-3.0605,-3.1151,-3.1846,-3.2277,0.0,-3.4548,-3.4922,0.0,-3.6667,-3.7758,0.0,0.0,-4.0571,-4.1606,-4.26,-4.3713,-4.5235,-4.6742,-4.838,-4.9931,-5.1356,-5.2516,-5.4653,-5.6414,-5.7588,-5.8562,-5.945,-6.0325,-6.1081,-6.1712,-6.2185,-6.2755,-6.3147,-6.3428,-6.3873,-6.4206,-6.4405,-6.4745,-6.5031,-6.5232,-6.5352,-6.5465,-6.5608,-6.5728,-6.5884,-6.6013,-6.6013,-6.6165,-6.6376,-6.6376,-6.6428,-6.6524,-6.6594,-6.6581,-6.6594,-1.9362,-1.9521,-1.9779,-2.0126,-2.0357,-2.0677,-2.1228,-2.1911,-2.2398,-2.278,-2.3022,-2.3247,-2.3247,-2.3424,-2.3666,-2.3666,-2.3843,-2.4037,-2.4182,-2.4182,-2.4246,-2.4525,-2.4601,-2.4795,-2.494,-2.5149,-2.5327,-2.5472,-2.5472,-2.5472,-2.5472,-2.5717,-2.5839,-2.5839,-2.5839,-2.5954,-2.615,-2.6064,-2.6246,-2.6632,-2.6778,-2.6971,-2.7132,-2.7182,-2.723,-2.7524,-2.7654,-2.793,-2.8303,-2.8212,-2.8401,-2.8494,-2.8271,-2.8186,-2.8203,-2.8329,-2.8832,-2.919,-2.9315,-2.9813,-3.0328,-3.0556,-3.1227,-3.1903,-3.2171,-3.325,-3.4173,-3.4548,0.0,0.0,0.0,0.0,0.0,0.0,-4.1378,-4.2389,-4.3169,-4.4413,-4.6021,-4.7993,-4.9444,-5.1139,-5.3196,-5.4736,-5.6179,-5.7364,-5.8209,-5.9012,-5.9779,-6.0538,-6.1198,-6.1804,-6.236,-6.2855,-6.3242,-6.3736,-6.4079,-6.4364,-6.4596,-6.4853,-6.5095,-6.5226,-6.5413,-6.5608,-6.5674,-6.5795,-6.6013,-6.6013,-6.6144,-6.6376,-6.6376,-6.6445,-6.6553,-6.6607,-6.6633,-6.6735,-1.9724,-1.9708,-1.9828,-2.0135,-2.0369,-2.0693,-2.1257,-2.1963,-2.2456,-2.2456,-2.2761,-2.2938,-2.3051,-2.3368,-2.3573,-2.3689,-2.3912,-2.4086,-2.4182,-2.4198,-2.4245,-2.4341,-2.4595,-2.4722,-2.4722,-2.4976,-2.5103,-2.5103,-2.5103,-2.5103,-2.5103,-2.5365,-2.5488,-2.5488,-2.5585,-2.5762,-2.6004,-2.5961,-2.6215,-2.6676,-2.6787,-2.6978,-2.7185,-2.7178,-2.7374,-2.7584,-2.7716,-2.8114,-2.8625,-2.8488,-2.8663,-2.8871,-2.858,-2.8494,-2.8494,-2.8494,-2.8876,-2.9383,-2.9509,-2.9888,-3.0534,-3.0766,-3.149,-3.2074,-3.2218,-3.3203,-3.4047,-3.4298,-3.517,0.0,0.0,0.0,-3.9003,-3.9686,0.0,-4.1867,-4.2417,-4.3598,-4.5088,-4.7158,-4.8895,-5.0755,-5.3067,-5.4191,-5.5273,-5.6429,-5.7311,-5.805,-5.889,-5.9593,-6.0345,-6.1163,-6.1768,-6.2434,-6.3147,-6.3557,-6.391,-6.4244,-6.4443,-6.4708,-6.4993,-6.5128,-6.5352,-6.558,-6.558,-6.5769,-6.6013,-6.6013,-6.6144,-6.6376,-6.6376,-6.6477,-6.6581,-6.6607,-6.6645,-6.6836,-1.9666,-1.9527,-1.9555,-2.0215,-2.0272,-2.0598,-2.1487,-2.1888,-2.2116,-2.2116,-2.2406,-2.272,-2.3068,-2.338,-2.37,-2.4039,-2.4039,-2.4198,-2.4547,-2.4563,-2.4722,-2.5056,-2.5087,-2.5087,-2.5087,-2.5103,-2.5103,-2.5103,-2.5103,-2.5103,-2.5103,-2.5103,-2.5103,-2.5119,-2.5469,-2.5628,-2.5675,-2.6358,-2.666,-2.6708,-2.7042,-2.72,-2.72,-2.7185,-2.72,-2.72,-2.7584,-2.7981,-2.8395,-2.8659,-2.9036,-2.9299,-2.9282,-2.9282,-2.9282,-2.9282,-2.9526,-2.9917,-3.0195,-3.0584,-3.0972,-3.1341,-3.1873,-3.2403,-3.2403,-3.3165,-3.4047,-3.4298,-3.517,-3.6034,-3.6767,-3.7758,-3.8557,-3.8989,-3.9812,0.0,0.0,-4.2578,-4.4001,-4.5663,-4.8126,-5.0056,-5.1265,-5.2458,-5.3493,-5.4527,-5.5471,-5.6371,-5.7324,-5.8008,-5.9015,-6.0428,-6.097,-6.1798,-6.3002,-6.3419,-6.378,-6.4121,-6.4287,-6.4558,-6.4888,-6.5133,-6.5321,-6.5494,-6.558,-6.5769,-6.6013,-6.6013,-6.6144,-6.6376,-6.6376,-6.6493,-6.6581,-6.6581,-6.6645,-6.6836,-1.9113,-1.93,-1.9549,-2.0216,-2.0459,-2.073,-2.1303,-2.166,-2.185,-2.2075,-2.2427,-2.2711,-2.3043,-2.3365,-2.3685,-2.3789,-2.4006,-2.4192,-2.4301,-2.4316,-2.4363,-2.4471,-2.461,-2.4734,-2.4734,-2.498,-2.5103,-2.5103,-2.5103,-2.5103,-2.5119,-2.5342,-2.5453,-2.5469,-2.5818,-2.6104,-2.6342,-2.6581,-2.6803,-2.7042,-2.7153,-2.72,-2.72,-2.72,-2.72,-2.72,-2.7334,-2.7733,-2.8263,-2.8395,-2.879,-2.9316,-2.9316,-2.9316,-2.9316,-2.9316,-2.9561,-2.9952,-3.023,-3.062,-3.1009,-3.1377,-3.1782,-3.2166,-3.2294,-3.2804,-3.3418,-3.4298,-3.4797,-3.5541,-3.6401,-3.7396,-3.8201,-3.8619,-3.9561,-4.0377,0.0,-4.2158,-4.3709,-4.4892,-4.7478,-4.9642,-5.0948,-5.1986,-5.3003,-5.4194,-5.508,-5.5996,-5.6867,-5.7569,-5.8627,-6.0017,-6.0666,-6.1506,-6.2755,-6.3194,-6.3647,-6.391,-6.4247,-6.4521,-6.4779,-6.5061,-6.5321,-6.5494,-6.558,-6.5769,-6.6013,-6.6013,-6.6144,-6.6376,-6.6376,-6.6493,-6.6581,-6.6581,-6.7008,-6.7754,-1.8648,-1.8997,-1.9359,-2.004,-2.0385,-2.0644,-2.1119,-2.1364,-2.1713,-2.2053,-2.2423,-2.2691,-2.3036,-2.3339,-2.3657,-2.378,-2.3978,-2.4115,-2.4115,-2.4115,-2.4115,-2.4115,-2.4363,-2.4363,-2.4363,-2.461,-2.4734,-2.4734,-2.4859,-2.4922,-2.5061,-2.5408,-2.5692,-2.5834,-2.6184,-2.6454,-2.6676,-2.6803,-2.6994,-2.72,-2.72,-2.728,-2.7391,-2.7391,-2.7312,-2.72,-2.72,-2.7733,-2.8263,-2.8263,-2.879,-2.9316,-2.9316,-2.9316,-2.9316,-2.9316,-2.943,-2.9691,-3.0248,-3.0508,-3.0879,-3.1249,-3.1653,-3.2057,-3.2294,-3.2676,-3.3165,-3.4173,-3.4673,-3.517,-3.6178,-3.7275,-3.8015,-3.8159,-3.9278,-4.0123,0.0,-4.208,-4.3519,-4.4555,-4.6745,-4.8713,-4.9928,-5.0982,-5.2027,-5.3105,-5.4023,-5.494,-5.5778,-5.6516,-5.7645,-5.9416,-6.0015,-6.1006,-6.2567,-6.3051,-6.3428,-6.378,-6.4166,-6.4444,-6.467,-6.5027,-6.529,-6.5465,-6.5552,-6.5769,-6.6013,-6.6013,-6.6144,-6.6376,-6.6376,-6.6493,-6.662,-6.6932,-6.7848,-6.908,-1.8298,-1.8661,-1.914,-1.972,-2.0067,-2.0512,-2.1145,-2.1203,-2.1464,-2.2035,-2.2447,-2.2745,-2.3018,-2.3424,-2.3743,-2.4007,-2.4131,-2.4146,-2.4161,-2.4161,-2.4161,-2.4161,-2.4161,-2.4161,-2.4161,-2.4161,-2.4161,-2.4161,-2.4482,-2.4776,-2.5155,-2.5386,-2.5798,-2.6184,-2.6549,-2.6708,-2.6724,-2.7057,-2.7216,-2.7232,-2.7232,-2.7439,-2.7757,-2.7757,-2.755,-2.7248,-2.7248,-2.7648,-2.8329,-2.8312,-2.8841,-2.9367,-2.9367,-2.935,-2.9333,-2.9333,-2.9333,-2.9447,-3.0248,-3.0378,-3.049,-3.1249,-3.1653,-3.191,-3.2294,-3.2676,-3.3165,-3.4173,-3.4673,-3.517,-3.6178,-3.7154,-3.7784,-3.7725,-3.876,-3.9913,-4.1126,-4.2164,-4.3355,-4.4555,-4.6016,-4.7249,-4.8218,-4.939,-5.0493,-5.1327,-5.2307,-5.3281,-5.4141,-5.4834,-5.6223,-5.8538,-5.9114,-6.0409,-6.253,-6.2818,-6.3242,-6.378,-6.4083,-6.4366,-6.4596,-6.4993,-6.5258,-6.5413,-6.5523,-6.5769,-6.6013,-6.6013,-6.6144,-6.6376,-6.6376,-6.6532,-6.6815,-6.7684,-6.9078,-7.0606,-1.8089,-1.8475,-1.8957,-1.9312,-1.9902,-2.0413,-2.0718,-2.1047,-2.13,-2.1732,-2.209,-2.2342,-2.2711,-2.3062,-2.3333,-2.371,-2.3725,-2.3828,-2.408,-2.4094,-2.4094,-2.4094,-2.4351,-2.4479,-2.4479,-2.4735,-2.4863,-2.4863,-2.4955,-2.5001,-2.5129,-2.5467,-2.5751,-2.6143,-2.6503,-2.6808,-2.7073,-2.7169,-2.7359,-2.7598,-2.7598,-2.7788,-2.809,-2.809,-2.8043,-2.7963,-2.7963,-2.8237,-2.8663,-2.8919,-2.9343,-2.975,-3.0003,-2.9967,-2.9744,-2.9744,-2.9539,-2.9447,-3.0248,-3.0378,-3.049,-3.1249,-3.1506,-3.1635,-3.2294,-3.2422,-3.2912,-3.4173,-3.4423,-3.4922,-3.6178,-3.7011,-3.7657,-3.8227,-3.9133,-4.0109,-4.0873,-4.1967,-4.3039,-4.4303,-4.5566,-4.6901,-4.8218,-4.9178,-5.0182,-5.1327,-5.2203,-5.3076,-5.4045,-5.4648,-5.5834,-5.7468,-5.8606,-5.9943,-6.1381,-6.2462,-6.3194,-6.3647,-6.3958,-6.4287,-6.4596,-6.4886,-6.5194,-6.5413,-6.5523,-6.5769,-6.6013,-6.6013,-6.6144,-6.6376,-6.6376,-6.727,-6.8579,-6.8861,-6.9616,-7.0684,-1.7872,-1.8344,-1.8892,-1.9253,-1.9719,-2.0187,-2.0777,-2.1036,-2.138,-2.181,-2.1976,-2.2213,-2.2525,-2.282,-2.2949,-2.3264,-2.3422,-2.3623,-2.3811,-2.3956,-2.4086,-2.4086,-2.4346,-2.4346,-2.4346,-2.4605,-2.4605,-2.4605,-2.4755,-2.496,-2.5091,-2.5423,-2.5707,-2.6105,-2.6306,-2.6666,-2.6949,-2.7225,-2.755,-2.7741,-2.7884,-2.8154,0.0,-2.8456,-2.8551,-2.8694,-2.8694,-2.8782,-2.8802,-2.9198,-2.961,-2.99,-3.0293,-3.0292,-3.0138,-3.0138,-2.9967,-2.9929,-3.0743,-3.0875,-3.0971,-3.1577,-3.1653,-3.1727,-3.2332,-3.2422,-3.2804,-3.4173,-3.4423,-3.4797,-3.6178,-3.6911,-3.7821,-3.8966,-3.9465,-4.0165,-4.1004,-4.1928,-4.2943,-4.4087,-4.5293,-4.655,-4.7849,-4.8934,-5.0058,-5.1102,-5.1987,-5.287,-5.3849,-5.446,-5.5724,-5.7565,-5.8601,-5.9889,-6.1495,-6.2434,-6.3147,-6.3602,-6.3953,-6.4284,-6.4596,-6.485,-6.5123,-6.5413,-6.5523,-6.5769,-6.6013,-6.6013,-6.6144,-6.6433,-6.6904,-6.7913,-6.9241,-6.969,-7.0415,-7.123,-1.7757,-1.8264,-1.8692,-1.9183,-1.9423,-1.9987,-2.0983,-2.1107,-2.1313,-2.1825,-2.202,-2.2145,-2.2552,-2.2608,-2.2762,-2.307,-2.3346,-2.3505,-2.3534,-2.3941,-2.4072,-2.4072,-2.4072,-2.4203,-2.4203,-2.4203,-2.4203,-2.4203,-2.4496,-2.476,-2.5173,-2.5457,-2.5727,-2.6011,-2.6011,-2.6295,-2.6744,-2.7374,-2.782,-2.79,-2.8186,-2.8519,-2.8837,-2.8837,-2.9028,-2.9298,-2.9298,-2.9042,-2.8931,-2.9346,-2.9622,-3.0052,-3.0446,-3.0549,-3.0515,-3.0515,-3.0463,-3.0565,-3.1261,-3.1531,-3.1577,-3.2034,-3.2074,-3.2114,-3.2464,-3.2497,-3.2861,-3.4193,-3.4423,-3.4797,-3.6178,-3.7011,-3.8037,-3.9518,-3.9806,-4.012,-4.1154,-4.1992,-4.2831,-4.3899,-4.4989,0.0,-4.7422,-4.8769,-4.99,-5.0723,-5.1696,-5.2661,-5.3617,-5.4333,-5.5741,-5.8001,-5.8609,-5.9924,-6.1986,-6.2567,-6.3051,-6.3602,-6.3953,-6.4284,-6.4596,-6.485,-6.5123,-6.5413,-6.5523,-6.5769,-6.599,-6.6013,-6.6221,-6.6665,-6.7656,-6.8605,-6.9474,-7.0392,-7.1224,-7.1893,-1.7702,-1.8049,-1.8476,-1.91,-1.9449,-1.9763,-2.0284,-2.0537,-2.0803,-2.0856,-2.1578,-2.2139,-2.2181,-2.2674,-2.307,-2.3378,-2.3406,-2.3651,-2.3919,-2.3933,-2.4068,-2.4068,-2.4338,-2.4473,-2.4473,-2.4756,-2.4891,-2.4891,-2.4949,-2.5113,-2.5113,-2.5172,-2.5322,-2.5727,-2.5727,-2.6148,-2.7118,-2.7598,-2.8051,-2.8599,-2.8646,-2.8885,-2.9202,-2.9202,-2.925,-2.9298,-2.9298,-2.9218,-2.925,-2.996,-3.0244,-3.0385,-3.123,-3.1165,-3.0909,-3.0909,-3.0686,-3.0565,-3.1261,-3.1531,-3.1648,-3.2381,-3.2496,-3.2519,-3.2879,-3.2914,-3.3206,-3.4253,-3.4423,-3.4797,-3.6178,-3.7616,-3.8653,-3.9082,-3.9961,-4.0635,-4.0891,-4.1826,-4.2896,-4.3859,-4.4926,-4.6046,-4.7193,-4.8355,-4.955,-5.0723,-5.1549,-5.2487,-5.3382,-5.4141,-5.5251,-5.6832,-5.8117,-5.947,-6.1045,-6.2223,-6.3051,-6.3602,-6.383,-6.4166,-6.4596,-6.4817,-6.5061,-6.5321,-6.5494,-6.5743,-6.5905,-6.599,-6.6531,-6.748,-6.855,-6.95,-7.0369,-7.1249,-7.1731,-7.1893,-1.761,-1.7931,-1.8244,-1.8498,-1.886,-1.9084,-1.934,-1.9848,-2.0323,-2.058,-2.0954,-2.141,-2.1964,-2.2257,-2.2592,-2.316,-2.3323,-2.3527,-2.3679,-2.3816,-2.3966,-2.3966,-2.4088,-2.4224,-2.4224,-2.4645,-2.4781,-2.4781,-2.5052,-2.5052,-2.5052,-2.5052,-2.5187,-2.5337,-2.565,-2.6299,-2.7185,-2.7679,-2.8334,-2.8789,-2.8964,-2.9139,-2.9298,-2.9298,-2.9298,-2.9298,-2.9298,-2.9298,-2.9441,-3.0157,-3.0442,-3.0584,-3.1294,-3.1439,-3.1302,-3.1302,-3.1165,-3.115,-3.1858,-3.2134,-3.2236,-3.2838,-3.2918,-3.2942,-3.3313,-3.335,-3.3628,-3.4612,-3.4765,-3.5207,-3.6444,-3.7736,-3.8744,-3.9314,-4.0093,-4.0721,-4.1379,-4.2087,-4.2838,-4.3918,-4.4939,-4.5956,-4.7019,-4.8103,-4.9228,-5.0416,-5.1475,-5.2345,-5.3179,-5.4453,-5.5709,-5.7193,-5.8591,-6.0008,-6.139,-6.2369,-6.3002,-6.3511,-6.3742,-6.4125,-6.452,-6.4781,-6.5027,-6.529,-6.5494,-6.5717,-6.5943,-6.6587,-6.7135,-6.7751,-6.9289,-7.0123,-7.0603,-7.1505,-7.1867,-7.1893,-1.7621,-1.778,-1.7905,-1.8033,-1.8348,-1.8524,-1.8524,-1.9268,-1.9936,-2.0396,-2.0628,-2.0989,-2.1706,-2.181,-2.2062,-2.2572,-2.2996,-2.3133,-2.3133,-2.3543,-2.383,-2.383,-2.3816,-2.3816,-2.3816,-2.4224,-2.436,-2.436,-2.4853,-2.5018,-2.5018,-2.5227,-2.5257,-2.5271,-2.5884,-2.6583,-2.7104,-2.7879,-2.8459,-2.8759,-2.9186,-2.9298,-2.9298,-2.9298,-2.9298,-2.9298,-2.9298,-2.9298,-2.9441,-3.0014,-3.0299,-3.0584,-3.1294,-3.1559,-3.1559,-3.1559,-3.1559,-3.17,-3.2421,-3.2561,-3.277,-3.3157,-3.3221,-3.3384,-3.3765,-3.3804,-3.4068,-3.4943,-3.5295,-3.5704,-3.6609,-3.7637,-3.8738,-3.9521,-4.0101,-4.0813,-4.1913,-4.2525,-4.3163,-4.4228,-4.5025,-4.5949,-4.7022,-4.794,-4.9078,-5.0248,-5.1317,-5.234,-5.3278,-5.4798,-5.6333,-5.7965,-5.9266,-6.0583,-6.1969,-6.2552,-6.3002,-6.3382,-6.3742,-6.4083,-6.4405,-6.4745,-6.5027,-6.529,-6.5494,-6.582,-6.6275,-6.7213,-6.7811,-6.8294,-6.9872,-7.059,-7.0836,-7.1633,-7.1915,-7.1932,-1.7496,-1.7518,-1.7658,-1.7905,-1.8239,-1.8399,-1.8399,-1.8737,-1.9217,-1.9911,-2.0693,-2.1289,-2.134,-2.1569,-2.1872,-2.1897,-2.2173,-2.2448,-2.2448,-2.2722,-2.2996,-2.2996,-2.327,-2.3406,-2.3406,-2.3816,-2.4102,-2.4102,-2.4659,-2.5077,-2.5077,-2.5644,-2.593,-2.5944,-2.6266,-2.6712,-2.7169,-2.7803,-2.8372,-2.8804,-2.9138,-2.9298,-2.9298,-2.9298,-2.9298,-2.9298,-2.9298,-2.9298,-2.9441,-2.9855,-3.0157,-3.0442,-3.0868,-3.1294,-3.1559,-3.1559,-3.1559,-3.17,-3.2105,-3.2403,-3.2841,-3.3224,-3.3484,-3.3789,-3.4199,-3.424,-3.4394,-3.5119,-3.5881,-3.6478,-3.6508,-3.7517,-3.8619,-3.919,-4.0292,-4.1225,-4.1963,-4.2982,-4.3991,-4.4784,-4.5288,-4.6125,-4.7584,-4.8097,-4.9047,-5.0816,-5.123,-5.2284,-5.4121,-5.4973,-5.6448,-5.8737,-5.9515,-6.0583,-6.1969,-6.2552,-6.3002,-6.3382,-6.3742,-6.4083,-6.4405,-6.4745,-6.5027,-6.529,-6.5494,-6.6192,-6.7193,-6.7503,-6.8548,-7.0001,-7.0339,-7.094,-7.1615,-7.1827,-7.1915,-7.201,-1.6882,-1.6882,-1.7066,-1.7598,-1.7829,-1.8083,-1.8239,-1.8732,-1.9128,-1.9428,-1.9999,-2.06,-2.1171,-2.1421,-2.1484,-2.1772,-2.2051,-2.2293,-2.2293,-2.26,-2.2845,-2.3126,-2.3267,-2.3407,-2.3687,-2.3967,-2.4247,-2.4247,-2.4638,-2.4974,-2.5254,-2.5524,-2.5838,-2.631,-2.6442,-2.689,-2.7356,-2.7939,-2.8274,-2.8707,-2.9138,-2.9425,-2.9615,-2.9615,-2.9743,-2.9901,-2.9901,-2.9901,-2.9901,-3.0048,-3.0211,-3.0442,-3.0868,-3.1277,-3.1559,-3.1559,-3.1559,-3.17,-3.1965,-3.2403,-3.2841,-3.3139,-3.3539,-3.3918,-3.4576,-3.4675,-3.4814,-3.5461,-3.633,-3.7024,-3.6809,-3.7955,-3.8935,-3.9236,-4.0339,-4.1419,-4.2438,-4.3316,-4.4151,-4.518,-4.5804,-4.669,-4.79,-4.892,-5.0013,-5.1297,-5.183,-5.2795,-5.4539,-5.5962,-5.7351,-5.8752,-5.9987,-6.1028,-6.1969,-6.2552,-6.2953,-6.3289,-6.3698,-6.4042,-6.4289,-6.4745,-6.5128,-6.5503,-6.6254,-6.6858,-6.7386,-6.8665,-6.9556,-7.0272,-7.0961,-7.1407,-7.1732,-7.1848,-7.2236,-7.2799,-1.6364,-1.6426,-1.6529,-1.6949,-1.7353,-1.7771,-1.7944,-1.8435,-1.8865,-1.9141,-1.929,-1.9772,-2.0641,-2.0792,-2.0967,-2.1331,-2.1785,-2.2077,-2.2165,-2.2355,-2.2768,-2.3054,-2.3197,-2.334,-2.3625,-2.391,-2.4195,-2.4195,-2.4547,-2.5002,-2.5442,-2.5684,-2.6127,-2.6647,-2.6647,-2.6908,-2.742,-2.784,-2.8191,-2.8718,-2.9152,-2.9518,-2.9965,-2.9965,-3.0108,-3.0315,-3.0315,-3.0315,-3.0315,-3.0315,-3.0437,-3.0611,-3.1043,-3.1473,-3.1902,-3.1902,-3.1902,-3.201,-3.2031,-3.2438,-3.2843,-3.3017,-3.34,-3.3955,-3.4784,-3.4921,-3.5081,-3.587,-3.6697,-3.738,-3.7297,-3.8328,-3.9205,-3.9465,-4.0433,-4.1492,-4.2849,-4.3598,-4.452,-4.5597,-4.6373,-4.7156,-4.8202,-4.9494,-5.0697,-5.1821,-5.2605,-5.3662,-5.5015,-5.6602,-5.7943,-5.901,-6.0291,-6.1292,-6.1969,-6.2552,-6.2904,-6.3231,-6.3698,-6.4042,-6.4249,-6.4779,-6.5404,-6.603,-6.6871,-6.7571,-6.8158,-6.9595,-7.0331,-7.066,-7.1427,-7.1718,-7.1732,-7.1858,-7.2439,-7.3306,-1.5974,-1.6156,-1.6318,-1.6318,-1.6682,-1.7113,-1.7527,-1.7715,-1.8142,-1.8843,-1.8982,-1.9122,-1.9541,-1.997,-2.0215,-2.0474,-2.1193,-2.1728,-2.2025,-2.2337,-2.2624,-2.2624,-2.3054,-2.3197,-2.3197,-2.3625,-2.3768,-2.3768,-2.4467,-2.5036,-2.5482,-2.6532,-2.6983,-2.6983,-2.6983,-2.6983,-2.6983,-2.742,-2.8036,-2.8796,-2.9074,-2.9702,-3.0315,-3.0315,-3.0315,-3.0315,-3.0315,-3.0315,-3.0315,-3.0315,-3.0627,-3.0924,-3.1367,-3.2086,-3.2672,-3.2672,-3.2672,-3.2587,-3.2227,-3.2698,-3.318,-3.2808,-3.326,-3.3955,-3.4784,-3.4921,-3.5199,-3.623,-3.6942,-3.7452,-3.7742,-3.8525,-3.9318,-3.99,-4.0669,-4.1492,-4.2849,-4.3958,-4.5127,-4.6191,-4.6809,-4.7616,-4.8872,-4.9553,-5.0708,-5.2596,-5.3743,-5.4783,-5.5854,-5.6693,-5.7913,-5.9744,-6.0415,-6.1198,-6.1969,-6.2552,-6.2904,-6.3231,-6.3698,-6.4042,-6.4249,-6.5019,-6.5962,-6.6901,-6.7191,-6.8251,-6.9895,-7.0098,-7.0719,-7.1513,-7.1661,-7.1718,-7.1732,-7.1858,-7.2439,-7.3306,-1.58,-1.5988,-1.632,-1.6752,-1.6894,-1.7036,-1.7317,-1.7398,-1.759,-1.7872,-1.8149,-1.8528,-1.867,-1.9379,-2.0048,-2.0301,-2.1065,-2.1498,-2.1594,-2.2056,-2.2448,-2.2743,-2.289,-2.3184,-2.3771,-2.3917,-2.4063,-2.4369,-2.4596,-2.5075,-2.566,-2.6342,-2.6692,-2.6998,-2.7217,-2.732,-2.7335,-2.7985,-2.8447,-2.9,-2.9431,-3.008,-3.0696,-3.0696,-3.0839,-3.1045,-3.1045,-3.1045,-3.1045,-3.1045,-3.1349,-3.1653,-3.2107,-3.2209,-3.2397,-3.2689,-3.2689,-3.2655,-3.2535,-3.3099,-3.3659,-3.3535,-3.3855,-3.4342,-3.5199,-3.5525,-3.584,-3.6764,-3.7391,-3.7909,-3.823,-3.9292,-4.0084,-4.0014,-4.0952,-4.1904,-4.2925,-4.3958,-4.5154,-4.6218,-4.7169,-4.8269,-4.9349,-5.0411,-5.1635,-5.2972,-5.4198,-5.5295,-5.6392,-5.7257,-5.8323,-5.9418,-6.029,-6.114,-6.1768,-6.2397,-6.2855,-6.3231,-6.3647,-6.4425,-6.5539,-6.6597,-6.734,-6.7832,-6.8693,-6.937,-6.9972,-7.0756,-7.1262,-7.1513,-7.1661,-7.1718,-7.1771,-7.2521,-7.3337,-7.4203,-1.5635,-1.5943,-1.6128,-1.654,-1.6639,-1.6737,-1.7007,-1.7026,-1.7168,-1.7308,-1.7643,-1.796,-1.8053,-1.9004,-1.9692,-2.014,-2.0738,-2.1172,-2.1277,-2.1727,-2.2259,-2.2408,-2.2707,-2.3154,-2.36,-2.3896,-2.4193,-2.4341,-2.4636,-2.5226,-2.58,-2.6367,-2.6865,-2.7188,-2.751,-2.7656,-2.7671,-2.8162,-2.8612,-2.9335,-2.9637,-3.0291,-3.1061,-3.1061,-3.1204,-3.1395,-3.1395,-3.1395,-3.1395,-3.1395,-3.1549,-3.184,-3.2452,-3.2442,-3.2375,-3.2969,-3.3117,-3.3083,-3.2946,-3.35,-3.4067,-3.3925,-3.427,-3.4747,-3.5425,-3.5893,-3.6484,-3.6984,-3.7595,-3.8291,-3.8696,-3.9774,-4.0455,-4.0563,-4.1518,-4.2506,-4.325,-4.4266,-4.5391,-4.6245,-4.7466,-4.8481,-4.9571,-5.0822,-5.2094,-5.3227,-5.4465,-5.5572,-5.6603,-5.7554,-5.8422,-5.9284,-6.0164,-6.0962,-6.16,-6.2529,-6.3195,-6.3627,-6.448,-6.5451,-6.6592,-6.7469,-6.8181,-6.8675,-6.9541,-7.0088,-7.0444,-7.1182,-7.1494,-7.1532,-7.1661,-7.1913,-7.2276,-7.2949,-7.3961,-7.5061,-1.5583,-1.5744,-1.5886,0.0,-1.6046,-1.6178,-1.6593,-1.6593,-1.6734,-1.7188,-1.7378,-1.7743,-1.7976,-1.8505,-1.9234,-1.9966,-2.0399,-2.0797,-2.1048,-2.136,-2.166,-2.166,-2.2408,-2.2856,-2.2856,-2.36,-2.3896,-2.4071,-2.4837,-2.5428,-2.587,-2.6609,-2.7049,-2.7525,-2.7847,-2.7978,-2.7993,-2.8008,-2.8639,-2.9671,-2.9671,-3.0329,-3.1395,-3.1395,-3.1395,-3.1395,-3.1395,-3.1395,-3.1395,-3.1395,-3.1395,-3.1549,-3.2299,-3.2588,-3.2757,-3.3534,-3.3837,-3.3768,-3.3409,-3.39,-3.4386,-3.4049,-3.4523,-3.5259,-3.552,-3.6124,-3.6819,-3.7084,-3.7616,-3.8395,-3.9078,-3.9993,-4.0702,-4.141,-4.2249,-4.3065,-4.3712,-4.4857,-4.5757,-4.6407,-4.7474,-4.8594,-4.9658,-5.0882,-5.2094,-5.329,-5.4444,-5.5637,-5.6735,-5.7607,-5.845,-5.9353,-6.0013,-6.0767,-6.1666,-6.2948,-6.3884,-6.434,-6.6007,-6.7007,-6.739,-6.785,-6.8602,-6.951,-6.9849,-7.0459,-7.1224,-7.1435,-7.1571,-7.1702,-7.1753,-7.2341,-7.3107,-7.33,-7.439,-7.5803,0.0,0.0,-1.5256,-1.5256,-1.5301,-1.5337,-1.5328,-1.5603,-1.5942,-1.6252,-1.6885,-1.7536,-1.7763,-1.8281,-1.8713,-1.8864,-1.9908,-2.053,-2.0597,-2.106,-2.1372,-2.166,-2.181,-2.2259,-2.2856,-2.3005,-2.3553,-2.437,-2.5046,-2.5607,-2.6061,-2.6584,-2.6914,-2.7395,-2.8016,-2.833,-2.833,-2.8564,-2.902,-2.9559,-2.9868,-3.0377,-3.0933,-3.1241,-3.1395,-3.1395,-3.1395,-3.1395,-3.1395,-3.1395,-3.1395,-3.1549,-3.1993,-3.2299,-3.2757,-3.3534,-3.3837,-3.382,-3.3734,-3.4284,-3.4847,-3.4759,-3.5559,-3.6262,-3.6096,-3.6335,-3.6917,-3.7465,-3.782,-3.8395,-3.9078,-4.03,-4.1257,-4.1479,-4.2555,-4.3625,-4.4261,-4.5448,-4.6605,-4.7677,-4.8719,-4.9699,-5.0353,-5.1372,-5.2607,-5.3737,-5.4971,-5.633,-5.7983,-5.9041,-5.9672,-5.9979,-6.0819,-6.1867,-6.3107,-6.3905,-6.4778,-6.5626,-6.6992,-6.7912,-6.83,-6.9337,-7.0018,-7.0431,-7.0671,-7.0961,-7.1224,-7.1435,-7.1938,-7.2608,-7.2662,-7.325,-7.4146,-7.4909,-7.5443,-7.5881,-1.4885,-1.4973,-1.5052,-1.5052,-1.5052,-1.5052,-1.5052,-1.5257,-1.5498,-1.5605,-1.6306,-1.6833,-1.7105,-1.7757,-1.8187,-1.8339,-1.9239,-1.9844,-1.9844,-2.0447,-2.0955,-2.1231,-2.1685,-2.2198,-2.2609,-2.3064,-2.3745,-2.467,-2.5285,-2.5671,-2.6129,-2.6711,-2.7087,-2.7559,-2.8351,-2.8637,-2.8651,-2.8812,-2.9212,-2.9523,-2.9974,-3.0454,-3.0778,-3.1241,-3.149,-3.1633,-3.1633,-3.1729,-3.1856,-3.1856,-3.1856,-3.1856,-3.2323,-3.2789,-3.3221,-3.3669,-3.3822,-3.3837,-3.3837,-3.4423,-3.5157,-3.5456,-3.6349,-3.6967,-3.655,-3.6836,-3.7468,-3.7946,-3.8228,-3.8595,-3.9396,-4.0541,-4.146,-4.18,-4.3003,-4.416,-4.4836,-4.6039,-4.7186,-4.811,-4.9162,-5.0181,-5.0991,-5.2053,-5.3209,-5.439,-5.5525,-5.6925,-5.8396,-5.9544,-6.0285,-6.0703,-6.1492,-6.2386,-6.35,-6.4799,-6.5977,-6.7131,-6.8084,-6.8779,-6.9171,-7.0023,-7.0515,-7.0699,-7.0979,-7.1386,-7.1827,-7.2016,-7.2655,-7.3511,-7.3557,-7.4158,-7.5015,-7.5572,-7.6028,-7.6427,-1.4768,-1.4768,-1.4768,-1.4768,-1.4927,-1.4811,-1.4811,-1.511,-1.5232,-1.5267,-1.5703,-1.6073,-1.6409,-1.7019,-1.7426,-1.7721,-1.8511,-1.9139,-1.9291,-1.9898,-2.0461,-2.0868,-2.1636,-2.22,-2.2412,-2.3235,-2.402,-2.4803,-2.5317,-2.5792,-2.6112,-2.6975,-2.741,-2.7888,-2.8613,-2.8886,-2.8886,-2.8886,-2.9071,-2.9598,-3.0065,-3.0406,-3.0934,-3.1399,-3.1729,-3.1999,-3.1999,-3.2173,-3.2412,-3.2412,-3.2412,-3.2412,-3.2745,-3.3236,-3.3644,-3.3626,-3.3787,-3.3991,-3.3871,-3.4423,-3.5157,-3.6052,-3.6812,-3.7326,-3.6967,-3.7413,-3.7955,-3.8427,-3.8697,-3.9072,-3.9884,-4.0826,-4.1663,-4.228,-4.3475,-4.4646,-4.5385,-4.663,-4.7713,-4.8408,-4.9439,-5.0578,-5.1628,-5.2733,-5.3809,-5.5008,-5.6252,-5.7538,-5.8758,-5.9801,-6.083,-6.1634,-6.2263,-6.2994,-6.3857,-6.5641,-6.7229,-6.8468,-6.8983,-6.9419,-6.9816,-7.0366,-7.0707,-7.0929,-7.1325,-7.1989,-7.2761,-7.2928,-7.3527,-7.4437,-7.4467,-7.5054,-7.5845,-7.5932,-7.6418,-7.7012,-1.4047,-1.4047,-1.4047,-1.4047,-1.4178,-1.4285,-1.4285,-1.4725,-1.5041,-1.5342,-1.572,-1.5975,-1.6294,-1.6635,-1.6959,-1.6959,-1.7885,-1.8762,-1.9531,-1.9674,-2.0099,-2.1112,-2.159,-2.2067,-2.2412,-2.3405,-2.4309,-2.4777,-2.5492,-2.5938,-2.641,-2.7236,-2.7563,-2.7734,-2.8559,-2.8886,-2.8886,-2.8886,-2.9047,-2.9468,-3.0257,-3.0755,-3.1174,-3.1936,-3.2285,-3.2332,-3.2332,-3.2364,-3.2412,-3.2412,-3.2412,-3.2412,-3.2412,-3.3062,-3.3694,-3.3644,-3.4205,-3.4659,-3.4008,-3.4423,-3.5157,-3.6052,-3.6812,-3.7402,-3.7326,-3.7605,-3.8053,-3.8828,-3.9167,-3.9667,-4.035,-4.133,-4.2051,-4.2807,-4.3711,-4.4767,-4.603,-4.7221,-4.8479,-4.9626,-5.0712,-5.1711,-5.2323,-5.3284,-5.4375,-5.553,-5.6888,-5.842,-5.9952,-6.1227,-6.2361,-6.3255,-6.338,-6.4315,-6.6175,-6.6994,-6.7819,-6.8468,-6.8983,-6.9419,-6.9816,-7.0976,-7.1625,-7.185,-7.2866,-7.3418,-7.3612,-7.378,-7.4438,-7.5376,-7.5376,-7.5963,-7.6804,-7.679,-7.6886,-7.7012,-1.3325,-1.3325,-1.3356,-1.345,-1.3535,-1.3621,-1.3714,-1.4167,-1.4611,-1.4684,-1.5084,-1.5489,-1.5888,-1.6042,-1.6392,-1.6961,-1.7371,-1.8144,-1.9163,-1.9532,-2.0032,-2.0737,-2.1368,-2.2065,-2.2835,-2.3757,-2.4452,-2.4926,-2.5529,-2.607,-2.6386,-2.7162,-2.7633,-2.7805,-2.8762,-2.9149,-2.9164,-2.9339,-2.9659,-3.0126,-3.0764,-3.1174,-3.1631,-3.2253,-3.2539,-3.2698,-3.2698,-3.2825,-3.2984,-3.2984,-3.2984,-3.2984,-3.2984,-3.3645,-3.4255,-3.4041,-3.4491,-3.5003,-3.4741,-3.5041,-3.5424,-3.6107,-3.6812,-3.7421,-3.7421,-3.7982,-3.8714,-3.9269,-3.9757,-4.0285,-4.0838,-4.1812,-4.27,-4.3333,-4.4206,-4.5254,-4.6484,-4.7555,-4.8637,-4.9897,-5.1128,-5.2108,-5.299,-5.3963,-5.5069,-5.6142,-5.7614,-5.9,-6.0226,-6.1561,-6.2906,-6.4186,-6.4566,-6.5375,-6.6714,-6.778,-6.8594,-6.9137,-7.0105,-7.0776,-7.1142,-7.1967,-7.2499,-7.2754,-7.3432,-7.4021,-7.4569,-7.4653,-7.5348,-7.631,-7.631,-7.6586,-7.7011,-7.6985,-7.7004,-7.7012,-1.2805,-1.2812,-1.2865,-1.3036,-1.3096,-1.3163,-1.329,-1.3748,-1.4006,-1.4006,-1.4581,-1.4984,-1.5333,-1.5496,-1.6035,-1.685,-1.7069,-1.7706,-1.8663,-1.9374,-2.002,-2.0346,-2.1315,-2.2202,-2.3199,-2.4012,-2.4652,-2.513,-2.5448,-2.5911,-2.6386,-2.7244,-2.7745,-2.7759,-2.9022,-2.9486,-2.95,-2.9764,-3.0233,-3.063,-3.1113,-3.1641,-3.2024,-3.2506,-3.2841,-3.3079,-3.3079,-3.3254,-3.3492,-3.3492,-3.3492,-3.3492,-3.3492,-3.4131,-3.4734,-3.4437,-3.4811,-3.5295,-3.5722,-3.5752,-3.5798,-3.6308,-3.6942,-3.7535,-3.744,-3.8302,-3.9321,-3.957,-4.0309,-4.1046,-4.1325,-4.2338,-4.3218,-4.386,-4.4748,-4.5813,-4.7059,-4.8017,-4.9033,-5.0303,-5.1432,-5.2646,-5.383,-5.4983,-5.5973,-5.7064,-5.856,-5.9749,-6.075,-6.2096,-6.3563,-6.5169,-6.5961,-6.6621,-6.7257,-6.8548,-6.9479,-6.9955,-7.1154,-7.1907,-7.2356,-7.292,-7.3341,-7.3629,-7.4087,-7.4741,-7.5503,-7.5583,-7.6125,-7.6894,-7.6894,-7.6936,-7.7011,-7.6985,-7.7004,-7.7051,-1.2954,-1.2984,-1.3036,-1.3208,-1.3357,-1.3461,-1.3468,-1.3617,-1.3722,-1.3722,-1.4199,-1.4578,-1.4727,-1.5376,-1.592,-1.6106,-1.7084,-1.7682,-1.7718,-1.8846,-1.9765,-2.0607,-2.1889,-2.2705,-2.3199,-2.368,-2.4332,-2.513,-2.513,-2.5607,-2.64,-2.761,-2.8067,-2.8081,-2.9355,-2.9822,-2.9837,-2.9851,-3.0351,-3.0958,-3.1462,-3.215,-3.2741,-3.3233,-3.3429,-3.3444,-3.3444,-3.346,-3.3492,-3.3492,-3.3492,-3.3492,-3.3492,-3.4131,-3.4783,-3.475,-3.5383,-3.6,-3.6199,-3.6142,-3.6207,-3.6594,-3.739,-3.7876,-3.7497,-3.8302,-3.9321,-3.957,-4.0555,-4.141,-4.1813,-4.2842,-4.3602,-4.4386,-4.5267,-4.6324,-4.7583,-4.8917,-5.0247,-5.1521,-5.2678,-5.3921,-5.5163,-5.6314,-5.7359,-5.8477,-5.998,-6.1322,-6.2255,-6.3635,-6.5128,-6.6775,-6.7543,-6.8235,-6.8923,-6.9681,-7.029,-7.0809,-7.1416,-7.1907,-7.2356,-7.353,-7.4254,-7.458,-7.5551,-7.6146,-7.6411,-7.6475,-7.6651,-7.6894,-7.6894,-7.6936,-7.7011,-7.6985,-7.7004,-7.7129,-1.2388,-1.2416,-1.2473,-1.2627,-1.2705,-1.2768,-1.286,-1.3084,-1.3274,-1.3274,-1.3834,-1.4235,-1.4602,-1.5027,-1.548,-1.6301,-1.686,-1.7441,-1.7882,-1.8779,-1.9642,-2.0627,-2.1922,-2.2728,-2.2889,-2.3686,-2.4578,-2.5397,-2.5562,-2.6138,-2.6934,-2.8011,-2.8389,-2.8403,-2.9688,-3.0159,-3.0173,-3.0378,-3.1033,-3.1811,-3.1976,-3.2546,-3.3312,-3.3476,-3.3492,-3.3492,-3.3492,-3.3492,-3.3492,-3.3492,-3.3492,-3.3492,-3.3492,-3.4131,-3.4946,-3.5433,-3.5774,-3.619,-3.6835,-3.6745,-3.6617,-3.6994,-3.78,-3.8311,-3.7876,-3.8965,-3.9911,-3.9775,-4.0862,-4.1877,-4.23,-4.3266,-4.4255,-4.5183,-4.5941,-4.6907,-4.8158,-4.9251,-5.0352,-5.1657,-5.2816,-5.4063,-5.5307,-5.6462,-5.748,-5.8631,-6.0138,-6.1483,-6.2418,-6.4788,-6.6608,-6.7725,-6.896,-6.9418,-6.9104,-7.0266,-7.1138,-7.1626,-7.2688,-7.3452,-7.3871,-7.4597,-7.5097,-7.5447,-7.5964,-7.6326,-7.6553,-7.6612,-7.6729,-7.6894,-7.6894,-7.6949,-7.7072,-7.7619,-7.7831,-7.8004,-1.2101,-1.2135,-1.2182,-1.2332,-1.2359,-1.2386,-1.2488,-1.2656,-1.2986,-1.3035,-1.3447,-1.4027,-1.4441,-1.4723,-1.5345,-1.617,-1.6837,-1.7377,-1.7837,-1.8894,-1.9915,-2.0732,-2.1871,-2.2554,-2.2796,-2.361,-2.4686,-2.5689,-2.5867,-2.6449,-2.7268,-2.8343,-2.8711,-2.8889,-3.0021,-3.0495,-3.051,-3.0729,-3.1331,-3.2174,-3.2174,-3.267,-3.3492,-3.3492,-3.3492,-3.3492,-3.3492,-3.3492,-3.3492,-3.3492,-3.3492,-3.3476,-3.364,-3.4294,-3.5109,-3.5935,-3.6097,-3.6258,-3.7205,-3.717,-3.7027,-3.7568,-3.8229,-3.8747,-3.8311,-3.9414,-4.0479,-4.0016,-4.1089,-4.233,-4.2603,-4.3558,-4.4686,-4.5754,-4.6523,-4.7467,-4.8732,-4.979,-5.0907,-5.2225,-5.3398,-5.4658,-5.5887,-5.7084,-5.8143,-5.9276,-6.0801,-6.2312,-6.3781,-6.6024,-6.7711,-6.8533,-6.9778,-7.0279,-6.9865,-7.107,-7.1987,-7.2481,-7.3586,-7.435,-7.4819,-7.5207,-7.5589,-7.5899,-7.6106,-7.635,-7.6612,-7.6612,-7.6845,-7.7283,-7.7283,-7.7508,-7.7901,-7.8477,-7.8737,-7.8909,-1.2264,-1.2291,-1.2338,-1.2474,-1.2501,-1.2501,-1.2501,-1.2501,-1.2556,-1.2712,-1.3047,-1.3641,-1.4445,-1.4815,-1.5365,-1.6032,-1.6871,-1.7363,-1.7363,-1.9202,-2.0477,-2.0972,-2.1796,-2.2553,-2.3298,-2.3797,-2.4637,-2.5969,-2.5969,-2.6462,-2.7281,-2.8565,-2.9033,-2.9212,-3.0354,-3.0817,-3.0817,-3.0817,-3.1331,-3.2174,-3.2174,-3.267,-3.3492,-3.3492,-3.3492,-3.3492,-3.3492,-3.3492,-3.3492,-3.3492,-3.3492,-3.3656,-3.3984,-3.4783,-3.5433,-3.5935,-3.6097,-3.6258,-3.7205,-3.7365,-3.7419,-3.797,-3.8657,-3.9201,-3.8747,-4.0014,-4.0941,-4.0479,-4.171,-4.2735,-4.2667,-4.3558,-4.4686,-4.5754,-4.6831,-4.8026,-4.9461,-5.0715,-5.2094,-5.347,-5.4671,-5.5961,-5.7191,-5.8415,-5.9529,-6.069,-6.2252,-6.4235,-6.6643,-6.7604,-6.8474,-6.9305,-7.0062,-7.0817,-7.1531,-7.2204,-7.2742,-7.3298,-7.3848,-7.435,-7.4819,-7.5245,-7.5589,-7.5938,-7.6145,-7.6389,-7.6612,-7.6612,-7.7195,-7.81,-7.81,-7.8715,-7.9588,-7.9608,-7.9635,-7.9846,-1.1484,-1.167,-1.1683,-1.1721,-1.1882,-1.2037,-1.2037,-1.2434,-1.2678,-1.2725,-1.3075,-1.3563,-1.4475,-1.4743,-1.5162,-1.5875,-1.6534,-1.7251,-1.8054,-1.958,-2.0604,-2.0925,-2.1965,-2.2732,-2.3298,-2.3983,-2.4914,-2.6249,-2.6452,-2.7045,-2.7883,-2.898,-2.9341,-2.9355,-3.0441,-3.0817,-3.0817,-3.115,-3.1662,-3.2174,-3.2505,-3.2983,-3.3508,-3.3762,-3.3858,-3.3889,-3.4112,-3.4191,-3.4191,-3.4191,-3.4191,-3.4375,-3.5043,-3.5527,-3.5967,-3.6293,-3.6285,-3.6258,-3.7205,-3.7365,-3.749,-3.8317,-3.9086,-3.9618,-3.9201,-4.0332,-4.1404,-4.1386,-4.2335,-4.3349,-4.3709,-4.4626,-4.5347,-4.6071,-4.7098,-4.8289,-4.9461,-5.0715,-5.2094,-5.347,-5.4671,-5.5961,-5.7191,-5.8415,-5.9529,-6.069,-6.2907,-6.4877,-6.6728,-6.8117,-6.9272,-7.0113,-7.1446,-7.2498,-7.3352,-7.2834,-7.3148,-7.419,-7.4843,-7.5651,-7.6562,-7.696,-7.7352,-7.7707,-7.7919,-7.8128,-7.8357,-7.8357,-7.8592,-7.8995,-7.8995,-7.9234,-7.9686,-8.028,-8.054,-8.0726,-1.1244,-1.1262,-1.1262,-1.1262,-1.1572,-1.1746,-1.1959,-1.22,-1.2615,-1.2888,-1.3057,-1.3526,-1.4244,-1.4496,-1.5051,-1.5711,-1.6601,-1.7583,-1.8539,-2.0011,-2.0857,-2.108,-2.2161,-2.2932,-2.3595,-2.4106,-2.5023,-2.6541,-2.6707,-2.7292,-2.8136,-2.9146,-2.9481,-2.9481,-3.0484,-3.0817,-3.0817,-3.1316,-3.1828,-3.2189,-3.2809,-3.3352,-3.373,-3.408,-3.4207,-3.4239,-3.443,-3.4509,-3.4509,-3.4509,-3.4678,-3.5184,-3.5873,-3.6375,-3.652,-3.6686,-3.6757,-3.6789,-3.7435,-3.7632,-3.7845,-3.864,-3.943,-4.0002,-4.0066,-4.1069,-4.2019,-4.2153,-4.2962,-4.3842,-4.4661,-4.5281,-4.6149,-4.7064,-4.7988,-4.8984,-4.9941,-5.1176,-5.2358,-5.3498,-5.4671,-5.5961,-5.7191,-5.8415,-5.994,-6.1957,-6.4255,-6.622,-6.7573,-6.8939,-7.007,-7.092,-7.2264,-7.3317,-7.4106,-7.3912,-7.4255,-7.5202,-7.5802,-7.6526,-7.7404,-7.7722,-7.8118,-7.8507,-7.8651,-7.8863,-7.9093,-7.9093,-7.9427,-7.989,-7.989,-8.0221,-8.0709,-8.1216,-8.1446,-8.1591,-1.1107,-1.1107,-1.1107,-1.1107,-1.1274,-1.1479,-1.1924,-1.2121,-1.239,-1.3139,-1.3186,-1.3411,-1.4052,-1.439,-1.4886,-1.5404,-1.6909,-1.8015,-1.8894,-2.0294,-2.108,-2.1292,-2.2168,-2.3204,-2.4064,-2.4064,-2.4921,-2.6796,-2.6796,-2.7292,-2.8136,-2.9146,-2.9481,-2.9481,-3.0484,-3.0846,-3.0861,-3.136,-3.1888,-3.2296,-3.3088,-3.3714,-3.4096,-3.443,-3.4557,-3.4557,-3.4588,-3.4604,-3.4604,-3.4604,-3.5281,-3.614,-3.6476,-3.6962,-3.7261,-3.7261,-3.7318,-3.7515,-3.7841,-3.8043,-3.8377,-3.917,-3.9606,-4.0216,-4.0997,-4.1753,-4.2556,-4.2905,-4.3593,-4.4503,-4.5168,-4.5939,-4.6908,-4.8234,-4.9197,-4.9977,-5.0912,-5.1897,-5.286,-5.3687,-5.4837,-5.6131,-5.7364,-5.8703,-6.0849,-6.4122,-6.6122,-6.7729,-6.889,-6.9932,-7.0868,-7.1693,-7.2727,-7.3668,-7.4324,-7.5264,-7.5936,-7.6317,-7.6713,-7.7212,-7.7713,-7.7989,-7.8348,-7.8707,-7.8882,-7.9095,-7.9326,-7.9326,-7.9932,-8.0824,-8.0824,-8.139,-8.2192,-8.2192,-8.2218,-8.2293,-1.033,-1.033,-1.033,-1.033,-1.0571,-1.1118,-1.1622,-1.2128,-1.2612,-1.3166,-1.3275,-1.3528,-1.4066,-1.439,-1.4939,-1.5576,-1.7214,-1.8299,-1.8913,-2.0441,-2.1251,-2.1302,-2.2168,-2.3204,-2.4064,-2.4064,-2.4921,-2.6796,-2.6796,-2.7292,-2.8136,-2.9146,-2.9481,-2.9481,-3.0484,-3.0964,-3.1212,-3.2038,-3.2693,-3.3122,-3.386,-3.4229,-3.443,-3.4779,-3.4922,-3.4954,-3.524,-3.5351,-3.5351,-3.587,-3.6543,-3.7213,-3.7401,-3.7539,-3.7638,-3.7638,-3.7698,-3.79,-3.823,-3.8599,-3.9098,-4.0057,-4.0287,-4.0509,-4.0997,-4.1753,-4.2657,-4.3773,-4.4506,-4.5252,-4.5967,-4.7008,-4.7865,-4.842,-4.9607,-5.0796,-5.1469,-5.2777,-5.388,-5.4878,-5.6083,-5.7406,-5.8668,-6.0897,-6.31,-6.5218,-6.6543,-6.7729,-6.889,-7.0412,-7.1666,-7.2535,-7.4079,-7.5289,-7.6154,-7.7017,-7.7347,-7.7139,-7.7721,-7.8511,-7.9461,-7.9782,-8.0148,-8.0477,-8.0656,-8.0873,-8.1148,-8.1148,-8.1349,-8.1719,-8.1719,-8.1935,-8.2192,-8.2192,-8.2218,-8.2293,-1.0019,-1.0068,-1.0106,-1.0106,-1.0368,-1.0787,-1.1326,-1.1775,-1.2376,-1.2939,-1.3184,-1.3569,-1.4066,-1.4463,-1.5272,-1.6544,-1.7588,-1.8432,-1.9049,-2.0539,-2.1302,-2.1302,-2.2341,-2.3376,-2.4064,-2.4235,-2.5263,-2.6796,-2.6796,-2.7292,-2.8136,-2.9146,-2.9565,-2.9705,-3.0716,-3.1242,-3.1549,-3.2553,-3.2998,-3.3337,-3.4344,-3.4763,-3.4795,-3.516,-3.5287,-3.5319,-3.551,-3.5748,-3.6096,-3.6789,-3.7291,-3.7619,-3.7808,-3.8015,-3.8032,-3.8372,-3.845,-3.8636,-3.8968,-3.9504,-4.0005,-4.065,-4.0966,-4.123,-4.1657,-4.2062,-4.283,-4.4201,-4.4955,-4.5617,-4.6557,-4.7653,-4.8707,-4.9411,-5.0636,-5.179,-5.2608,-5.3635,-5.4666,-5.5508,-5.6593,-5.8132,-6.0082,-6.2469,-6.4528,-6.6088,-6.7554,-6.8885,-6.9938,-7.1268,-7.2429,-7.3343,-7.4757,-7.5931,-7.6728,-7.7592,-7.8143,-7.8204,-7.8728,-7.9356,-8.0113,-8.0392,-8.072,-8.1016,-8.1234,-8.1453,-8.1691,-8.1695,-8.1796,-8.1991,-8.2007,-8.2104,-8.2192,-8.2192,-8.2218,-8.2293,-1.0047,-1.0134,-1.021,-1.0231,-1.0335,-1.0611,-1.1195,-1.1558,-1.2105,-1.2554,-1.3065,-1.3576,-1.4102,-1.4769,-1.584,-1.751,-1.8078,-1.8512,-1.9195,-2.0607,-2.1302,-2.1302,-2.2718,-2.3604,-2.4132,-2.4683,-2.5542,-2.6859,-2.6859,-2.7395,-2.8297,-2.9298,-2.9775,-3.0027,-3.1049,-3.1578,-3.1885,-3.2901,-3.3273,-3.3521,-3.4674,-3.5129,-3.516,-3.5462,-3.5573,-3.5573,-3.5748,-3.6096,-3.6616,-3.7291,-3.7636,-3.7808,-3.8152,-3.834,-3.8512,-3.8854,-3.9137,-3.9395,-3.988,-4.0418,-4.0759,-4.1228,-4.1728,-4.2112,-4.2436,-4.2584,-4.2984,-4.4504,-4.5256,-4.6002,-4.7038,-4.8186,-4.9342,-5.0482,-5.1607,-5.2729,-5.3623,-5.4472,-5.5328,-5.6237,-5.7388,-5.9158,-6.179,-6.3811,-6.5533,-6.6928,-6.8763,-7.0236,-7.112,-7.209,-7.3018,-7.3905,-7.5118,-7.6,-7.6728,-7.771,-7.8474,-7.9116,-7.9546,-7.9903,-8.0195,-8.0468,-8.0754,-8.1016,-8.1234,-8.1478,-8.1691,-8.1716,-8.1833,-8.1991,-8.1998,-8.2077,-8.2192,-8.2201,-8.2265,-8.2299,-1.0161,-1.0193,-1.0237,-1.034,-1.0454,-1.0699,-1.1207,-1.1635,-1.2216,-1.2567,-1.3065,-1.3617,-1.4244,-1.5383,-1.6623,-1.8044,-1.8374,-1.8837,-1.9737,-2.0781,-2.1302,-2.1302,-2.288,-2.4035,-2.4383,-2.5115,-2.5989,-2.7152,-2.7152,-2.7797,-2.8911,-2.9762,-3.0293,-3.0335,-3.1382,-3.1915,-3.2222,-3.3248,-3.3762,-3.4211,-3.513,-3.551,-3.551,-3.5558,-3.5573,-3.5573,-3.6096,-3.6789,-3.7464,-3.7619,-3.7808,-3.8152,-3.8323,-3.8512,-3.8854,-3.9025,-3.9501,-4.0313,-4.08,-4.1175,-4.1682,-4.2173,-4.2495,-4.2863,-4.2917,-4.3136,-4.3746,-4.4654,-4.5704,-4.6743,-4.7502,-4.8644,-4.9795,-5.093,-5.205,-5.3128,-5.4273,-5.5578,-5.6753,-5.7696,-6.003,-6.2172,-6.3883,-6.5157,-6.647,-6.7939,-6.9123,-7.0236,-7.112,-7.209,-7.3101,-7.4139,-7.5155,-7.6104,-7.692,-7.7768,-7.8474,-7.9116,-7.9554,-7.9908,-8.0195,-8.0468,-8.0754,-8.1016,-8.1253,-8.1504,-8.1713,-8.1757,-8.1869,-8.1991,-8.1998,-8.2077,-8.2201,-8.2273,-8.2287,-8.2299,-1.028,-1.0356,-1.0416,-1.0471,-1.0579,-1.0655,-1.0821,-1.1535,-1.2266,-1.2508,-1.3023,-1.3923,-1.4747,-1.5832,-1.7058,-1.82,-1.8462,-1.8864,-1.9921,-2.0781,-2.1353,-2.1484,-2.3326,-2.4323,-2.4646,-2.5454,-2.6406,-2.7686,-2.7521,-2.8017,-2.9045,-2.9886,-3.0489,-3.0657,-3.1714,-3.2425,-3.307,-3.377,-3.4211,-3.47,-3.5399,-3.5573,-3.5573,-3.5573,-3.5748,-3.6096,-3.6789,-3.7291,-3.7619,-3.798,-3.8152,-3.8323,-3.8683,-3.8854,-3.9025,-3.9554,-4.0064,-4.0554,-4.121,-4.1751,-4.2283,-4.2944,-4.3431,-4.388,-4.4315,-4.4691,-4.4984,-4.5062,-4.5853,-4.6891,-4.7941,-4.8933,-4.9938,-5.1071,-5.2189,-5.3291,-5.4619,-5.5815,-5.7275,-5.9052,-6.1015,-6.2672,-6.427,-6.5452,-6.6733,-6.8101,-6.9188,-7.0236,-7.112,-7.209,-7.3274,-7.4851,-7.5833,-7.704,-7.8336,-7.9172,-7.9854,-8.0468,-8.0961,-8.0904,-8.0276,-8.0578,-8.0855,-8.1039,-8.1319,-8.1528,-8.1713,-8.1796,-8.1887,-8.1991,-8.2039,-8.2112,-8.2218,-8.228,-8.2293,-8.2299]}]]